<?xml version="1.0" encoding="UTF-8" standalone="no" ?>
<gpx xmlns="http://www.topografix.com/GPX/1/1" xmlns:xsi="http://www.w3.org/2001/XMLSchema-instance" xsi:schemaLocation="http://www.topografix.com/GPX/1/1 http://www.topografix.com/GPX/1/1/gpx.xsd" version="1.1" creator="VisuGPX - https://www.visugpx.com">
  <metadata>
    <name>Cyclo - Sur les traces de la famille paternelle</name>
    <desc><![CDATA[Beau tour vers les origines de ma famille du côté paternel.]]></desc>
  </metadata>
  <trk>
    <name><![CDATA[02-JUIN-19 14:18:30]]></name>
    <trkseg>
      <trkpt lat="46.77104" lon="6.27563">
        <ele>850.42</ele>
        <time>2019-06-02T05:55:32Z</time>
      </trkpt>
      <trkpt lat="46.77103" lon="6.27564">
        <ele>852.83</ele>
        <time>2019-06-02T05:55:37Z</time>
      </trkpt>
      <trkpt lat="46.77104" lon="6.27562">
        <ele>856.19</ele>
        <time>2019-06-02T05:55:44Z</time>
      </trkpt>
      <trkpt lat="46.77104" lon="6.27564">
        <ele>859.08</ele>
        <time>2019-06-02T05:55:57Z</time>
      </trkpt>
      <trkpt lat="46.77102" lon="6.27567">
        <ele>859.56</ele>
        <time>2019-06-02T05:56:12Z</time>
      </trkpt>
      <trkpt lat="46.771" lon="6.27567">
        <ele>860.04</ele>
        <time>2019-06-02T05:56:22Z</time>
      </trkpt>
      <trkpt lat="46.77099" lon="6.27565">
        <ele>860.52</ele>
        <time>2019-06-02T05:56:25Z</time>
      </trkpt>
      <trkpt lat="46.77096" lon="6.27543">
        <ele>860.04</ele>
        <time>2019-06-02T05:56:37Z</time>
      </trkpt>
      <trkpt lat="46.771" lon="6.2751">
        <ele>857.63</ele>
        <time>2019-06-02T05:56:49Z</time>
      </trkpt>
      <trkpt lat="46.77114" lon="6.275">
        <ele>857.63</ele>
        <time>2019-06-02T05:56:57Z</time>
      </trkpt>
      <trkpt lat="46.7714" lon="6.27517">
        <ele>858.11</ele>
        <time>2019-06-02T05:57:11Z</time>
      </trkpt>
      <trkpt lat="46.7715" lon="6.27531">
        <ele>858.11</ele>
        <time>2019-06-02T05:57:16Z</time>
      </trkpt>
      <trkpt lat="46.77149" lon="6.27548">
        <ele>858.11</ele>
        <time>2019-06-02T05:57:20Z</time>
      </trkpt>
      <trkpt lat="46.77156" lon="6.2762">
        <ele>858.59</ele>
        <time>2019-06-02T05:57:36Z</time>
      </trkpt>
      <trkpt lat="46.77161" lon="6.27685">
        <ele>859.56</ele>
        <time>2019-06-02T05:57:50Z</time>
      </trkpt>
      <trkpt lat="46.77157" lon="6.27756">
        <ele>859.56</ele>
        <time>2019-06-02T05:58:04Z</time>
      </trkpt>
      <trkpt lat="46.77142" lon="6.27816">
        <ele>859.56</ele>
        <time>2019-06-02T05:58:16Z</time>
      </trkpt>
      <trkpt lat="46.77138" lon="6.27838">
        <ele>859.56</ele>
        <time>2019-06-02T05:58:20Z</time>
      </trkpt>
      <trkpt lat="46.77131" lon="6.27861">
        <ele>859.56</ele>
        <time>2019-06-02T05:58:24Z</time>
      </trkpt>
      <trkpt lat="46.771" lon="6.27921">
        <ele>860.04</ele>
        <time>2019-06-02T05:58:38Z</time>
      </trkpt>
      <trkpt lat="46.77095" lon="6.27929">
        <ele>860.04</ele>
        <time>2019-06-02T05:58:40Z</time>
      </trkpt>
      <trkpt lat="46.77071" lon="6.2793">
        <ele>860.52</ele>
        <time>2019-06-02T05:58:47Z</time>
      </trkpt>
      <trkpt lat="46.77028" lon="6.27911">
        <ele>861.48</ele>
        <time>2019-06-02T05:59:00Z</time>
      </trkpt>
      <trkpt lat="46.76999" lon="6.27872">
        <ele>862.44</ele>
        <time>2019-06-02T05:59:12Z</time>
      </trkpt>
      <trkpt lat="46.7696" lon="6.27805">
        <ele>863.88</ele>
        <time>2019-06-02T05:59:29Z</time>
      </trkpt>
      <trkpt lat="46.76907" lon="6.27743">
        <ele>866.29</ele>
        <time>2019-06-02T05:59:48Z</time>
      </trkpt>
      <trkpt lat="46.76863" lon="6.27703">
        <ele>868.21</ele>
        <time>2019-06-02T06:00:03Z</time>
      </trkpt>
      <trkpt lat="46.76811" lon="6.27668">
        <ele>869.65</ele>
        <time>2019-06-02T06:00:19Z</time>
      </trkpt>
      <trkpt lat="46.7676" lon="6.27629">
        <ele>870.61</ele>
        <time>2019-06-02T06:00:34Z</time>
      </trkpt>
      <trkpt lat="46.76694" lon="6.27582">
        <ele>872.05</ele>
        <time>2019-06-02T06:00:52Z</time>
      </trkpt>
      <trkpt lat="46.76628" lon="6.27528">
        <ele>873.5</ele>
        <time>2019-06-02T06:01:10Z</time>
      </trkpt>
      <trkpt lat="46.76577" lon="6.27456">
        <ele>874.94</ele>
        <time>2019-06-02T06:01:27Z</time>
      </trkpt>
      <trkpt lat="46.76544" lon="6.27357">
        <ele>876.86</ele>
        <time>2019-06-02T06:01:46Z</time>
      </trkpt>
      <trkpt lat="46.76535" lon="6.27261">
        <ele>879.26</ele>
        <time>2019-06-02T06:02:04Z</time>
      </trkpt>
      <trkpt lat="46.76531" lon="6.27149">
        <ele>881.19</ele>
        <time>2019-06-02T06:02:23Z</time>
      </trkpt>
      <trkpt lat="46.76522" lon="6.27095">
        <ele>881.67</ele>
        <time>2019-06-02T06:02:32Z</time>
      </trkpt>
      <trkpt lat="46.76483" lon="6.26989">
        <ele>881.67</ele>
        <time>2019-06-02T06:02:50Z</time>
      </trkpt>
      <trkpt lat="46.76418" lon="6.26904">
        <ele>879.26</ele>
        <time>2019-06-02T06:03:06Z</time>
      </trkpt>
      <trkpt lat="46.76333" lon="6.26806">
        <ele>877.34</ele>
        <time>2019-06-02T06:03:23Z</time>
      </trkpt>
      <trkpt lat="46.76251" lon="6.26734">
        <ele>877.82</ele>
        <time>2019-06-02T06:03:39Z</time>
      </trkpt>
      <trkpt lat="46.76169" lon="6.26691">
        <ele>878.3</ele>
        <time>2019-06-02T06:03:55Z</time>
      </trkpt>
      <trkpt lat="46.7614" lon="6.26668">
        <ele>878.3</ele>
        <time>2019-06-02T06:04:01Z</time>
      </trkpt>
      <trkpt lat="46.76052" lon="6.26589">
        <ele>877.34</ele>
        <time>2019-06-02T06:04:19Z</time>
      </trkpt>
      <trkpt lat="46.75969" lon="6.26492">
        <ele>874.94</ele>
        <time>2019-06-02T06:04:36Z</time>
      </trkpt>
      <trkpt lat="46.7586" lon="6.26359">
        <ele>872.05</ele>
        <time>2019-06-02T06:04:56Z</time>
      </trkpt>
      <trkpt lat="46.75805" lon="6.26247">
        <ele>873.5</ele>
        <time>2019-06-02T06:05:11Z</time>
      </trkpt>
      <trkpt lat="46.75781" lon="6.2619">
        <ele>874.46</ele>
        <time>2019-06-02T06:05:19Z</time>
      </trkpt>
      <trkpt lat="46.75744" lon="6.26087">
        <ele>877.34</ele>
        <time>2019-06-02T06:05:34Z</time>
      </trkpt>
      <trkpt lat="46.75731" lon="6.26004">
        <ele>879.74</ele>
        <time>2019-06-02T06:05:46Z</time>
      </trkpt>
      <trkpt lat="46.75724" lon="6.25964">
        <ele>880.71</ele>
        <time>2019-06-02T06:05:52Z</time>
      </trkpt>
      <trkpt lat="46.75708" lon="6.25915">
        <ele>882.15</ele>
        <time>2019-06-02T06:06:00Z</time>
      </trkpt>
      <trkpt lat="46.75673" lon="6.25829">
        <ele>884.55</ele>
        <time>2019-06-02T06:06:15Z</time>
      </trkpt>
      <trkpt lat="46.7564" lon="6.25752">
        <ele>886.47</ele>
        <time>2019-06-02T06:06:31Z</time>
      </trkpt>
      <trkpt lat="46.75634" lon="6.25724">
        <ele>887.43</ele>
        <time>2019-06-02T06:06:42Z</time>
      </trkpt>
      <trkpt lat="46.75631" lon="6.25719">
        <ele>887.43</ele>
        <time>2019-06-02T06:06:46Z</time>
      </trkpt>
      <trkpt lat="46.75627" lon="6.25722">
        <ele>887.91</ele>
        <time>2019-06-02T06:06:50Z</time>
      </trkpt>
      <trkpt lat="46.75632" lon="6.25724">
        <ele>887.91</ele>
        <time>2019-06-02T06:06:54Z</time>
      </trkpt>
      <trkpt lat="46.75634" lon="6.25722">
        <ele>887.91</ele>
        <time>2019-06-02T06:06:56Z</time>
      </trkpt>
      <trkpt lat="46.7563" lon="6.25721">
        <ele>887.91</ele>
        <time>2019-06-02T06:07:05Z</time>
      </trkpt>
      <trkpt lat="46.75639" lon="6.25718">
        <ele>887.43</ele>
        <time>2019-06-02T06:07:15Z</time>
      </trkpt>
      <trkpt lat="46.7564" lon="6.25716">
        <ele>887.43</ele>
        <time>2019-06-02T06:07:16Z</time>
      </trkpt>
      <trkpt lat="46.75658" lon="6.25687">
        <ele>886.47</ele>
        <time>2019-06-02T06:07:24Z</time>
      </trkpt>
      <trkpt lat="46.75676" lon="6.25662">
        <ele>885.51</ele>
        <time>2019-06-02T06:07:29Z</time>
      </trkpt>
      <trkpt lat="46.75724" lon="6.25565">
        <ele>883.11</ele>
        <time>2019-06-02T06:07:42Z</time>
      </trkpt>
      <trkpt lat="46.75761" lon="6.25459">
        <ele>881.19</ele>
        <time>2019-06-02T06:07:54Z</time>
      </trkpt>
      <trkpt lat="46.75774" lon="6.25388">
        <ele>879.74</ele>
        <time>2019-06-02T06:08:01Z</time>
      </trkpt>
      <trkpt lat="46.7578" lon="6.25335">
        <ele>878.3</ele>
        <time>2019-06-02T06:08:06Z</time>
      </trkpt>
      <trkpt lat="46.75784" lon="6.2528">
        <ele>876.86</ele>
        <time>2019-06-02T06:08:11Z</time>
      </trkpt>
      <trkpt lat="46.75815" lon="6.25218">
        <ele>874.94</ele>
        <time>2019-06-02T06:08:18Z</time>
      </trkpt>
      <trkpt lat="46.75829" lon="6.25208">
        <ele>874.46</ele>
        <time>2019-06-02T06:08:20Z</time>
      </trkpt>
      <trkpt lat="46.75846" lon="6.25175">
        <ele>873.98</ele>
        <time>2019-06-02T06:08:24Z</time>
      </trkpt>
      <trkpt lat="46.75856" lon="6.2506">
        <ele>871.57</ele>
        <time>2019-06-02T06:08:35Z</time>
      </trkpt>
      <trkpt lat="46.75853" lon="6.24928">
        <ele>868.69</ele>
        <time>2019-06-02T06:08:47Z</time>
      </trkpt>
      <trkpt lat="46.75853" lon="6.24917">
        <ele>868.21</ele>
        <time>2019-06-02T06:08:48Z</time>
      </trkpt>
      <trkpt lat="46.75839" lon="6.24799">
        <ele>866.29</ele>
        <time>2019-06-02T06:08:59Z</time>
      </trkpt>
      <trkpt lat="46.75839" lon="6.24769">
        <ele>865.8</ele>
        <time>2019-06-02T06:09:02Z</time>
      </trkpt>
      <trkpt lat="46.75865" lon="6.24716">
        <ele>866.29</ele>
        <time>2019-06-02T06:09:09Z</time>
      </trkpt>
      <trkpt lat="46.75954" lon="6.24649">
        <ele>865.8</ele>
        <time>2019-06-02T06:09:27Z</time>
      </trkpt>
      <trkpt lat="46.76034" lon="6.24586">
        <ele>866.29</ele>
        <time>2019-06-02T06:09:45Z</time>
      </trkpt>
      <trkpt lat="46.76109" lon="6.24527">
        <ele>866.29</ele>
        <time>2019-06-02T06:10:02Z</time>
      </trkpt>
      <trkpt lat="46.76174" lon="6.24479">
        <ele>869.17</ele>
        <time>2019-06-02T06:10:20Z</time>
      </trkpt>
      <trkpt lat="46.76236" lon="6.24446">
        <ele>872.05</ele>
        <time>2019-06-02T06:10:38Z</time>
      </trkpt>
      <trkpt lat="46.76287" lon="6.2443">
        <ele>875.42</ele>
        <time>2019-06-02T06:10:52Z</time>
      </trkpt>
      <trkpt lat="46.76336" lon="6.24427">
        <ele>878.3</ele>
        <time>2019-06-02T06:11:06Z</time>
      </trkpt>
      <trkpt lat="46.76377" lon="6.24431">
        <ele>881.19</ele>
        <time>2019-06-02T06:11:18Z</time>
      </trkpt>
      <trkpt lat="46.76405" lon="6.24411">
        <ele>884.55</ele>
        <time>2019-06-02T06:11:28Z</time>
      </trkpt>
      <trkpt lat="46.7642" lon="6.24398">
        <ele>886.95</ele>
        <time>2019-06-02T06:11:34Z</time>
      </trkpt>
      <trkpt lat="46.76448" lon="6.2438">
        <ele>889.84</ele>
        <time>2019-06-02T06:11:45Z</time>
      </trkpt>
      <trkpt lat="46.76476" lon="6.24397">
        <ele>892.72</ele>
        <time>2019-06-02T06:11:56Z</time>
      </trkpt>
      <trkpt lat="46.76503" lon="6.24427">
        <ele>896.09</ele>
        <time>2019-06-02T06:12:07Z</time>
      </trkpt>
      <trkpt lat="46.76533" lon="6.24445">
        <ele>899.45</ele>
        <time>2019-06-02T06:12:18Z</time>
      </trkpt>
      <trkpt lat="46.76553" lon="6.2446">
        <ele>902.33</ele>
        <time>2019-06-02T06:12:26Z</time>
      </trkpt>
      <trkpt lat="46.76568" lon="6.24466">
        <ele>904.26</ele>
        <time>2019-06-02T06:12:32Z</time>
      </trkpt>
      <trkpt lat="46.76602" lon="6.24473">
        <ele>907.62</ele>
        <time>2019-06-02T06:12:44Z</time>
      </trkpt>
      <trkpt lat="46.76637" lon="6.24467">
        <ele>910.03</ele>
        <time>2019-06-02T06:12:56Z</time>
      </trkpt>
      <trkpt lat="46.7666" lon="6.24443">
        <ele>911.95</ele>
        <time>2019-06-02T06:13:06Z</time>
      </trkpt>
      <trkpt lat="46.76671" lon="6.24422">
        <ele>911.47</ele>
        <time>2019-06-02T06:13:20Z</time>
      </trkpt>
      <trkpt lat="46.76663" lon="6.24435">
        <ele>911.95</ele>
        <time>2019-06-02T06:13:32Z</time>
      </trkpt>
      <trkpt lat="46.7666" lon="6.24438">
        <ele>911.95</ele>
        <time>2019-06-02T06:13:36Z</time>
      </trkpt>
      <trkpt lat="46.76659" lon="6.24444">
        <ele>911.95</ele>
        <time>2019-06-02T06:13:40Z</time>
      </trkpt>
      <trkpt lat="46.76655" lon="6.24451">
        <ele>911.47</ele>
        <time>2019-06-02T06:13:45Z</time>
      </trkpt>
      <trkpt lat="46.76639" lon="6.24465">
        <ele>910.99</ele>
        <time>2019-06-02T06:13:57Z</time>
      </trkpt>
      <trkpt lat="46.7662" lon="6.24472">
        <ele>909.54</ele>
        <time>2019-06-02T06:14:11Z</time>
      </trkpt>
      <trkpt lat="46.76613" lon="6.24471">
        <ele>908.58</ele>
        <time>2019-06-02T06:14:18Z</time>
      </trkpt>
      <trkpt lat="46.76611" lon="6.24471">
        <ele>908.58</ele>
        <time>2019-06-02T06:14:20Z</time>
      </trkpt>
      <trkpt lat="46.76603" lon="6.24471">
        <ele>908.1</ele>
        <time>2019-06-02T06:14:30Z</time>
      </trkpt>
      <trkpt lat="46.76597" lon="6.24471">
        <ele>907.14</ele>
        <time>2019-06-02T06:14:36Z</time>
      </trkpt>
      <trkpt lat="46.76604" lon="6.24473">
        <ele>907.62</ele>
        <time>2019-06-02T06:14:44Z</time>
      </trkpt>
      <trkpt lat="46.7663" lon="6.2447">
        <ele>910.03</ele>
        <time>2019-06-02T06:14:57Z</time>
      </trkpt>
      <trkpt lat="46.76656" lon="6.24448">
        <ele>911.95</ele>
        <time>2019-06-02T06:15:10Z</time>
      </trkpt>
      <trkpt lat="46.76678" lon="6.24408">
        <ele>910.99</ele>
        <time>2019-06-02T06:15:25Z</time>
      </trkpt>
      <trkpt lat="46.76728" lon="6.24326">
        <ele>909.06</ele>
        <time>2019-06-02T06:15:38Z</time>
      </trkpt>
      <trkpt lat="46.76772" lon="6.24263">
        <ele>911.47</ele>
        <time>2019-06-02T06:15:53Z</time>
      </trkpt>
      <trkpt lat="46.76793" lon="6.2421">
        <ele>910.99</ele>
        <time>2019-06-02T06:16:04Z</time>
      </trkpt>
      <trkpt lat="46.76796" lon="6.24197">
        <ele>910.99</ele>
        <time>2019-06-02T06:16:06Z</time>
      </trkpt>
      <trkpt lat="46.76798" lon="6.24185">
        <ele>910.99</ele>
        <time>2019-06-02T06:16:08Z</time>
      </trkpt>
      <trkpt lat="46.76818" lon="6.2411">
        <ele>911.95</ele>
        <time>2019-06-02T06:16:23Z</time>
      </trkpt>
      <trkpt lat="46.76849" lon="6.24106">
        <ele>910.99</ele>
        <time>2019-06-02T06:16:33Z</time>
      </trkpt>
      <trkpt lat="46.76852" lon="6.24104">
        <ele>910.99</ele>
        <time>2019-06-02T06:16:34Z</time>
      </trkpt>
      <trkpt lat="46.76859" lon="6.24061">
        <ele>910.99</ele>
        <time>2019-06-02T06:16:44Z</time>
      </trkpt>
      <trkpt lat="46.76872" lon="6.23994">
        <ele>911.95</ele>
        <time>2019-06-02T06:16:57Z</time>
      </trkpt>
      <trkpt lat="46.76864" lon="6.23951">
        <ele>913.87</ele>
        <time>2019-06-02T06:17:08Z</time>
      </trkpt>
      <trkpt lat="46.76848" lon="6.23952">
        <ele>914.35</ele>
        <time>2019-06-02T06:17:14Z</time>
      </trkpt>
      <trkpt lat="46.76844" lon="6.23954">
        <ele>914.83</ele>
        <time>2019-06-02T06:17:21Z</time>
      </trkpt>
      <trkpt lat="46.76871" lon="6.23947">
        <ele>914.35</ele>
        <time>2019-06-02T06:17:30Z</time>
      </trkpt>
      <trkpt lat="46.76884" lon="6.23959">
        <ele>913.87</ele>
        <time>2019-06-02T06:17:34Z</time>
      </trkpt>
      <trkpt lat="46.76901" lon="6.23968">
        <ele>913.39</ele>
        <time>2019-06-02T06:17:38Z</time>
      </trkpt>
      <trkpt lat="46.76919" lon="6.23995">
        <ele>912.91</ele>
        <time>2019-06-02T06:17:46Z</time>
      </trkpt>
      <trkpt lat="46.76913" lon="6.23984">
        <ele>912.91</ele>
        <time>2019-06-02T06:17:52Z</time>
      </trkpt>
      <trkpt lat="46.76905" lon="6.23972">
        <ele>913.39</ele>
        <time>2019-06-02T06:17:56Z</time>
      </trkpt>
      <trkpt lat="46.76898" lon="6.23955">
        <ele>913.39</ele>
        <time>2019-06-02T06:18:00Z</time>
      </trkpt>
      <trkpt lat="46.76902" lon="6.23914">
        <ele>914.35</ele>
        <time>2019-06-02T06:18:09Z</time>
      </trkpt>
      <trkpt lat="46.76901" lon="6.2391">
        <ele>914.83</ele>
        <time>2019-06-02T06:18:10Z</time>
      </trkpt>
      <trkpt lat="46.76871" lon="6.23862">
        <ele>916.75</ele>
        <time>2019-06-02T06:18:24Z</time>
      </trkpt>
      <trkpt lat="46.76861" lon="6.23811">
        <ele>918.68</ele>
        <time>2019-06-02T06:18:36Z</time>
      </trkpt>
      <trkpt lat="46.76848" lon="6.23766">
        <ele>920.6</ele>
        <time>2019-06-02T06:18:47Z</time>
      </trkpt>
      <trkpt lat="46.76835" lon="6.23715">
        <ele>923.48</ele>
        <time>2019-06-02T06:18:59Z</time>
      </trkpt>
      <trkpt lat="46.76838" lon="6.23693">
        <ele>925.41</ele>
        <time>2019-06-02T06:19:04Z</time>
      </trkpt>
      <trkpt lat="46.76834" lon="6.23694">
        <ele>925.89</ele>
        <time>2019-06-02T06:19:10Z</time>
      </trkpt>
      <trkpt lat="46.76834" lon="6.237">
        <ele>924.93</ele>
        <time>2019-06-02T06:19:12Z</time>
      </trkpt>
      <trkpt lat="46.76836" lon="6.23688">
        <ele>925.89</ele>
        <time>2019-06-02T06:19:20Z</time>
      </trkpt>
      <trkpt lat="46.76837" lon="6.23676">
        <ele>926.37</ele>
        <time>2019-06-02T06:19:24Z</time>
      </trkpt>
      <trkpt lat="46.7684" lon="6.23663">
        <ele>927.81</ele>
        <time>2019-06-02T06:19:28Z</time>
      </trkpt>
      <trkpt lat="46.76844" lon="6.23657">
        <ele>928.77</ele>
        <time>2019-06-02T06:19:31Z</time>
      </trkpt>
      <trkpt lat="46.76848" lon="6.23654">
        <ele>929.25</ele>
        <time>2019-06-02T06:19:34Z</time>
      </trkpt>
      <trkpt lat="46.76844" lon="6.23661">
        <ele>928.29</ele>
        <time>2019-06-02T06:19:42Z</time>
      </trkpt>
      <trkpt lat="46.76854" lon="6.23649">
        <ele>929.73</ele>
        <time>2019-06-02T06:19:49Z</time>
      </trkpt>
      <trkpt lat="46.76857" lon="6.23646">
        <ele>930.69</ele>
        <time>2019-06-02T06:19:51Z</time>
      </trkpt>
      <trkpt lat="46.76883" lon="6.23629">
        <ele>933.58</ele>
        <time>2019-06-02T06:20:04Z</time>
      </trkpt>
      <trkpt lat="46.76911" lon="6.23629">
        <ele>936.46</ele>
        <time>2019-06-02T06:20:16Z</time>
      </trkpt>
      <trkpt lat="46.76941" lon="6.2364">
        <ele>938.86</ele>
        <time>2019-06-02T06:20:28Z</time>
      </trkpt>
      <trkpt lat="46.76964" lon="6.23648">
        <ele>940.79</ele>
        <time>2019-06-02T06:20:38Z</time>
      </trkpt>
      <trkpt lat="46.77001" lon="6.23654">
        <ele>943.67</ele>
        <time>2019-06-02T06:20:52Z</time>
      </trkpt>
      <trkpt lat="46.77033" lon="6.23653">
        <ele>947.52</ele>
        <time>2019-06-02T06:21:04Z</time>
      </trkpt>
      <trkpt lat="46.77065" lon="6.23644">
        <ele>950.4</ele>
        <time>2019-06-02T06:21:16Z</time>
      </trkpt>
      <trkpt lat="46.77098" lon="6.23631">
        <ele>953.77</ele>
        <time>2019-06-02T06:21:29Z</time>
      </trkpt>
      <trkpt lat="46.77106" lon="6.23629">
        <ele>955.21</ele>
        <time>2019-06-02T06:21:32Z</time>
      </trkpt>
      <trkpt lat="46.7714" lon="6.23632">
        <ele>958.57</ele>
        <time>2019-06-02T06:21:45Z</time>
      </trkpt>
      <trkpt lat="46.77174" lon="6.23654">
        <ele>961.46</ele>
        <time>2019-06-02T06:21:59Z</time>
      </trkpt>
      <trkpt lat="46.77198" lon="6.2368">
        <ele>964.82</ele>
        <time>2019-06-02T06:22:10Z</time>
      </trkpt>
      <trkpt lat="46.77221" lon="6.23702">
        <ele>968.18</ele>
        <time>2019-06-02T06:22:20Z</time>
      </trkpt>
      <trkpt lat="46.77223" lon="6.23705">
        <ele>968.18</ele>
        <time>2019-06-02T06:22:21Z</time>
      </trkpt>
      <trkpt lat="46.77244" lon="6.23726">
        <ele>971.55</ele>
        <time>2019-06-02T06:22:30Z</time>
      </trkpt>
      <trkpt lat="46.77263" lon="6.23739">
        <ele>973.95</ele>
        <time>2019-06-02T06:22:38Z</time>
      </trkpt>
      <trkpt lat="46.77273" lon="6.23742">
        <ele>974.43</ele>
        <time>2019-06-02T06:22:43Z</time>
      </trkpt>
      <trkpt lat="46.77276" lon="6.2374">
        <ele>974.91</ele>
        <time>2019-06-02T06:22:46Z</time>
      </trkpt>
      <trkpt lat="46.7729" lon="6.23741">
        <ele>976.36</ele>
        <time>2019-06-02T06:22:57Z</time>
      </trkpt>
      <trkpt lat="46.7729" lon="6.23739">
        <ele>976.36</ele>
        <time>2019-06-02T06:23:02Z</time>
      </trkpt>
      <trkpt lat="46.77285" lon="6.23741">
        <ele>975.88</ele>
        <time>2019-06-02T06:23:05Z</time>
      </trkpt>
      <trkpt lat="46.7727" lon="6.23739">
        <ele>974.91</ele>
        <time>2019-06-02T06:23:18Z</time>
      </trkpt>
      <trkpt lat="46.77258" lon="6.23735">
        <ele>973.95</ele>
        <time>2019-06-02T06:23:32Z</time>
      </trkpt>
      <trkpt lat="46.77255" lon="6.23735">
        <ele>973.47</ele>
        <time>2019-06-02T06:23:47Z</time>
      </trkpt>
      <trkpt lat="46.77255" lon="6.23735">
        <ele>973.47</ele>
        <time>2019-06-02T06:24:13Z</time>
      </trkpt>
      <trkpt lat="46.77256" lon="6.23734">
        <ele>973.47</ele>
        <time>2019-06-02T06:24:40Z</time>
      </trkpt>
      <trkpt lat="46.77256" lon="6.23734">
        <ele>973.47</ele>
        <time>2019-06-02T06:24:54Z</time>
      </trkpt>
      <trkpt lat="46.77254" lon="6.23736">
        <ele>973.47</ele>
        <time>2019-06-02T06:24:56Z</time>
      </trkpt>
      <trkpt lat="46.77264" lon="6.23738">
        <ele>973.95</ele>
        <time>2019-06-02T06:25:03Z</time>
      </trkpt>
      <trkpt lat="46.77294" lon="6.23741">
        <ele>976.36</ele>
        <time>2019-06-02T06:25:18Z</time>
      </trkpt>
      <trkpt lat="46.77331" lon="6.23737">
        <ele>979.24</ele>
        <time>2019-06-02T06:25:36Z</time>
      </trkpt>
      <trkpt lat="46.77365" lon="6.23735">
        <ele>982.12</ele>
        <time>2019-06-02T06:25:53Z</time>
      </trkpt>
      <trkpt lat="46.77393" lon="6.2373">
        <ele>985.01</ele>
        <time>2019-06-02T06:26:06Z</time>
      </trkpt>
      <trkpt lat="46.77395" lon="6.23728">
        <ele>985.01</ele>
        <time>2019-06-02T06:26:07Z</time>
      </trkpt>
      <trkpt lat="46.77419" lon="6.23713">
        <ele>986.93</ele>
        <time>2019-06-02T06:26:23Z</time>
      </trkpt>
      <trkpt lat="46.77424" lon="6.2371">
        <ele>986.93</ele>
        <time>2019-06-02T06:26:27Z</time>
      </trkpt>
      <trkpt lat="46.77418" lon="6.23712">
        <ele>986.93</ele>
        <time>2019-06-02T06:26:32Z</time>
      </trkpt>
      <trkpt lat="46.77406" lon="6.23719">
        <ele>985.97</ele>
        <time>2019-06-02T06:26:45Z</time>
      </trkpt>
      <trkpt lat="46.77406" lon="6.23718">
        <ele>985.97</ele>
        <time>2019-06-02T06:26:57Z</time>
      </trkpt>
      <trkpt lat="46.77406" lon="6.23719">
        <ele>985.97</ele>
        <time>2019-06-02T06:27:33Z</time>
      </trkpt>
      <trkpt lat="46.77406" lon="6.23719">
        <ele>985.97</ele>
        <time>2019-06-02T06:28:11Z</time>
      </trkpt>
      <trkpt lat="46.77406" lon="6.23719">
        <ele>985.97</ele>
        <time>2019-06-02T06:28:16Z</time>
      </trkpt>
      <trkpt lat="46.77409" lon="6.23721">
        <ele>985.97</ele>
        <time>2019-06-02T06:28:21Z</time>
      </trkpt>
      <trkpt lat="46.77413" lon="6.23717">
        <ele>986.45</ele>
        <time>2019-06-02T06:28:29Z</time>
      </trkpt>
      <trkpt lat="46.77416" lon="6.23715">
        <ele>986.45</ele>
        <time>2019-06-02T06:28:32Z</time>
      </trkpt>
      <trkpt lat="46.77456" lon="6.23682">
        <ele>987.89</ele>
        <time>2019-06-02T06:28:46Z</time>
      </trkpt>
      <trkpt lat="46.775" lon="6.23642">
        <ele>990.78</ele>
        <time>2019-06-02T06:29:03Z</time>
      </trkpt>
      <trkpt lat="46.77531" lon="6.23616">
        <ele>993.66</ele>
        <time>2019-06-02T06:29:19Z</time>
      </trkpt>
      <trkpt lat="46.77557" lon="6.23594">
        <ele>995.1</ele>
        <time>2019-06-02T06:29:32Z</time>
      </trkpt>
      <trkpt lat="46.77586" lon="6.23568">
        <ele>998.47</ele>
        <time>2019-06-02T06:29:46Z</time>
      </trkpt>
      <trkpt lat="46.7762" lon="6.23542">
        <ele>1001.35</ele>
        <time>2019-06-02T06:30:00Z</time>
      </trkpt>
      <trkpt lat="46.77649" lon="6.23523">
        <ele>1002.79</ele>
        <time>2019-06-02T06:30:11Z</time>
      </trkpt>
      <trkpt lat="46.77657" lon="6.23511">
        <ele>1002.31</ele>
        <time>2019-06-02T06:30:16Z</time>
      </trkpt>
      <trkpt lat="46.77674" lon="6.23491">
        <ele>1002.31</ele>
        <time>2019-06-02T06:30:28Z</time>
      </trkpt>
      <trkpt lat="46.77685" lon="6.23471">
        <ele>1001.83</ele>
        <time>2019-06-02T06:30:42Z</time>
      </trkpt>
      <trkpt lat="46.77689" lon="6.23465">
        <ele>1001.35</ele>
        <time>2019-06-02T06:30:46Z</time>
      </trkpt>
      <trkpt lat="46.77699" lon="6.23448">
        <ele>1001.35</ele>
        <time>2019-06-02T06:30:58Z</time>
      </trkpt>
      <trkpt lat="46.7771" lon="6.23431">
        <ele>1000.39</ele>
        <time>2019-06-02T06:31:08Z</time>
      </trkpt>
      <trkpt lat="46.77737" lon="6.2338">
        <ele>998.47</ele>
        <time>2019-06-02T06:31:21Z</time>
      </trkpt>
      <trkpt lat="46.77751" lon="6.23362">
        <ele>997.99</ele>
        <time>2019-06-02T06:31:24Z</time>
      </trkpt>
      <trkpt lat="46.77789" lon="6.23328">
        <ele>999.43</ele>
        <time>2019-06-02T06:31:34Z</time>
      </trkpt>
      <trkpt lat="46.7781" lon="6.23311">
        <ele>1002.31</ele>
        <time>2019-06-02T06:31:45Z</time>
      </trkpt>
      <trkpt lat="46.77829" lon="6.23294">
        <ele>1005.68</ele>
        <time>2019-06-02T06:31:55Z</time>
      </trkpt>
      <trkpt lat="46.77849" lon="6.23271">
        <ele>1008.56</ele>
        <time>2019-06-02T06:32:07Z</time>
      </trkpt>
      <trkpt lat="46.77867" lon="6.23249">
        <ele>1011.44</ele>
        <time>2019-06-02T06:32:18Z</time>
      </trkpt>
      <trkpt lat="46.77884" lon="6.23226">
        <ele>1014.81</ele>
        <time>2019-06-02T06:32:29Z</time>
      </trkpt>
      <trkpt lat="46.77904" lon="6.23195">
        <ele>1017.69</ele>
        <time>2019-06-02T06:32:39Z</time>
      </trkpt>
      <trkpt lat="46.77914" lon="6.2318">
        <ele>1019.62</ele>
        <time>2019-06-02T06:32:44Z</time>
      </trkpt>
      <trkpt lat="46.77931" lon="6.2315">
        <ele>1022.5</ele>
        <time>2019-06-02T06:32:55Z</time>
      </trkpt>
      <trkpt lat="46.77941" lon="6.23122">
        <ele>1022.02</ele>
        <time>2019-06-02T06:33:06Z</time>
      </trkpt>
      <trkpt lat="46.77941" lon="6.2312">
        <ele>1022.02</ele>
        <time>2019-06-02T06:33:08Z</time>
      </trkpt>
      <trkpt lat="46.77933" lon="6.23142">
        <ele>1022.02</ele>
        <time>2019-06-02T06:33:21Z</time>
      </trkpt>
      <trkpt lat="46.77927" lon="6.23152">
        <ele>1022.02</ele>
        <time>2019-06-02T06:33:30Z</time>
      </trkpt>
      <trkpt lat="46.77928" lon="6.23154">
        <ele>1022.02</ele>
        <time>2019-06-02T06:33:32Z</time>
      </trkpt>
      <trkpt lat="46.77935" lon="6.2314">
        <ele>1022.02</ele>
        <time>2019-06-02T06:33:40Z</time>
      </trkpt>
      <trkpt lat="46.7794" lon="6.23121">
        <ele>1022.02</ele>
        <time>2019-06-02T06:33:49Z</time>
      </trkpt>
      <trkpt lat="46.77942" lon="6.2311">
        <ele>1021.54</ele>
        <time>2019-06-02T06:33:54Z</time>
      </trkpt>
      <trkpt lat="46.77943" lon="6.23098">
        <ele>1021.54</ele>
        <time>2019-06-02T06:33:58Z</time>
      </trkpt>
      <trkpt lat="46.77935" lon="6.23058">
        <ele>1020.1</ele>
        <time>2019-06-02T06:34:05Z</time>
      </trkpt>
      <trkpt lat="46.77935" lon="6.22977">
        <ele>1020.1</ele>
        <time>2019-06-02T06:34:17Z</time>
      </trkpt>
      <trkpt lat="46.77938" lon="6.22933">
        <ele>1020.58</ele>
        <time>2019-06-02T06:34:29Z</time>
      </trkpt>
      <trkpt lat="46.77942" lon="6.22911">
        <ele>1020.58</ele>
        <time>2019-06-02T06:34:35Z</time>
      </trkpt>
      <trkpt lat="46.77952" lon="6.22875">
        <ele>1020.1</ele>
        <time>2019-06-02T06:34:44Z</time>
      </trkpt>
      <trkpt lat="46.77964" lon="6.22835">
        <ele>1019.62</ele>
        <time>2019-06-02T06:34:51Z</time>
      </trkpt>
      <trkpt lat="46.78006" lon="6.22758">
        <ele>1015.29</ele>
        <time>2019-06-02T06:35:02Z</time>
      </trkpt>
      <trkpt lat="46.78018" lon="6.22742">
        <ele>1014.33</ele>
        <time>2019-06-02T06:35:04Z</time>
      </trkpt>
      <trkpt lat="46.78052" lon="6.22714">
        <ele>1013.37</ele>
        <time>2019-06-02T06:35:09Z</time>
      </trkpt>
      <trkpt lat="46.78073" lon="6.22692">
        <ele>1013.85</ele>
        <time>2019-06-02T06:35:13Z</time>
      </trkpt>
      <trkpt lat="46.78089" lon="6.22649">
        <ele>1013.85</ele>
        <time>2019-06-02T06:35:19Z</time>
      </trkpt>
      <trkpt lat="46.78087" lon="6.22551">
        <ele>1011.44</ele>
        <time>2019-06-02T06:35:30Z</time>
      </trkpt>
      <trkpt lat="46.78099" lon="6.22529">
        <ele>1010.48</ele>
        <time>2019-06-02T06:35:33Z</time>
      </trkpt>
      <trkpt lat="46.78106" lon="6.22526">
        <ele>1009.52</ele>
        <time>2019-06-02T06:35:34Z</time>
      </trkpt>
      <trkpt lat="46.78119" lon="6.22521">
        <ele>1009.04</ele>
        <time>2019-06-02T06:35:36Z</time>
      </trkpt>
      <trkpt lat="46.78126" lon="6.22519">
        <ele>1008.56</ele>
        <time>2019-06-02T06:35:37Z</time>
      </trkpt>
      <trkpt lat="46.78159" lon="6.22494">
        <ele>1005.68</ele>
        <time>2019-06-02T06:35:42Z</time>
      </trkpt>
      <trkpt lat="46.78188" lon="6.22437">
        <ele>1001.83</ele>
        <time>2019-06-02T06:35:47Z</time>
      </trkpt>
      <trkpt lat="46.78214" lon="6.22374">
        <ele>998.47</ele>
        <time>2019-06-02T06:35:52Z</time>
      </trkpt>
      <trkpt lat="46.78235" lon="6.22292">
        <ele>996.06</ele>
        <time>2019-06-02T06:35:59Z</time>
      </trkpt>
      <trkpt lat="46.78244" lon="6.2226">
        <ele>995.58</ele>
        <time>2019-06-02T06:36:04Z</time>
      </trkpt>
      <trkpt lat="46.78245" lon="6.22257">
        <ele>995.1</ele>
        <time>2019-06-02T06:36:06Z</time>
      </trkpt>
      <trkpt lat="46.7826" lon="6.22215">
        <ele>994.62</ele>
        <time>2019-06-02T06:36:19Z</time>
      </trkpt>
      <trkpt lat="46.78268" lon="6.22193">
        <ele>994.14</ele>
        <time>2019-06-02T06:36:24Z</time>
      </trkpt>
      <trkpt lat="46.7828" lon="6.22177">
        <ele>993.66</ele>
        <time>2019-06-02T06:36:29Z</time>
      </trkpt>
      <trkpt lat="46.78308" lon="6.22148">
        <ele>992.22</ele>
        <time>2019-06-02T06:36:35Z</time>
      </trkpt>
      <trkpt lat="46.78348" lon="6.22116">
        <ele>990.3</ele>
        <time>2019-06-02T06:36:44Z</time>
      </trkpt>
      <trkpt lat="46.78372" lon="6.22094">
        <ele>987.89</ele>
        <time>2019-06-02T06:36:50Z</time>
      </trkpt>
      <trkpt lat="46.78407" lon="6.22069">
        <ele>983.57</ele>
        <time>2019-06-02T06:36:56Z</time>
      </trkpt>
      <trkpt lat="46.78436" lon="6.22057">
        <ele>979.24</ele>
        <time>2019-06-02T06:37:01Z</time>
      </trkpt>
      <trkpt lat="46.7844" lon="6.22055">
        <ele>979.24</ele>
        <time>2019-06-02T06:37:02Z</time>
      </trkpt>
      <trkpt lat="46.78453" lon="6.22053">
        <ele>978.28</ele>
        <time>2019-06-02T06:37:05Z</time>
      </trkpt>
      <trkpt lat="46.78462" lon="6.2205">
        <ele>977.32</ele>
        <time>2019-06-02T06:37:07Z</time>
      </trkpt>
      <trkpt lat="46.78494" lon="6.22046">
        <ele>974.43</ele>
        <time>2019-06-02T06:37:12Z</time>
      </trkpt>
      <trkpt lat="46.7852" lon="6.22048">
        <ele>972.03</ele>
        <time>2019-06-02T06:37:15Z</time>
      </trkpt>
      <trkpt lat="46.78564" lon="6.22059">
        <ele>967.22</ele>
        <time>2019-06-02T06:37:20Z</time>
      </trkpt>
      <trkpt lat="46.78583" lon="6.2207">
        <ele>965.78</ele>
        <time>2019-06-02T06:37:23Z</time>
      </trkpt>
      <trkpt lat="46.78594" lon="6.22052">
        <ele>965.3</ele>
        <time>2019-06-02T06:37:30Z</time>
      </trkpt>
      <trkpt lat="46.78578" lon="6.21985">
        <ele>965.78</ele>
        <time>2019-06-02T06:37:43Z</time>
      </trkpt>
      <trkpt lat="46.78565" lon="6.21914">
        <ele>966.26</ele>
        <time>2019-06-02T06:37:59Z</time>
      </trkpt>
      <trkpt lat="46.78563" lon="6.21898">
        <ele>966.26</ele>
        <time>2019-06-02T06:38:14Z</time>
      </trkpt>
      <trkpt lat="46.78563" lon="6.21898">
        <ele>966.26</ele>
        <time>2019-06-02T06:38:43Z</time>
      </trkpt>
      <trkpt lat="46.78563" lon="6.21898">
        <ele>966.26</ele>
        <time>2019-06-02T06:39:00Z</time>
      </trkpt>
      <trkpt lat="46.78562" lon="6.2189">
        <ele>966.26</ele>
        <time>2019-06-02T06:39:04Z</time>
      </trkpt>
      <trkpt lat="46.78556" lon="6.21843">
        <ele>966.26</ele>
        <time>2019-06-02T06:39:17Z</time>
      </trkpt>
      <trkpt lat="46.78567" lon="6.21847">
        <ele>966.26</ele>
        <time>2019-06-02T06:39:24Z</time>
      </trkpt>
      <trkpt lat="46.78582" lon="6.21853">
        <ele>966.26</ele>
        <time>2019-06-02T06:39:31Z</time>
      </trkpt>
      <trkpt lat="46.78587" lon="6.21849">
        <ele>966.26</ele>
        <time>2019-06-02T06:39:34Z</time>
      </trkpt>
      <trkpt lat="46.786" lon="6.21828">
        <ele>966.74</ele>
        <time>2019-06-02T06:39:44Z</time>
      </trkpt>
      <trkpt lat="46.78602" lon="6.21823">
        <ele>967.22</ele>
        <time>2019-06-02T06:39:46Z</time>
      </trkpt>
      <trkpt lat="46.78625" lon="6.21807">
        <ele>968.18</ele>
        <time>2019-06-02T06:39:58Z</time>
      </trkpt>
      <trkpt lat="46.7865" lon="6.2179">
        <ele>968.67</ele>
        <time>2019-06-02T06:40:09Z</time>
      </trkpt>
      <trkpt lat="46.78677" lon="6.21772">
        <ele>969.63</ele>
        <time>2019-06-02T06:40:19Z</time>
      </trkpt>
      <trkpt lat="46.78682" lon="6.21767">
        <ele>970.11</ele>
        <time>2019-06-02T06:40:21Z</time>
      </trkpt>
      <trkpt lat="46.78691" lon="6.21754">
        <ele>970.11</ele>
        <time>2019-06-02T06:40:25Z</time>
      </trkpt>
      <trkpt lat="46.7872" lon="6.21733">
        <ele>972.03</ele>
        <time>2019-06-02T06:40:37Z</time>
      </trkpt>
      <trkpt lat="46.78748" lon="6.21716">
        <ele>973.95</ele>
        <time>2019-06-02T06:40:48Z</time>
      </trkpt>
      <trkpt lat="46.78777" lon="6.21702">
        <ele>975.39</ele>
        <time>2019-06-02T06:40:58Z</time>
      </trkpt>
      <trkpt lat="46.78809" lon="6.21684">
        <ele>976.36</ele>
        <time>2019-06-02T06:41:08Z</time>
      </trkpt>
      <trkpt lat="46.7885" lon="6.21673">
        <ele>977.8</ele>
        <time>2019-06-02T06:41:21Z</time>
      </trkpt>
      <trkpt lat="46.78865" lon="6.21669">
        <ele>979.24</ele>
        <time>2019-06-02T06:41:27Z</time>
      </trkpt>
      <trkpt lat="46.78877" lon="6.21641">
        <ele>980.2</ele>
        <time>2019-06-02T06:41:36Z</time>
      </trkpt>
      <trkpt lat="46.7888" lon="6.21638">
        <ele>980.2</ele>
        <time>2019-06-02T06:41:38Z</time>
      </trkpt>
      <trkpt lat="46.78909" lon="6.21604">
        <ele>981.64</ele>
        <time>2019-06-02T06:41:51Z</time>
      </trkpt>
      <trkpt lat="46.78911" lon="6.21602">
        <ele>981.64</ele>
        <time>2019-06-02T06:41:52Z</time>
      </trkpt>
      <trkpt lat="46.78914" lon="6.216">
        <ele>982.12</ele>
        <time>2019-06-02T06:41:54Z</time>
      </trkpt>
      <trkpt lat="46.7893" lon="6.21577">
        <ele>984.05</ele>
        <time>2019-06-02T06:42:04Z</time>
      </trkpt>
      <trkpt lat="46.78936" lon="6.21569">
        <ele>985.01</ele>
        <time>2019-06-02T06:42:08Z</time>
      </trkpt>
      <trkpt lat="46.78943" lon="6.21562">
        <ele>985.97</ele>
        <time>2019-06-02T06:42:12Z</time>
      </trkpt>
      <trkpt lat="46.78953" lon="6.21547">
        <ele>987.41</ele>
        <time>2019-06-02T06:42:19Z</time>
      </trkpt>
      <trkpt lat="46.78962" lon="6.2154">
        <ele>987.89</ele>
        <time>2019-06-02T06:42:23Z</time>
      </trkpt>
      <trkpt lat="46.7898" lon="6.21521">
        <ele>988.37</ele>
        <time>2019-06-02T06:42:30Z</time>
      </trkpt>
      <trkpt lat="46.79004" lon="6.21499">
        <ele>991.26</ele>
        <time>2019-06-02T06:42:40Z</time>
      </trkpt>
      <trkpt lat="46.79008" lon="6.21493">
        <ele>993.18</ele>
        <time>2019-06-02T06:42:45Z</time>
      </trkpt>
      <trkpt lat="46.79024" lon="6.21475">
        <ele>996.06</ele>
        <time>2019-06-02T06:42:55Z</time>
      </trkpt>
      <trkpt lat="46.7904" lon="6.21463">
        <ele>999.43</ele>
        <time>2019-06-02T06:43:06Z</time>
      </trkpt>
      <trkpt lat="46.79043" lon="6.21462">
        <ele>999.91</ele>
        <time>2019-06-02T06:43:08Z</time>
      </trkpt>
      <trkpt lat="46.7906" lon="6.21439">
        <ele>1002.31</ele>
        <time>2019-06-02T06:43:15Z</time>
      </trkpt>
      <trkpt lat="46.79071" lon="6.21422">
        <ele>1003.27</ele>
        <time>2019-06-02T06:43:20Z</time>
      </trkpt>
      <trkpt lat="46.79077" lon="6.21415">
        <ele>1005.2</ele>
        <time>2019-06-02T06:43:25Z</time>
      </trkpt>
      <trkpt lat="46.79101" lon="6.21387">
        <ele>1008.08</ele>
        <time>2019-06-02T06:43:36Z</time>
      </trkpt>
      <trkpt lat="46.79118" lon="6.21371">
        <ele>1010</ele>
        <time>2019-06-02T06:43:46Z</time>
      </trkpt>
      <trkpt lat="46.79127" lon="6.21357">
        <ele>1010.96</ele>
        <time>2019-06-02T06:43:50Z</time>
      </trkpt>
      <trkpt lat="46.79147" lon="6.21333">
        <ele>1013.85</ele>
        <time>2019-06-02T06:44:01Z</time>
      </trkpt>
      <trkpt lat="46.79153" lon="6.21327">
        <ele>1014.33</ele>
        <time>2019-06-02T06:44:04Z</time>
      </trkpt>
      <trkpt lat="46.7917" lon="6.21306">
        <ele>1016.25</ele>
        <time>2019-06-02T06:44:13Z</time>
      </trkpt>
      <trkpt lat="46.79178" lon="6.21294">
        <ele>1017.21</ele>
        <time>2019-06-02T06:44:18Z</time>
      </trkpt>
      <trkpt lat="46.79192" lon="6.21279">
        <ele>1018.65</ele>
        <time>2019-06-02T06:44:27Z</time>
      </trkpt>
      <trkpt lat="46.7921" lon="6.21258">
        <ele>1021.54</ele>
        <time>2019-06-02T06:44:38Z</time>
      </trkpt>
      <trkpt lat="46.79219" lon="6.21245">
        <ele>1022.98</ele>
        <time>2019-06-02T06:44:43Z</time>
      </trkpt>
      <trkpt lat="46.79236" lon="6.2121">
        <ele>1026.83</ele>
        <time>2019-06-02T06:44:54Z</time>
      </trkpt>
      <trkpt lat="46.79252" lon="6.21184">
        <ele>1029.71</ele>
        <time>2019-06-02T06:45:04Z</time>
      </trkpt>
      <trkpt lat="46.79265" lon="6.2116">
        <ele>1033.07</ele>
        <time>2019-06-02T06:45:13Z</time>
      </trkpt>
      <trkpt lat="46.79279" lon="6.21131">
        <ele>1035.48</ele>
        <time>2019-06-02T06:45:21Z</time>
      </trkpt>
      <trkpt lat="46.79282" lon="6.21126">
        <ele>1035.96</ele>
        <time>2019-06-02T06:45:23Z</time>
      </trkpt>
      <trkpt lat="46.7929" lon="6.21113">
        <ele>1037.4</ele>
        <time>2019-06-02T06:45:28Z</time>
      </trkpt>
      <trkpt lat="46.79305" lon="6.21091">
        <ele>1041.25</ele>
        <time>2019-06-02T06:45:38Z</time>
      </trkpt>
      <trkpt lat="46.79313" lon="6.21083">
        <ele>1042.21</ele>
        <time>2019-06-02T06:45:42Z</time>
      </trkpt>
      <trkpt lat="46.79322" lon="6.21074">
        <ele>1043.17</ele>
        <time>2019-06-02T06:45:46Z</time>
      </trkpt>
      <trkpt lat="46.79334" lon="6.21054">
        <ele>1045.09</ele>
        <time>2019-06-02T06:45:52Z</time>
      </trkpt>
      <trkpt lat="46.79348" lon="6.21025">
        <ele>1047.97</ele>
        <time>2019-06-02T06:46:02Z</time>
      </trkpt>
      <trkpt lat="46.79355" lon="6.20985">
        <ele>1051.34</ele>
        <time>2019-06-02T06:46:14Z</time>
      </trkpt>
      <trkpt lat="46.79361" lon="6.20945">
        <ele>1054.22</ele>
        <time>2019-06-02T06:46:25Z</time>
      </trkpt>
      <trkpt lat="46.79367" lon="6.20909">
        <ele>1057.59</ele>
        <time>2019-06-02T06:46:35Z</time>
      </trkpt>
      <trkpt lat="46.79382" lon="6.20875">
        <ele>1060.95</ele>
        <time>2019-06-02T06:46:46Z</time>
      </trkpt>
      <trkpt lat="46.79412" lon="6.2083">
        <ele>1063.84</ele>
        <time>2019-06-02T06:47:02Z</time>
      </trkpt>
      <trkpt lat="46.79432" lon="6.20798">
        <ele>1064.8</ele>
        <time>2019-06-02T06:47:15Z</time>
      </trkpt>
      <trkpt lat="46.79434" lon="6.20796">
        <ele>1064.8</ele>
        <time>2019-06-02T06:47:16Z</time>
      </trkpt>
      <trkpt lat="46.79445" lon="6.2078">
        <ele>1064.8</ele>
        <time>2019-06-02T06:47:25Z</time>
      </trkpt>
      <trkpt lat="46.79447" lon="6.20777">
        <ele>1064.8</ele>
        <time>2019-06-02T06:47:28Z</time>
      </trkpt>
      <trkpt lat="46.79439" lon="6.20787">
        <ele>1065.28</ele>
        <time>2019-06-02T06:47:35Z</time>
      </trkpt>
      <trkpt lat="46.79428" lon="6.20805">
        <ele>1064.8</ele>
        <time>2019-06-02T06:47:43Z</time>
      </trkpt>
      <trkpt lat="46.79402" lon="6.20844">
        <ele>1063.36</ele>
        <time>2019-06-02T06:47:54Z</time>
      </trkpt>
      <trkpt lat="46.79381" lon="6.20875">
        <ele>1060.95</ele>
        <time>2019-06-02T06:48:04Z</time>
      </trkpt>
      <trkpt lat="46.79366" lon="6.20911">
        <ele>1058.55</ele>
        <time>2019-06-02T06:48:12Z</time>
      </trkpt>
      <trkpt lat="46.79359" lon="6.20946">
        <ele>1055.67</ele>
        <time>2019-06-02T06:48:18Z</time>
      </trkpt>
      <trkpt lat="46.79356" lon="6.2097">
        <ele>1053.26</ele>
        <time>2019-06-02T06:48:22Z</time>
      </trkpt>
      <trkpt lat="46.79351" lon="6.21007">
        <ele>1049.9</ele>
        <time>2019-06-02T06:48:29Z</time>
      </trkpt>
      <trkpt lat="46.79344" lon="6.21033">
        <ele>1047.97</ele>
        <time>2019-06-02T06:48:38Z</time>
      </trkpt>
      <trkpt lat="46.79339" lon="6.21045">
        <ele>1046.53</ele>
        <time>2019-06-02T06:48:46Z</time>
      </trkpt>
      <trkpt lat="46.79342" lon="6.21041">
        <ele>1047.01</ele>
        <time>2019-06-02T06:48:55Z</time>
      </trkpt>
      <trkpt lat="46.79344" lon="6.2104">
        <ele>1047.49</ele>
        <time>2019-06-02T06:49:00Z</time>
      </trkpt>
      <trkpt lat="46.79338" lon="6.21047">
        <ele>1046.53</ele>
        <time>2019-06-02T06:49:06Z</time>
      </trkpt>
      <trkpt lat="46.79333" lon="6.21054">
        <ele>1045.57</ele>
        <time>2019-06-02T06:49:13Z</time>
      </trkpt>
      <trkpt lat="46.79337" lon="6.21044">
        <ele>1046.53</ele>
        <time>2019-06-02T06:49:18Z</time>
      </trkpt>
      <trkpt lat="46.79349" lon="6.21014">
        <ele>1048.94</ele>
        <time>2019-06-02T06:49:30Z</time>
      </trkpt>
      <trkpt lat="46.7935" lon="6.21012">
        <ele>1048.94</ele>
        <time>2019-06-02T06:49:31Z</time>
      </trkpt>
      <trkpt lat="46.79353" lon="6.20992">
        <ele>1050.38</ele>
        <time>2019-06-02T06:49:39Z</time>
      </trkpt>
      <trkpt lat="46.79357" lon="6.20985">
        <ele>1051.34</ele>
        <time>2019-06-02T06:49:43Z</time>
      </trkpt>
      <trkpt lat="46.79359" lon="6.2097">
        <ele>1052.78</ele>
        <time>2019-06-02T06:49:49Z</time>
      </trkpt>
      <trkpt lat="46.7936" lon="6.20949">
        <ele>1054.22</ele>
        <time>2019-06-02T06:49:56Z</time>
      </trkpt>
      <trkpt lat="46.79363" lon="6.20934">
        <ele>1055.18</ele>
        <time>2019-06-02T06:50:01Z</time>
      </trkpt>
      <trkpt lat="46.7937" lon="6.20907">
        <ele>1058.07</ele>
        <time>2019-06-02T06:50:11Z</time>
      </trkpt>
      <trkpt lat="46.7938" lon="6.20886">
        <ele>1059.99</ele>
        <time>2019-06-02T06:50:20Z</time>
      </trkpt>
      <trkpt lat="46.79396" lon="6.2086">
        <ele>1062.39</ele>
        <time>2019-06-02T06:50:31Z</time>
      </trkpt>
      <trkpt lat="46.7941" lon="6.20837">
        <ele>1063.36</ele>
        <time>2019-06-02T06:50:41Z</time>
      </trkpt>
      <trkpt lat="46.79415" lon="6.2083">
        <ele>1063.84</ele>
        <time>2019-06-02T06:50:45Z</time>
      </trkpt>
      <trkpt lat="46.7943" lon="6.20804">
        <ele>1064.32</ele>
        <time>2019-06-02T06:50:58Z</time>
      </trkpt>
      <trkpt lat="46.79439" lon="6.20788">
        <ele>1064.8</ele>
        <time>2019-06-02T06:51:08Z</time>
      </trkpt>
      <trkpt lat="46.79444" lon="6.20786">
        <ele>1065.28</ele>
        <time>2019-06-02T06:51:12Z</time>
      </trkpt>
      <trkpt lat="46.79451" lon="6.20778">
        <ele>1064.8</ele>
        <time>2019-06-02T06:51:17Z</time>
      </trkpt>
      <trkpt lat="46.79478" lon="6.20745">
        <ele>1066.24</ele>
        <time>2019-06-02T06:51:28Z</time>
      </trkpt>
      <trkpt lat="46.79489" lon="6.20727">
        <ele>1066.24</ele>
        <time>2019-06-02T06:51:36Z</time>
      </trkpt>
      <trkpt lat="46.79493" lon="6.20719">
        <ele>1066.24</ele>
        <time>2019-06-02T06:51:40Z</time>
      </trkpt>
      <trkpt lat="46.79496" lon="6.20716">
        <ele>1066.24</ele>
        <time>2019-06-02T06:51:43Z</time>
      </trkpt>
      <trkpt lat="46.79508" lon="6.20689">
        <ele>1065.28</ele>
        <time>2019-06-02T06:51:50Z</time>
      </trkpt>
      <trkpt lat="46.7952" lon="6.20667">
        <ele>1064.32</ele>
        <time>2019-06-02T06:51:54Z</time>
      </trkpt>
      <trkpt lat="46.79546" lon="6.20629">
        <ele>1064.8</ele>
        <time>2019-06-02T06:52:05Z</time>
      </trkpt>
      <trkpt lat="46.79548" lon="6.20625">
        <ele>1064.8</ele>
        <time>2019-06-02T06:52:18Z</time>
      </trkpt>
      <trkpt lat="46.79548" lon="6.20625">
        <ele>1065.28</ele>
        <time>2019-06-02T06:52:45Z</time>
      </trkpt>
      <trkpt lat="46.79548" lon="6.20625">
        <ele>1065.28</ele>
        <time>2019-06-02T06:53:13Z</time>
      </trkpt>
      <trkpt lat="46.79548" lon="6.20625">
        <ele>1065.28</ele>
        <time>2019-06-02T06:53:39Z</time>
      </trkpt>
      <trkpt lat="46.79549" lon="6.20624">
        <ele>1065.28</ele>
        <time>2019-06-02T06:53:57Z</time>
      </trkpt>
      <trkpt lat="46.7955" lon="6.20624">
        <ele>1065.28</ele>
        <time>2019-06-02T06:53:58Z</time>
      </trkpt>
      <trkpt lat="46.79566" lon="6.20607">
        <ele>1065.76</ele>
        <time>2019-06-02T06:54:05Z</time>
      </trkpt>
      <trkpt lat="46.7959" lon="6.20587">
        <ele>1065.76</ele>
        <time>2019-06-02T06:54:14Z</time>
      </trkpt>
      <trkpt lat="46.79618" lon="6.2056">
        <ele>1065.28</ele>
        <time>2019-06-02T06:54:25Z</time>
      </trkpt>
      <trkpt lat="46.7962" lon="6.20557">
        <ele>1065.76</ele>
        <time>2019-06-02T06:54:26Z</time>
      </trkpt>
      <trkpt lat="46.79655" lon="6.20511">
        <ele>1066.24</ele>
        <time>2019-06-02T06:54:37Z</time>
      </trkpt>
      <trkpt lat="46.79675" lon="6.20476">
        <ele>1067.2</ele>
        <time>2019-06-02T06:54:46Z</time>
      </trkpt>
      <trkpt lat="46.79702" lon="6.2043">
        <ele>1067.68</ele>
        <time>2019-06-02T06:54:58Z</time>
      </trkpt>
      <trkpt lat="46.79719" lon="6.20404">
        <ele>1067.2</ele>
        <time>2019-06-02T06:55:05Z</time>
      </trkpt>
      <trkpt lat="46.79733" lon="6.20381">
        <ele>1066.72</ele>
        <time>2019-06-02T06:55:10Z</time>
      </trkpt>
      <trkpt lat="46.79752" lon="6.20338">
        <ele>1066.72</ele>
        <time>2019-06-02T06:55:16Z</time>
      </trkpt>
      <trkpt lat="46.7976" lon="6.20311">
        <ele>1066.24</ele>
        <time>2019-06-02T06:55:20Z</time>
      </trkpt>
      <trkpt lat="46.79767" lon="6.20274">
        <ele>1066.24</ele>
        <time>2019-06-02T06:55:25Z</time>
      </trkpt>
      <trkpt lat="46.79775" lon="6.20247">
        <ele>1066.24</ele>
        <time>2019-06-02T06:55:29Z</time>
      </trkpt>
      <trkpt lat="46.79811" lon="6.20187">
        <ele>1066.24</ele>
        <time>2019-06-02T06:55:42Z</time>
      </trkpt>
      <trkpt lat="46.79819" lon="6.2018">
        <ele>1065.76</ele>
        <time>2019-06-02T06:55:44Z</time>
      </trkpt>
      <trkpt lat="46.79844" lon="6.20171">
        <ele>1065.28</ele>
        <time>2019-06-02T06:55:49Z</time>
      </trkpt>
      <trkpt lat="46.79878" lon="6.20161">
        <ele>1064.32</ele>
        <time>2019-06-02T06:55:58Z</time>
      </trkpt>
      <trkpt lat="46.7988" lon="6.2016">
        <ele>1064.32</ele>
        <time>2019-06-02T06:55:59Z</time>
      </trkpt>
      <trkpt lat="46.79893" lon="6.20151">
        <ele>1063.36</ele>
        <time>2019-06-02T06:56:04Z</time>
      </trkpt>
      <trkpt lat="46.79923" lon="6.20123">
        <ele>1060.95</ele>
        <time>2019-06-02T06:56:10Z</time>
      </trkpt>
      <trkpt lat="46.7994" lon="6.20104">
        <ele>1059.99</ele>
        <time>2019-06-02T06:56:13Z</time>
      </trkpt>
      <trkpt lat="46.79968" lon="6.20055">
        <ele>1057.11</ele>
        <time>2019-06-02T06:56:18Z</time>
      </trkpt>
      <trkpt lat="46.7999" lon="6.20017">
        <ele>1054.22</ele>
        <time>2019-06-02T06:56:22Z</time>
      </trkpt>
      <trkpt lat="46.80012" lon="6.19974">
        <ele>1050.86</ele>
        <time>2019-06-02T06:56:26Z</time>
      </trkpt>
      <trkpt lat="46.80023" lon="6.19898">
        <ele>1047.01</ele>
        <time>2019-06-02T06:56:32Z</time>
      </trkpt>
      <trkpt lat="46.80019" lon="6.19873">
        <ele>1045.57</ele>
        <time>2019-06-02T06:56:34Z</time>
      </trkpt>
      <trkpt lat="46.80023" lon="6.19828">
        <ele>1041.25</ele>
        <time>2019-06-02T06:56:38Z</time>
      </trkpt>
      <trkpt lat="46.80029" lon="6.19818">
        <ele>1040.28</ele>
        <time>2019-06-02T06:56:39Z</time>
      </trkpt>
      <trkpt lat="46.80041" lon="6.19795">
        <ele>1038.36</ele>
        <time>2019-06-02T06:56:41Z</time>
      </trkpt>
      <trkpt lat="46.80057" lon="6.19735">
        <ele>1033.55</ele>
        <time>2019-06-02T06:56:45Z</time>
      </trkpt>
      <trkpt lat="46.80058" lon="6.19701">
        <ele>1032.11</ele>
        <time>2019-06-02T06:56:47Z</time>
      </trkpt>
      <trkpt lat="46.80069" lon="6.19596">
        <ele>1031.15</ele>
        <time>2019-06-02T06:56:55Z</time>
      </trkpt>
      <trkpt lat="46.80108" lon="6.19562">
        <ele>1028.27</ele>
        <time>2019-06-02T06:57:02Z</time>
      </trkpt>
      <trkpt lat="46.80122" lon="6.19568">
        <ele>1027.31</ele>
        <time>2019-06-02T06:57:04Z</time>
      </trkpt>
      <trkpt lat="46.80168" lon="6.196">
        <ele>1022.5</ele>
        <time>2019-06-02T06:57:10Z</time>
      </trkpt>
      <trkpt lat="46.80198" lon="6.19623">
        <ele>1019.13</ele>
        <time>2019-06-02T06:57:14Z</time>
      </trkpt>
      <trkpt lat="46.80233" lon="6.1965">
        <ele>1015.77</ele>
        <time>2019-06-02T06:57:19Z</time>
      </trkpt>
      <trkpt lat="46.80246" lon="6.19657">
        <ele>1014.81</ele>
        <time>2019-06-02T06:57:21Z</time>
      </trkpt>
      <trkpt lat="46.80278" lon="6.19675">
        <ele>1012.89</ele>
        <time>2019-06-02T06:57:29Z</time>
      </trkpt>
      <trkpt lat="46.80284" lon="6.1968">
        <ele>1012.89</ele>
        <time>2019-06-02T06:57:31Z</time>
      </trkpt>
      <trkpt lat="46.80299" lon="6.19694">
        <ele>1012.41</ele>
        <time>2019-06-02T06:57:35Z</time>
      </trkpt>
      <trkpt lat="46.80311" lon="6.19707">
        <ele>1011.44</ele>
        <time>2019-06-02T06:57:38Z</time>
      </trkpt>
      <trkpt lat="46.80325" lon="6.19723">
        <ele>1010</ele>
        <time>2019-06-02T06:57:41Z</time>
      </trkpt>
      <trkpt lat="46.80348" lon="6.19749">
        <ele>1008.56</ele>
        <time>2019-06-02T06:57:45Z</time>
      </trkpt>
      <trkpt lat="46.80381" lon="6.19785">
        <ele>1007.6</ele>
        <time>2019-06-02T06:57:51Z</time>
      </trkpt>
      <trkpt lat="46.80407" lon="6.19809">
        <ele>1006.16</ele>
        <time>2019-06-02T06:57:56Z</time>
      </trkpt>
      <trkpt lat="46.80437" lon="6.19824">
        <ele>1002.79</ele>
        <time>2019-06-02T06:58:01Z</time>
      </trkpt>
      <trkpt lat="46.8045" lon="6.19825">
        <ele>1000.87</ele>
        <time>2019-06-02T06:58:03Z</time>
      </trkpt>
      <trkpt lat="46.8048" lon="6.19812">
        <ele>996.54</ele>
        <time>2019-06-02T06:58:08Z</time>
      </trkpt>
      <trkpt lat="46.80491" lon="6.19801">
        <ele>994.14</ele>
        <time>2019-06-02T06:58:10Z</time>
      </trkpt>
      <trkpt lat="46.80507" lon="6.19768">
        <ele>989.81</ele>
        <time>2019-06-02T06:58:14Z</time>
      </trkpt>
      <trkpt lat="46.80514" lon="6.19746">
        <ele>987.89</ele>
        <time>2019-06-02T06:58:16Z</time>
      </trkpt>
      <trkpt lat="46.80524" lon="6.19702">
        <ele>985.01</ele>
        <time>2019-06-02T06:58:20Z</time>
      </trkpt>
      <trkpt lat="46.80525" lon="6.19679">
        <ele>984.05</ele>
        <time>2019-06-02T06:58:22Z</time>
      </trkpt>
      <trkpt lat="46.80518" lon="6.19646">
        <ele>981.64</ele>
        <time>2019-06-02T06:58:25Z</time>
      </trkpt>
      <trkpt lat="46.80498" lon="6.19593">
        <ele>977.32</ele>
        <time>2019-06-02T06:58:30Z</time>
      </trkpt>
      <trkpt lat="46.80482" lon="6.19551">
        <ele>973.95</ele>
        <time>2019-06-02T06:58:34Z</time>
      </trkpt>
      <trkpt lat="46.80472" lon="6.19523">
        <ele>970.59</ele>
        <time>2019-06-02T06:58:37Z</time>
      </trkpt>
      <trkpt lat="46.80463" lon="6.19493">
        <ele>967.22</ele>
        <time>2019-06-02T06:58:41Z</time>
      </trkpt>
      <trkpt lat="46.80449" lon="6.19458">
        <ele>963.86</ele>
        <time>2019-06-02T06:58:49Z</time>
      </trkpt>
      <trkpt lat="46.80439" lon="6.19435">
        <ele>960.98</ele>
        <time>2019-06-02T06:58:54Z</time>
      </trkpt>
      <trkpt lat="46.80438" lon="6.19431">
        <ele>960.49</ele>
        <time>2019-06-02T06:58:55Z</time>
      </trkpt>
      <trkpt lat="46.80424" lon="6.19406">
        <ele>958.57</ele>
        <time>2019-06-02T06:58:59Z</time>
      </trkpt>
      <trkpt lat="46.8041" lon="6.19371">
        <ele>955.21</ele>
        <time>2019-06-02T06:59:04Z</time>
      </trkpt>
      <trkpt lat="46.80392" lon="6.19343">
        <ele>951.84</ele>
        <time>2019-06-02T06:59:14Z</time>
      </trkpt>
      <trkpt lat="46.80392" lon="6.19343">
        <ele>951.36</ele>
        <time>2019-06-02T06:59:35Z</time>
      </trkpt>
      <trkpt lat="46.80392" lon="6.19343">
        <ele>951.84</ele>
        <time>2019-06-02T06:59:53Z</time>
      </trkpt>
      <trkpt lat="46.80388" lon="6.19338">
        <ele>951.36</ele>
        <time>2019-06-02T06:59:56Z</time>
      </trkpt>
      <trkpt lat="46.80373" lon="6.19316">
        <ele>949.44</ele>
        <time>2019-06-02T07:00:00Z</time>
      </trkpt>
      <trkpt lat="46.80358" lon="6.19276">
        <ele>946.07</ele>
        <time>2019-06-02T07:00:05Z</time>
      </trkpt>
      <trkpt lat="46.80341" lon="6.19239">
        <ele>943.67</ele>
        <time>2019-06-02T07:00:16Z</time>
      </trkpt>
      <trkpt lat="46.80311" lon="6.19184">
        <ele>939.83</ele>
        <time>2019-06-02T07:00:26Z</time>
      </trkpt>
      <trkpt lat="46.80307" lon="6.19176">
        <ele>939.83</ele>
        <time>2019-06-02T07:00:27Z</time>
      </trkpt>
      <trkpt lat="46.80301" lon="6.19159">
        <ele>938.86</ele>
        <time>2019-06-02T07:00:29Z</time>
      </trkpt>
      <trkpt lat="46.80293" lon="6.19142">
        <ele>937.9</ele>
        <time>2019-06-02T07:00:31Z</time>
      </trkpt>
      <trkpt lat="46.80261" lon="6.19092">
        <ele>934.54</ele>
        <time>2019-06-02T07:00:38Z</time>
      </trkpt>
      <trkpt lat="46.80257" lon="6.19089">
        <ele>934.54</ele>
        <time>2019-06-02T07:00:39Z</time>
      </trkpt>
      <trkpt lat="46.8023" lon="6.19061">
        <ele>932.62</ele>
        <time>2019-06-02T07:00:49Z</time>
      </trkpt>
      <trkpt lat="46.80198" lon="6.1902">
        <ele>931.17</ele>
        <time>2019-06-02T07:01:01Z</time>
      </trkpt>
      <trkpt lat="46.8013" lon="6.18946">
        <ele>928.29</ele>
        <time>2019-06-02T07:01:16Z</time>
      </trkpt>
      <trkpt lat="46.80125" lon="6.18941">
        <ele>927.81</ele>
        <time>2019-06-02T07:01:17Z</time>
      </trkpt>
      <trkpt lat="46.80105" lon="6.18924">
        <ele>926.85</ele>
        <time>2019-06-02T07:01:21Z</time>
      </trkpt>
      <trkpt lat="46.80084" lon="6.18907">
        <ele>925.41</ele>
        <time>2019-06-02T07:01:25Z</time>
      </trkpt>
      <trkpt lat="46.80056" lon="6.18875">
        <ele>923</ele>
        <time>2019-06-02T07:01:30Z</time>
      </trkpt>
      <trkpt lat="46.80042" lon="6.18847">
        <ele>922.04</ele>
        <time>2019-06-02T07:01:33Z</time>
      </trkpt>
      <trkpt lat="46.80033" lon="6.18826">
        <ele>920.6</ele>
        <time>2019-06-02T07:01:35Z</time>
      </trkpt>
      <trkpt lat="46.8" lon="6.1874">
        <ele>917.24</ele>
        <time>2019-06-02T07:01:43Z</time>
      </trkpt>
      <trkpt lat="46.79979" lon="6.1869">
        <ele>914.35</ele>
        <time>2019-06-02T07:01:48Z</time>
      </trkpt>
      <trkpt lat="46.79973" lon="6.18676">
        <ele>913.39</ele>
        <time>2019-06-02T07:01:51Z</time>
      </trkpt>
      <trkpt lat="46.7994" lon="6.18587">
        <ele>913.87</ele>
        <time>2019-06-02T07:02:07Z</time>
      </trkpt>
      <trkpt lat="46.7991" lon="6.185">
        <ele>912.43</ele>
        <time>2019-06-02T07:02:21Z</time>
      </trkpt>
      <trkpt lat="46.79901" lon="6.18388">
        <ele>908.58</ele>
        <time>2019-06-02T07:02:32Z</time>
      </trkpt>
      <trkpt lat="46.79903" lon="6.18365">
        <ele>907.14</ele>
        <time>2019-06-02T07:02:34Z</time>
      </trkpt>
      <trkpt lat="46.79917" lon="6.18312">
        <ele>904.26</ele>
        <time>2019-06-02T07:02:39Z</time>
      </trkpt>
      <trkpt lat="46.79942" lon="6.18285">
        <ele>901.37</ele>
        <time>2019-06-02T07:02:43Z</time>
      </trkpt>
      <trkpt lat="46.79993" lon="6.18268">
        <ele>897.53</ele>
        <time>2019-06-02T07:02:54Z</time>
      </trkpt>
      <trkpt lat="46.80042" lon="6.18255">
        <ele>894.16</ele>
        <time>2019-06-02T07:03:01Z</time>
      </trkpt>
      <trkpt lat="46.80083" lon="6.18251">
        <ele>890.32</ele>
        <time>2019-06-02T07:03:07Z</time>
      </trkpt>
      <trkpt lat="46.80109" lon="6.18245">
        <ele>886.47</ele>
        <time>2019-06-02T07:03:11Z</time>
      </trkpt>
      <trkpt lat="46.80142" lon="6.18233">
        <ele>882.63</ele>
        <time>2019-06-02T07:03:15Z</time>
      </trkpt>
      <trkpt lat="46.80183" lon="6.18215">
        <ele>879.74</ele>
        <time>2019-06-02T07:03:19Z</time>
      </trkpt>
      <trkpt lat="46.80236" lon="6.18199">
        <ele>875.9</ele>
        <time>2019-06-02T07:03:24Z</time>
      </trkpt>
      <trkpt lat="46.80257" lon="6.18196">
        <ele>873.98</ele>
        <time>2019-06-02T07:03:26Z</time>
      </trkpt>
      <trkpt lat="46.80311" lon="6.18154">
        <ele>871.57</ele>
        <time>2019-06-02T07:03:32Z</time>
      </trkpt>
      <trkpt lat="46.80333" lon="6.18123">
        <ele>870.13</ele>
        <time>2019-06-02T07:03:35Z</time>
      </trkpt>
      <trkpt lat="46.80383" lon="6.18082">
        <ele>868.21</ele>
        <time>2019-06-02T07:03:41Z</time>
      </trkpt>
      <trkpt lat="46.80478" lon="6.18078">
        <ele>866.77</ele>
        <time>2019-06-02T07:03:53Z</time>
      </trkpt>
      <trkpt lat="46.80536" lon="6.18117">
        <ele>868.21</ele>
        <time>2019-06-02T07:04:04Z</time>
      </trkpt>
      <trkpt lat="46.80559" lon="6.18124">
        <ele>867.25</ele>
        <time>2019-06-02T07:04:08Z</time>
      </trkpt>
      <trkpt lat="46.80623" lon="6.18104">
        <ele>864.84</ele>
        <time>2019-06-02T07:04:18Z</time>
      </trkpt>
      <trkpt lat="46.80639" lon="6.18097">
        <ele>864.36</ele>
        <time>2019-06-02T07:04:21Z</time>
      </trkpt>
      <trkpt lat="46.80661" lon="6.18096">
        <ele>863.88</ele>
        <time>2019-06-02T07:04:25Z</time>
      </trkpt>
      <trkpt lat="46.80685" lon="6.18122">
        <ele>863.4</ele>
        <time>2019-06-02T07:04:36Z</time>
      </trkpt>
      <trkpt lat="46.80694" lon="6.18158">
        <ele>863.4</ele>
        <time>2019-06-02T07:04:45Z</time>
      </trkpt>
      <trkpt lat="46.80698" lon="6.18176">
        <ele>863.4</ele>
        <time>2019-06-02T07:04:48Z</time>
      </trkpt>
      <trkpt lat="46.80722" lon="6.18256">
        <ele>863.88</ele>
        <time>2019-06-02T07:05:02Z</time>
      </trkpt>
      <trkpt lat="46.80731" lon="6.18292">
        <ele>863.4</ele>
        <time>2019-06-02T07:05:08Z</time>
      </trkpt>
      <trkpt lat="46.80736" lon="6.1831">
        <ele>863.4</ele>
        <time>2019-06-02T07:05:11Z</time>
      </trkpt>
      <trkpt lat="46.80757" lon="6.18354">
        <ele>863.88</ele>
        <time>2019-06-02T07:05:20Z</time>
      </trkpt>
      <trkpt lat="46.80815" lon="6.18403">
        <ele>860.52</ele>
        <time>2019-06-02T07:05:32Z</time>
      </trkpt>
      <trkpt lat="46.80828" lon="6.18414">
        <ele>859.56</ele>
        <time>2019-06-02T07:05:34Z</time>
      </trkpt>
      <trkpt lat="46.80853" lon="6.18449">
        <ele>858.59</ele>
        <time>2019-06-02T07:05:39Z</time>
      </trkpt>
      <trkpt lat="46.80874" lon="6.18483">
        <ele>857.63</ele>
        <time>2019-06-02T07:05:44Z</time>
      </trkpt>
      <trkpt lat="46.80903" lon="6.18561">
        <ele>860.04</ele>
        <time>2019-06-02T07:05:57Z</time>
      </trkpt>
      <trkpt lat="46.80918" lon="6.18616">
        <ele>861.48</ele>
        <time>2019-06-02T07:06:08Z</time>
      </trkpt>
      <trkpt lat="46.80923" lon="6.18624">
        <ele>861.48</ele>
        <time>2019-06-02T07:06:11Z</time>
      </trkpt>
      <trkpt lat="46.80918" lon="6.18608">
        <ele>861</ele>
        <time>2019-06-02T07:06:19Z</time>
      </trkpt>
      <trkpt lat="46.80915" lon="6.186">
        <ele>861</ele>
        <time>2019-06-02T07:06:21Z</time>
      </trkpt>
      <trkpt lat="46.80907" lon="6.18564">
        <ele>860.04</ele>
        <time>2019-06-02T07:06:28Z</time>
      </trkpt>
      <trkpt lat="46.80926" lon="6.18558">
        <ele>861</ele>
        <time>2019-06-02T07:06:35Z</time>
      </trkpt>
      <trkpt lat="46.80933" lon="6.18567">
        <ele>861.48</ele>
        <time>2019-06-02T07:06:39Z</time>
      </trkpt>
      <trkpt lat="46.80946" lon="6.18574">
        <ele>861.96</ele>
        <time>2019-06-02T07:06:49Z</time>
      </trkpt>
      <trkpt lat="46.80941" lon="6.18571">
        <ele>861.48</ele>
        <time>2019-06-02T07:06:51Z</time>
      </trkpt>
      <trkpt lat="46.80929" lon="6.1856">
        <ele>861.48</ele>
        <time>2019-06-02T07:06:55Z</time>
      </trkpt>
      <trkpt lat="46.80918" lon="6.18552">
        <ele>860.52</ele>
        <time>2019-06-02T07:06:58Z</time>
      </trkpt>
      <trkpt lat="46.80915" lon="6.18533">
        <ele>859.56</ele>
        <time>2019-06-02T07:07:02Z</time>
      </trkpt>
      <trkpt lat="46.80926" lon="6.18519">
        <ele>860.04</ele>
        <time>2019-06-02T07:07:06Z</time>
      </trkpt>
      <trkpt lat="46.80938" lon="6.1852">
        <ele>861</ele>
        <time>2019-06-02T07:07:09Z</time>
      </trkpt>
      <trkpt lat="46.80975" lon="6.18548">
        <ele>861.48</ele>
        <time>2019-06-02T07:07:20Z</time>
      </trkpt>
      <trkpt lat="46.81011" lon="6.18578">
        <ele>861</ele>
        <time>2019-06-02T07:07:29Z</time>
      </trkpt>
      <trkpt lat="46.81033" lon="6.18596">
        <ele>860.52</ele>
        <time>2019-06-02T07:07:34Z</time>
      </trkpt>
      <trkpt lat="46.81099" lon="6.1864">
        <ele>861.96</ele>
        <time>2019-06-02T07:07:49Z</time>
      </trkpt>
      <trkpt lat="46.81106" lon="6.18644">
        <ele>862.44</ele>
        <time>2019-06-02T07:07:51Z</time>
      </trkpt>
      <trkpt lat="46.81172" lon="6.18667">
        <ele>864.36</ele>
        <time>2019-06-02T07:08:07Z</time>
      </trkpt>
      <trkpt lat="46.81216" lon="6.18686">
        <ele>865.32</ele>
        <time>2019-06-02T07:08:20Z</time>
      </trkpt>
      <trkpt lat="46.81251" lon="6.18712">
        <ele>866.29</ele>
        <time>2019-06-02T07:08:35Z</time>
      </trkpt>
      <trkpt lat="46.81286" lon="6.18736">
        <ele>865.32</ele>
        <time>2019-06-02T07:08:49Z</time>
      </trkpt>
      <trkpt lat="46.81303" lon="6.18746">
        <ele>864.84</ele>
        <time>2019-06-02T07:08:53Z</time>
      </trkpt>
      <trkpt lat="46.81311" lon="6.1875">
        <ele>864.36</ele>
        <time>2019-06-02T07:08:55Z</time>
      </trkpt>
      <trkpt lat="46.81347" lon="6.18775">
        <ele>861.96</ele>
        <time>2019-06-02T07:09:02Z</time>
      </trkpt>
      <trkpt lat="46.81394" lon="6.18813">
        <ele>859.08</ele>
        <time>2019-06-02T07:09:09Z</time>
      </trkpt>
      <trkpt lat="46.81466" lon="6.18859">
        <ele>856.67</ele>
        <time>2019-06-02T07:09:19Z</time>
      </trkpt>
      <trkpt lat="46.81555" lon="6.18925">
        <ele>854.75</ele>
        <time>2019-06-02T07:09:33Z</time>
      </trkpt>
      <trkpt lat="46.81575" lon="6.18936">
        <ele>855.71</ele>
        <time>2019-06-02T07:09:37Z</time>
      </trkpt>
      <trkpt lat="46.81607" lon="6.18959">
        <ele>856.19</ele>
        <time>2019-06-02T07:09:46Z</time>
      </trkpt>
      <trkpt lat="46.81645" lon="6.18999">
        <ele>853.79</ele>
        <time>2019-06-02T07:09:54Z</time>
      </trkpt>
      <trkpt lat="46.81667" lon="6.19029">
        <ele>851.87</ele>
        <time>2019-06-02T07:09:58Z</time>
      </trkpt>
      <trkpt lat="46.81679" lon="6.19044">
        <ele>850.9</ele>
        <time>2019-06-02T07:10:00Z</time>
      </trkpt>
      <trkpt lat="46.81759" lon="6.19143">
        <ele>848.98</ele>
        <time>2019-06-02T07:10:13Z</time>
      </trkpt>
      <trkpt lat="46.8177" lon="6.19156">
        <ele>850.42</ele>
        <time>2019-06-02T07:10:15Z</time>
      </trkpt>
      <trkpt lat="46.81786" lon="6.19173">
        <ele>850.42</ele>
        <time>2019-06-02T07:10:18Z</time>
      </trkpt>
      <trkpt lat="46.81812" lon="6.19206">
        <ele>851.38</ele>
        <time>2019-06-02T07:10:24Z</time>
      </trkpt>
      <trkpt lat="46.81826" lon="6.19225">
        <ele>851.87</ele>
        <time>2019-06-02T07:10:28Z</time>
      </trkpt>
      <trkpt lat="46.81867" lon="6.19287">
        <ele>852.83</ele>
        <time>2019-06-02T07:10:40Z</time>
      </trkpt>
      <trkpt lat="46.81918" lon="6.19363">
        <ele>852.83</ele>
        <time>2019-06-02T07:10:53Z</time>
      </trkpt>
      <trkpt lat="46.81923" lon="6.19368">
        <ele>852.35</ele>
        <time>2019-06-02T07:10:54Z</time>
      </trkpt>
      <trkpt lat="46.81947" lon="6.1939">
        <ele>852.83</ele>
        <time>2019-06-02T07:10:59Z</time>
      </trkpt>
      <trkpt lat="46.81967" lon="6.19405">
        <ele>853.31</ele>
        <time>2019-06-02T07:11:03Z</time>
      </trkpt>
      <trkpt lat="46.82014" lon="6.19443">
        <ele>852.83</ele>
        <time>2019-06-02T07:11:12Z</time>
      </trkpt>
      <trkpt lat="46.82067" lon="6.19515">
        <ele>851.87</ele>
        <time>2019-06-02T07:11:24Z</time>
      </trkpt>
      <trkpt lat="46.82076" lon="6.19527">
        <ele>851.87</ele>
        <time>2019-06-02T07:11:26Z</time>
      </trkpt>
      <trkpt lat="46.82101" lon="6.19552">
        <ele>851.87</ele>
        <time>2019-06-02T07:11:31Z</time>
      </trkpt>
      <trkpt lat="46.82115" lon="6.19568">
        <ele>851.38</ele>
        <time>2019-06-02T07:11:34Z</time>
      </trkpt>
      <trkpt lat="46.82174" lon="6.19641">
        <ele>849.94</ele>
        <time>2019-06-02T07:11:47Z</time>
      </trkpt>
      <trkpt lat="46.82179" lon="6.19646">
        <ele>849.46</ele>
        <time>2019-06-02T07:11:48Z</time>
      </trkpt>
      <trkpt lat="46.82209" lon="6.1969">
        <ele>848.5</ele>
        <time>2019-06-02T07:11:55Z</time>
      </trkpt>
      <trkpt lat="46.82234" lon="6.19722">
        <ele>847.06</ele>
        <time>2019-06-02T07:12:00Z</time>
      </trkpt>
      <trkpt lat="46.82248" lon="6.19738">
        <ele>846.58</ele>
        <time>2019-06-02T07:12:02Z</time>
      </trkpt>
      <trkpt lat="46.82291" lon="6.19797">
        <ele>843.21</ele>
        <time>2019-06-02T07:12:08Z</time>
      </trkpt>
      <trkpt lat="46.82304" lon="6.19819">
        <ele>842.25</ele>
        <time>2019-06-02T07:12:10Z</time>
      </trkpt>
      <trkpt lat="46.82371" lon="6.19919">
        <ele>840.81</ele>
        <time>2019-06-02T07:12:21Z</time>
      </trkpt>
      <trkpt lat="46.82444" lon="6.20012">
        <ele>841.77</ele>
        <time>2019-06-02T07:12:35Z</time>
      </trkpt>
      <trkpt lat="46.82482" lon="6.20064">
        <ele>841.77</ele>
        <time>2019-06-02T07:12:45Z</time>
      </trkpt>
      <trkpt lat="46.82513" lon="6.20129">
        <ele>841.77</ele>
        <time>2019-06-02T07:12:57Z</time>
      </trkpt>
      <trkpt lat="46.82547" lon="6.20182">
        <ele>841.77</ele>
        <time>2019-06-02T07:13:10Z</time>
      </trkpt>
      <trkpt lat="46.82574" lon="6.20225">
        <ele>841.29</ele>
        <time>2019-06-02T07:13:18Z</time>
      </trkpt>
      <trkpt lat="46.82596" lon="6.20266">
        <ele>841.29</ele>
        <time>2019-06-02T07:13:25Z</time>
      </trkpt>
      <trkpt lat="46.82623" lon="6.20339">
        <ele>842.73</ele>
        <time>2019-06-02T07:13:38Z</time>
      </trkpt>
      <trkpt lat="46.82628" lon="6.2035">
        <ele>842.73</ele>
        <time>2019-06-02T07:13:40Z</time>
      </trkpt>
      <trkpt lat="46.82635" lon="6.20365">
        <ele>842.73</ele>
        <time>2019-06-02T07:13:43Z</time>
      </trkpt>
      <trkpt lat="46.82646" lon="6.20386">
        <ele>842.73</ele>
        <time>2019-06-02T07:13:47Z</time>
      </trkpt>
      <trkpt lat="46.82682" lon="6.20443">
        <ele>843.21</ele>
        <time>2019-06-02T07:13:58Z</time>
      </trkpt>
      <trkpt lat="46.82738" lon="6.20528">
        <ele>843.69</ele>
        <time>2019-06-02T07:14:15Z</time>
      </trkpt>
      <trkpt lat="46.82763" lon="6.20573">
        <ele>843.69</ele>
        <time>2019-06-02T07:14:23Z</time>
      </trkpt>
      <trkpt lat="46.82777" lon="6.20603">
        <ele>843.69</ele>
        <time>2019-06-02T07:14:28Z</time>
      </trkpt>
      <trkpt lat="46.82794" lon="6.20645">
        <ele>844.18</ele>
        <time>2019-06-02T07:14:35Z</time>
      </trkpt>
      <trkpt lat="46.82808" lon="6.20681">
        <ele>844.66</ele>
        <time>2019-06-02T07:14:41Z</time>
      </trkpt>
      <trkpt lat="46.82823" lon="6.20711">
        <ele>845.14</ele>
        <time>2019-06-02T07:14:47Z</time>
      </trkpt>
      <trkpt lat="46.82839" lon="6.20731">
        <ele>845.14</ele>
        <time>2019-06-02T07:14:52Z</time>
      </trkpt>
      <trkpt lat="46.82878" lon="6.20773">
        <ele>845.14</ele>
        <time>2019-06-02T07:15:03Z</time>
      </trkpt>
      <trkpt lat="46.82939" lon="6.20832">
        <ele>845.14</ele>
        <time>2019-06-02T07:15:19Z</time>
      </trkpt>
      <trkpt lat="46.82981" lon="6.2087">
        <ele>845.62</ele>
        <time>2019-06-02T07:15:30Z</time>
      </trkpt>
      <trkpt lat="46.83001" lon="6.20889">
        <ele>845.62</ele>
        <time>2019-06-02T07:15:35Z</time>
      </trkpt>
      <trkpt lat="46.83018" lon="6.20905">
        <ele>845.14</ele>
        <time>2019-06-02T07:15:39Z</time>
      </trkpt>
      <trkpt lat="46.83084" lon="6.20961">
        <ele>843.69</ele>
        <time>2019-06-02T07:15:53Z</time>
      </trkpt>
      <trkpt lat="46.83123" lon="6.20991">
        <ele>843.69</ele>
        <time>2019-06-02T07:16:01Z</time>
      </trkpt>
      <trkpt lat="46.83141" lon="6.21012">
        <ele>843.69</ele>
        <time>2019-06-02T07:16:06Z</time>
      </trkpt>
      <trkpt lat="46.83159" lon="6.21019">
        <ele>843.69</ele>
        <time>2019-06-02T07:16:10Z</time>
      </trkpt>
      <trkpt lat="46.83186" lon="6.21009">
        <ele>844.66</ele>
        <time>2019-06-02T07:16:15Z</time>
      </trkpt>
      <trkpt lat="46.83228" lon="6.20965">
        <ele>845.62</ele>
        <time>2019-06-02T07:16:28Z</time>
      </trkpt>
      <trkpt lat="46.83233" lon="6.20959">
        <ele>845.62</ele>
        <time>2019-06-02T07:16:31Z</time>
      </trkpt>
      <trkpt lat="46.83228" lon="6.20955">
        <ele>845.62</ele>
        <time>2019-06-02T07:16:36Z</time>
      </trkpt>
      <trkpt lat="46.83199" lon="6.21">
        <ele>844.66</ele>
        <time>2019-06-02T07:16:49Z</time>
      </trkpt>
      <trkpt lat="46.83205" lon="6.21015">
        <ele>845.62</ele>
        <time>2019-06-02T07:16:53Z</time>
      </trkpt>
      <trkpt lat="46.83213" lon="6.21037">
        <ele>847.54</ele>
        <time>2019-06-02T07:17:01Z</time>
      </trkpt>
      <trkpt lat="46.83211" lon="6.21033">
        <ele>847.54</ele>
        <time>2019-06-02T07:17:04Z</time>
      </trkpt>
      <trkpt lat="46.83209" lon="6.21028">
        <ele>846.58</ele>
        <time>2019-06-02T07:17:13Z</time>
      </trkpt>
      <trkpt lat="46.83214" lon="6.21037">
        <ele>848.02</ele>
        <time>2019-06-02T07:17:18Z</time>
      </trkpt>
      <trkpt lat="46.83214" lon="6.21081">
        <ele>850.9</ele>
        <time>2019-06-02T07:17:30Z</time>
      </trkpt>
      <trkpt lat="46.83213" lon="6.21085">
        <ele>851.87</ele>
        <time>2019-06-02T07:17:31Z</time>
      </trkpt>
      <trkpt lat="46.83217" lon="6.21114">
        <ele>854.27</ele>
        <time>2019-06-02T07:17:41Z</time>
      </trkpt>
      <trkpt lat="46.83209" lon="6.21152">
        <ele>857.15</ele>
        <time>2019-06-02T07:17:51Z</time>
      </trkpt>
      <trkpt lat="46.83212" lon="6.21163">
        <ele>858.59</ele>
        <time>2019-06-02T07:17:55Z</time>
      </trkpt>
      <trkpt lat="46.83227" lon="6.21179">
        <ele>860.52</ele>
        <time>2019-06-02T07:18:03Z</time>
      </trkpt>
      <trkpt lat="46.83251" lon="6.2119">
        <ele>863.4</ele>
        <time>2019-06-02T07:18:13Z</time>
      </trkpt>
      <trkpt lat="46.83275" lon="6.21198">
        <ele>866.29</ele>
        <time>2019-06-02T07:18:24Z</time>
      </trkpt>
      <trkpt lat="46.83285" lon="6.21198">
        <ele>867.25</ele>
        <time>2019-06-02T07:18:28Z</time>
      </trkpt>
      <trkpt lat="46.83297" lon="6.21202">
        <ele>868.69</ele>
        <time>2019-06-02T07:18:33Z</time>
      </trkpt>
      <trkpt lat="46.83302" lon="6.21206">
        <ele>869.65</ele>
        <time>2019-06-02T07:18:36Z</time>
      </trkpt>
      <trkpt lat="46.83321" lon="6.21228">
        <ele>872.53</ele>
        <time>2019-06-02T07:18:48Z</time>
      </trkpt>
      <trkpt lat="46.83328" lon="6.21234">
        <ele>873.5</ele>
        <time>2019-06-02T07:18:52Z</time>
      </trkpt>
      <trkpt lat="46.83341" lon="6.21253">
        <ele>875.42</ele>
        <time>2019-06-02T07:19:00Z</time>
      </trkpt>
      <trkpt lat="46.83346" lon="6.2126">
        <ele>876.38</ele>
        <time>2019-06-02T07:19:05Z</time>
      </trkpt>
      <trkpt lat="46.83349" lon="6.21267">
        <ele>877.34</ele>
        <time>2019-06-02T07:19:09Z</time>
      </trkpt>
      <trkpt lat="46.8336" lon="6.21296">
        <ele>881.19</ele>
        <time>2019-06-02T07:19:22Z</time>
      </trkpt>
      <trkpt lat="46.83365" lon="6.2131">
        <ele>883.11</ele>
        <time>2019-06-02T07:19:31Z</time>
      </trkpt>
      <trkpt lat="46.83365" lon="6.21313">
        <ele>884.07</ele>
        <time>2019-06-02T07:19:33Z</time>
      </trkpt>
      <trkpt lat="46.83367" lon="6.21326">
        <ele>886.47</ele>
        <time>2019-06-02T07:19:41Z</time>
      </trkpt>
      <trkpt lat="46.83367" lon="6.21331">
        <ele>886.47</ele>
        <time>2019-06-02T07:19:43Z</time>
      </trkpt>
      <trkpt lat="46.83364" lon="6.21351">
        <ele>888.88</ele>
        <time>2019-06-02T07:19:52Z</time>
      </trkpt>
      <trkpt lat="46.8337" lon="6.2137">
        <ele>890.8</ele>
        <time>2019-06-02T07:19:59Z</time>
      </trkpt>
      <trkpt lat="46.83376" lon="6.21401">
        <ele>893.68</ele>
        <time>2019-06-02T07:20:11Z</time>
      </trkpt>
      <trkpt lat="46.83379" lon="6.21419">
        <ele>895.12</ele>
        <time>2019-06-02T07:20:17Z</time>
      </trkpt>
      <trkpt lat="46.83383" lon="6.21425">
        <ele>896.57</ele>
        <time>2019-06-02T07:20:21Z</time>
      </trkpt>
      <trkpt lat="46.83389" lon="6.21431">
        <ele>898.01</ele>
        <time>2019-06-02T07:20:26Z</time>
      </trkpt>
      <trkpt lat="46.83395" lon="6.21442">
        <ele>899.45</ele>
        <time>2019-06-02T07:20:32Z</time>
      </trkpt>
      <trkpt lat="46.83402" lon="6.21451">
        <ele>899.93</ele>
        <time>2019-06-02T07:20:35Z</time>
      </trkpt>
      <trkpt lat="46.83409" lon="6.21463">
        <ele>900.41</ele>
        <time>2019-06-02T07:20:41Z</time>
      </trkpt>
      <trkpt lat="46.83414" lon="6.21477">
        <ele>900.41</ele>
        <time>2019-06-02T07:20:47Z</time>
      </trkpt>
      <trkpt lat="46.83419" lon="6.21501">
        <ele>900.89</ele>
        <time>2019-06-02T07:20:57Z</time>
      </trkpt>
      <trkpt lat="46.83422" lon="6.21507">
        <ele>901.37</ele>
        <time>2019-06-02T07:21:00Z</time>
      </trkpt>
      <trkpt lat="46.83432" lon="6.2153">
        <ele>903.3</ele>
        <time>2019-06-02T07:21:12Z</time>
      </trkpt>
      <trkpt lat="46.83442" lon="6.21546">
        <ele>905.7</ele>
        <time>2019-06-02T07:21:22Z</time>
      </trkpt>
      <trkpt lat="46.83454" lon="6.21563">
        <ele>907.62</ele>
        <time>2019-06-02T07:21:32Z</time>
      </trkpt>
      <trkpt lat="46.83458" lon="6.2157">
        <ele>908.58</ele>
        <time>2019-06-02T07:21:36Z</time>
      </trkpt>
      <trkpt lat="46.83469" lon="6.21593">
        <ele>910.99</ele>
        <time>2019-06-02T07:21:46Z</time>
      </trkpt>
      <trkpt lat="46.83479" lon="6.21615">
        <ele>913.87</ele>
        <time>2019-06-02T07:21:57Z</time>
      </trkpt>
      <trkpt lat="46.83482" lon="6.21623">
        <ele>914.35</ele>
        <time>2019-06-02T07:22:00Z</time>
      </trkpt>
      <trkpt lat="46.83491" lon="6.2164">
        <ele>916.27</ele>
        <time>2019-06-02T07:22:06Z</time>
      </trkpt>
      <trkpt lat="46.83498" lon="6.21651">
        <ele>917.24</ele>
        <time>2019-06-02T07:22:11Z</time>
      </trkpt>
      <trkpt lat="46.83509" lon="6.21671">
        <ele>918.2</ele>
        <time>2019-06-02T07:22:23Z</time>
      </trkpt>
      <trkpt lat="46.83513" lon="6.21682">
        <ele>918.2</ele>
        <time>2019-06-02T07:22:28Z</time>
      </trkpt>
      <trkpt lat="46.83519" lon="6.21704">
        <ele>918.68</ele>
        <time>2019-06-02T07:22:36Z</time>
      </trkpt>
      <trkpt lat="46.83527" lon="6.21733">
        <ele>918.68</ele>
        <time>2019-06-02T07:22:49Z</time>
      </trkpt>
      <trkpt lat="46.83528" lon="6.21735">
        <ele>918.2</ele>
        <time>2019-06-02T07:22:50Z</time>
      </trkpt>
      <trkpt lat="46.83527" lon="6.21728">
        <ele>918.68</ele>
        <time>2019-06-02T07:22:56Z</time>
      </trkpt>
      <trkpt lat="46.83522" lon="6.21721">
        <ele>918.68</ele>
        <time>2019-06-02T07:23:00Z</time>
      </trkpt>
      <trkpt lat="46.83518" lon="6.21714">
        <ele>918.2</ele>
        <time>2019-06-02T07:23:04Z</time>
      </trkpt>
      <trkpt lat="46.83507" lon="6.21691">
        <ele>918.2</ele>
        <time>2019-06-02T07:23:14Z</time>
      </trkpt>
      <trkpt lat="46.83501" lon="6.21679">
        <ele>917.72</ele>
        <time>2019-06-02T07:23:21Z</time>
      </trkpt>
      <trkpt lat="46.83498" lon="6.21668">
        <ele>917.72</ele>
        <time>2019-06-02T07:23:30Z</time>
      </trkpt>
      <trkpt lat="46.83492" lon="6.21652">
        <ele>916.27</ele>
        <time>2019-06-02T07:23:37Z</time>
      </trkpt>
      <trkpt lat="46.8348" lon="6.21619">
        <ele>912.91</ele>
        <time>2019-06-02T07:23:47Z</time>
      </trkpt>
      <trkpt lat="46.83469" lon="6.2159">
        <ele>910.03</ele>
        <time>2019-06-02T07:23:58Z</time>
      </trkpt>
      <trkpt lat="46.83469" lon="6.2159">
        <ele>910.03</ele>
        <time>2019-06-02T07:24:07Z</time>
      </trkpt>
      <trkpt lat="46.83469" lon="6.21592">
        <ele>910.51</ele>
        <time>2019-06-02T07:24:09Z</time>
      </trkpt>
      <trkpt lat="46.83469" lon="6.21595">
        <ele>910.99</ele>
        <time>2019-06-02T07:24:11Z</time>
      </trkpt>
      <trkpt lat="46.83473" lon="6.21605">
        <ele>911.95</ele>
        <time>2019-06-02T07:24:17Z</time>
      </trkpt>
      <trkpt lat="46.83475" lon="6.21609">
        <ele>912.43</ele>
        <time>2019-06-02T07:24:20Z</time>
      </trkpt>
      <trkpt lat="46.83485" lon="6.21634">
        <ele>914.83</ele>
        <time>2019-06-02T07:24:31Z</time>
      </trkpt>
      <trkpt lat="46.83486" lon="6.21637">
        <ele>915.31</ele>
        <time>2019-06-02T07:24:32Z</time>
      </trkpt>
      <trkpt lat="46.83488" lon="6.21644">
        <ele>915.79</ele>
        <time>2019-06-02T07:24:35Z</time>
      </trkpt>
      <trkpt lat="46.83502" lon="6.21665">
        <ele>917.72</ele>
        <time>2019-06-02T07:24:46Z</time>
      </trkpt>
      <trkpt lat="46.83519" lon="6.21698">
        <ele>918.2</ele>
        <time>2019-06-02T07:24:59Z</time>
      </trkpt>
      <trkpt lat="46.83526" lon="6.21712">
        <ele>918.2</ele>
        <time>2019-06-02T07:25:04Z</time>
      </trkpt>
      <trkpt lat="46.83541" lon="6.21763">
        <ele>919.16</ele>
        <time>2019-06-02T07:25:19Z</time>
      </trkpt>
      <trkpt lat="46.83542" lon="6.21776">
        <ele>919.64</ele>
        <time>2019-06-02T07:25:23Z</time>
      </trkpt>
      <trkpt lat="46.83545" lon="6.2179">
        <ele>920.6</ele>
        <time>2019-06-02T07:25:28Z</time>
      </trkpt>
      <trkpt lat="46.83548" lon="6.21796">
        <ele>921.08</ele>
        <time>2019-06-02T07:25:31Z</time>
      </trkpt>
      <trkpt lat="46.83539" lon="6.21836">
        <ele>922.52</ele>
        <time>2019-06-02T07:25:40Z</time>
      </trkpt>
      <trkpt lat="46.83538" lon="6.2184">
        <ele>923</ele>
        <time>2019-06-02T07:25:41Z</time>
      </trkpt>
      <trkpt lat="46.83555" lon="6.21861">
        <ele>925.41</ele>
        <time>2019-06-02T07:25:51Z</time>
      </trkpt>
      <trkpt lat="46.83563" lon="6.21865">
        <ele>926.37</ele>
        <time>2019-06-02T07:25:55Z</time>
      </trkpt>
      <trkpt lat="46.83584" lon="6.21881">
        <ele>927.81</ele>
        <time>2019-06-02T07:26:03Z</time>
      </trkpt>
      <trkpt lat="46.83606" lon="6.21912">
        <ele>930.69</ele>
        <time>2019-06-02T07:26:14Z</time>
      </trkpt>
      <trkpt lat="46.83614" lon="6.21927">
        <ele>931.65</ele>
        <time>2019-06-02T07:26:18Z</time>
      </trkpt>
      <trkpt lat="46.83625" lon="6.21953">
        <ele>932.14</ele>
        <time>2019-06-02T07:26:27Z</time>
      </trkpt>
      <trkpt lat="46.83633" lon="6.21978">
        <ele>932.14</ele>
        <time>2019-06-02T07:26:37Z</time>
      </trkpt>
      <trkpt lat="46.83637" lon="6.21988">
        <ele>932.14</ele>
        <time>2019-06-02T07:26:42Z</time>
      </trkpt>
      <trkpt lat="46.83641" lon="6.21987">
        <ele>931.65</ele>
        <time>2019-06-02T07:26:45Z</time>
      </trkpt>
      <trkpt lat="46.8364" lon="6.21981">
        <ele>932.14</ele>
        <time>2019-06-02T07:26:48Z</time>
      </trkpt>
      <trkpt lat="46.83633" lon="6.2195">
        <ele>932.62</ele>
        <time>2019-06-02T07:27:03Z</time>
      </trkpt>
      <trkpt lat="46.83632" lon="6.21953">
        <ele>932.62</ele>
        <time>2019-06-02T07:27:05Z</time>
      </trkpt>
      <trkpt lat="46.83639" lon="6.21986">
        <ele>932.14</ele>
        <time>2019-06-02T07:27:15Z</time>
      </trkpt>
      <trkpt lat="46.83645" lon="6.21996">
        <ele>931.65</ele>
        <time>2019-06-02T07:27:17Z</time>
      </trkpt>
      <trkpt lat="46.83702" lon="6.22055">
        <ele>929.73</ele>
        <time>2019-06-02T07:27:30Z</time>
      </trkpt>
      <trkpt lat="46.83724" lon="6.22075">
        <ele>928.77</ele>
        <time>2019-06-02T07:27:35Z</time>
      </trkpt>
      <trkpt lat="46.83759" lon="6.22111">
        <ele>926.37</ele>
        <time>2019-06-02T07:27:41Z</time>
      </trkpt>
      <trkpt lat="46.83783" lon="6.2215">
        <ele>923.48</ele>
        <time>2019-06-02T07:27:45Z</time>
      </trkpt>
      <trkpt lat="46.83815" lon="6.22188">
        <ele>920.6</ele>
        <time>2019-06-02T07:27:50Z</time>
      </trkpt>
      <trkpt lat="46.83829" lon="6.22191">
        <ele>919.16</ele>
        <time>2019-06-02T07:27:52Z</time>
      </trkpt>
      <trkpt lat="46.83853" lon="6.22193">
        <ele>917.24</ele>
        <time>2019-06-02T07:27:55Z</time>
      </trkpt>
      <trkpt lat="46.83899" lon="6.22214">
        <ele>911.95</ele>
        <time>2019-06-02T07:28:00Z</time>
      </trkpt>
      <trkpt lat="46.83932" lon="6.22253">
        <ele>907.62</ele>
        <time>2019-06-02T07:28:04Z</time>
      </trkpt>
      <trkpt lat="46.83939" lon="6.22264">
        <ele>906.18</ele>
        <time>2019-06-02T07:28:05Z</time>
      </trkpt>
      <trkpt lat="46.83972" lon="6.22296">
        <ele>901.85</ele>
        <time>2019-06-02T07:28:09Z</time>
      </trkpt>
      <trkpt lat="46.84005" lon="6.22324">
        <ele>898.01</ele>
        <time>2019-06-02T07:28:13Z</time>
      </trkpt>
      <trkpt lat="46.84043" lon="6.22344">
        <ele>893.2</ele>
        <time>2019-06-02T07:28:17Z</time>
      </trkpt>
      <trkpt lat="46.84062" lon="6.2235">
        <ele>891.28</ele>
        <time>2019-06-02T07:28:19Z</time>
      </trkpt>
      <trkpt lat="46.84104" lon="6.22381">
        <ele>886.95</ele>
        <time>2019-06-02T07:28:24Z</time>
      </trkpt>
      <trkpt lat="46.84118" lon="6.22401">
        <ele>885.51</ele>
        <time>2019-06-02T07:28:26Z</time>
      </trkpt>
      <trkpt lat="46.84133" lon="6.22415">
        <ele>885.03</ele>
        <time>2019-06-02T07:28:28Z</time>
      </trkpt>
      <trkpt lat="46.84158" lon="6.2242">
        <ele>883.11</ele>
        <time>2019-06-02T07:28:31Z</time>
      </trkpt>
      <trkpt lat="46.84185" lon="6.22406">
        <ele>882.15</ele>
        <time>2019-06-02T07:28:37Z</time>
      </trkpt>
      <trkpt lat="46.84196" lon="6.22398">
        <ele>882.15</ele>
        <time>2019-06-02T07:28:40Z</time>
      </trkpt>
      <trkpt lat="46.84219" lon="6.22387">
        <ele>881.19</ele>
        <time>2019-06-02T07:28:46Z</time>
      </trkpt>
      <trkpt lat="46.84231" lon="6.22389">
        <ele>880.71</ele>
        <time>2019-06-02T07:28:49Z</time>
      </trkpt>
      <trkpt lat="46.84256" lon="6.2239">
        <ele>881.19</ele>
        <time>2019-06-02T07:28:53Z</time>
      </trkpt>
      <trkpt lat="46.84277" lon="6.22385">
        <ele>880.71</ele>
        <time>2019-06-02T07:28:56Z</time>
      </trkpt>
      <trkpt lat="46.84292" lon="6.22383">
        <ele>879.74</ele>
        <time>2019-06-02T07:28:58Z</time>
      </trkpt>
      <trkpt lat="46.84315" lon="6.22388">
        <ele>877.34</ele>
        <time>2019-06-02T07:29:01Z</time>
      </trkpt>
      <trkpt lat="46.84349" lon="6.22376">
        <ele>873.98</ele>
        <time>2019-06-02T07:29:05Z</time>
      </trkpt>
      <trkpt lat="46.84401" lon="6.22326">
        <ele>869.65</ele>
        <time>2019-06-02T07:29:11Z</time>
      </trkpt>
      <trkpt lat="46.8441" lon="6.22316">
        <ele>869.65</ele>
        <time>2019-06-02T07:29:12Z</time>
      </trkpt>
      <trkpt lat="46.8445" lon="6.22266">
        <ele>866.29</ele>
        <time>2019-06-02T07:29:17Z</time>
      </trkpt>
      <trkpt lat="46.84466" lon="6.22245">
        <ele>865.32</ele>
        <time>2019-06-02T07:29:19Z</time>
      </trkpt>
      <trkpt lat="46.84474" lon="6.22235">
        <ele>865.32</ele>
        <time>2019-06-02T07:29:20Z</time>
      </trkpt>
      <trkpt lat="46.84512" lon="6.22163">
        <ele>861.48</ele>
        <time>2019-06-02T07:29:26Z</time>
      </trkpt>
      <trkpt lat="46.84527" lon="6.22125">
        <ele>860.52</ele>
        <time>2019-06-02T07:29:29Z</time>
      </trkpt>
      <trkpt lat="46.84557" lon="6.22025">
        <ele>857.63</ele>
        <time>2019-06-02T07:29:38Z</time>
      </trkpt>
      <trkpt lat="46.846" lon="6.2195">
        <ele>854.27</ele>
        <time>2019-06-02T07:29:45Z</time>
      </trkpt>
      <trkpt lat="46.84646" lon="6.2188">
        <ele>850.9</ele>
        <time>2019-06-02T07:29:52Z</time>
      </trkpt>
      <trkpt lat="46.84686" lon="6.21836">
        <ele>846.58</ele>
        <time>2019-06-02T07:29:57Z</time>
      </trkpt>
      <trkpt lat="46.84695" lon="6.21829">
        <ele>846.58</ele>
        <time>2019-06-02T07:29:58Z</time>
      </trkpt>
      <trkpt lat="46.84778" lon="6.21767">
        <ele>845.14</ele>
        <time>2019-06-02T07:30:09Z</time>
      </trkpt>
      <trkpt lat="46.84799" lon="6.21756">
        <ele>845.14</ele>
        <time>2019-06-02T07:30:12Z</time>
      </trkpt>
      <trkpt lat="46.8484" lon="6.21735">
        <ele>844.66</ele>
        <time>2019-06-02T07:30:19Z</time>
      </trkpt>
      <trkpt lat="46.84879" lon="6.21678">
        <ele>841.77</ele>
        <time>2019-06-02T07:30:27Z</time>
      </trkpt>
      <trkpt lat="46.84912" lon="6.21573">
        <ele>839.37</ele>
        <time>2019-06-02T07:30:37Z</time>
      </trkpt>
      <trkpt lat="46.84995" lon="6.21447">
        <ele>837.45</ele>
        <time>2019-06-02T07:30:54Z</time>
      </trkpt>
      <trkpt lat="46.85042" lon="6.21407">
        <ele>835.52</ele>
        <time>2019-06-02T07:31:01Z</time>
      </trkpt>
      <trkpt lat="46.85066" lon="6.21381">
        <ele>835.04</ele>
        <time>2019-06-02T07:31:05Z</time>
      </trkpt>
      <trkpt lat="46.85115" lon="6.21308">
        <ele>834.08</ele>
        <time>2019-06-02T07:31:18Z</time>
      </trkpt>
      <trkpt lat="46.85182" lon="6.21213">
        <ele>832.64</ele>
        <time>2019-06-02T07:31:33Z</time>
      </trkpt>
      <trkpt lat="46.85244" lon="6.21114">
        <ele>832.16</ele>
        <time>2019-06-02T07:31:48Z</time>
      </trkpt>
      <trkpt lat="46.85293" lon="6.21024">
        <ele>830.72</ele>
        <time>2019-06-02T07:32:02Z</time>
      </trkpt>
      <trkpt lat="46.85312" lon="6.21025">
        <ele>830.24</ele>
        <time>2019-06-02T07:32:07Z</time>
      </trkpt>
      <trkpt lat="46.85369" lon="6.21125">
        <ele>830.24</ele>
        <time>2019-06-02T07:32:25Z</time>
      </trkpt>
      <trkpt lat="46.85393" lon="6.21164">
        <ele>830.24</ele>
        <time>2019-06-02T07:32:32Z</time>
      </trkpt>
      <trkpt lat="46.8542" lon="6.21187">
        <ele>830.24</ele>
        <time>2019-06-02T07:32:42Z</time>
      </trkpt>
      <trkpt lat="46.85434" lon="6.21159">
        <ele>831.2</ele>
        <time>2019-06-02T07:32:54Z</time>
      </trkpt>
      <trkpt lat="46.85437" lon="6.21157">
        <ele>831.2</ele>
        <time>2019-06-02T07:32:56Z</time>
      </trkpt>
      <trkpt lat="46.85431" lon="6.2116">
        <ele>831.2</ele>
        <time>2019-06-02T07:33:04Z</time>
      </trkpt>
      <trkpt lat="46.85426" lon="6.2117">
        <ele>831.2</ele>
        <time>2019-06-02T07:33:10Z</time>
      </trkpt>
      <trkpt lat="46.85424" lon="6.21173">
        <ele>831.2</ele>
        <time>2019-06-02T07:33:13Z</time>
      </trkpt>
      <trkpt lat="46.85426" lon="6.21174">
        <ele>831.2</ele>
        <time>2019-06-02T07:33:21Z</time>
      </trkpt>
      <trkpt lat="46.85426" lon="6.21174">
        <ele>831.2</ele>
        <time>2019-06-02T07:33:33Z</time>
      </trkpt>
      <trkpt lat="46.85426" lon="6.21174">
        <ele>830.72</ele>
        <time>2019-06-02T07:34:07Z</time>
      </trkpt>
      <trkpt lat="46.85426" lon="6.21174">
        <ele>831.2</ele>
        <time>2019-06-02T07:34:21Z</time>
      </trkpt>
      <trkpt lat="46.85429" lon="6.21166">
        <ele>831.2</ele>
        <time>2019-06-02T07:34:25Z</time>
      </trkpt>
      <trkpt lat="46.85441" lon="6.21147">
        <ele>830.72</ele>
        <time>2019-06-02T07:34:31Z</time>
      </trkpt>
      <trkpt lat="46.85449" lon="6.21131">
        <ele>830.24</ele>
        <time>2019-06-02T07:34:34Z</time>
      </trkpt>
      <trkpt lat="46.85455" lon="6.21112">
        <ele>830.72</ele>
        <time>2019-06-02T07:34:37Z</time>
      </trkpt>
      <trkpt lat="46.85457" lon="6.21099">
        <ele>830.72</ele>
        <time>2019-06-02T07:34:39Z</time>
      </trkpt>
      <trkpt lat="46.85464" lon="6.21014">
        <ele>832.64</ele>
        <time>2019-06-02T07:34:54Z</time>
      </trkpt>
      <trkpt lat="46.85484" lon="6.20958">
        <ele>835.52</ele>
        <time>2019-06-02T07:35:08Z</time>
      </trkpt>
      <trkpt lat="46.855" lon="6.20909">
        <ele>836</ele>
        <time>2019-06-02T07:35:21Z</time>
      </trkpt>
      <trkpt lat="46.85501" lon="6.20906">
        <ele>836.48</ele>
        <time>2019-06-02T07:35:22Z</time>
      </trkpt>
      <trkpt lat="46.85536" lon="6.20913">
        <ele>836</ele>
        <time>2019-06-02T07:35:35Z</time>
      </trkpt>
      <trkpt lat="46.8557" lon="6.20925">
        <ele>835.52</ele>
        <time>2019-06-02T07:35:48Z</time>
      </trkpt>
      <trkpt lat="46.85597" lon="6.20937">
        <ele>834.56</ele>
        <time>2019-06-02T07:35:59Z</time>
      </trkpt>
      <trkpt lat="46.8564" lon="6.20967">
        <ele>833.12</ele>
        <time>2019-06-02T07:36:10Z</time>
      </trkpt>
      <trkpt lat="46.85659" lon="6.20981">
        <ele>832.64</ele>
        <time>2019-06-02T07:36:14Z</time>
      </trkpt>
      <trkpt lat="46.8569" lon="6.20997">
        <ele>832.16</ele>
        <time>2019-06-02T07:36:20Z</time>
      </trkpt>
      <trkpt lat="46.85733" lon="6.21003">
        <ele>831.68</ele>
        <time>2019-06-02T07:36:28Z</time>
      </trkpt>
      <trkpt lat="46.85754" lon="6.21004">
        <ele>831.2</ele>
        <time>2019-06-02T07:36:32Z</time>
      </trkpt>
      <trkpt lat="46.85772" lon="6.21005">
        <ele>831.2</ele>
        <time>2019-06-02T07:36:36Z</time>
      </trkpt>
      <trkpt lat="46.85792" lon="6.20974">
        <ele>831.2</ele>
        <time>2019-06-02T07:36:43Z</time>
      </trkpt>
      <trkpt lat="46.85839" lon="6.20902">
        <ele>831.68</ele>
        <time>2019-06-02T07:36:58Z</time>
      </trkpt>
      <trkpt lat="46.8586" lon="6.20873">
        <ele>832.16</ele>
        <time>2019-06-02T07:37:04Z</time>
      </trkpt>
      <trkpt lat="46.85892" lon="6.2082">
        <ele>832.16</ele>
        <time>2019-06-02T07:37:17Z</time>
      </trkpt>
      <trkpt lat="46.85933" lon="6.20758">
        <ele>832.16</ele>
        <time>2019-06-02T07:37:33Z</time>
      </trkpt>
      <trkpt lat="46.85944" lon="6.2074">
        <ele>832.16</ele>
        <time>2019-06-02T07:37:37Z</time>
      </trkpt>
      <trkpt lat="46.86" lon="6.20653">
        <ele>833.12</ele>
        <time>2019-06-02T07:37:54Z</time>
      </trkpt>
      <trkpt lat="46.86036" lon="6.2059">
        <ele>834.08</ele>
        <time>2019-06-02T07:38:05Z</time>
      </trkpt>
      <trkpt lat="46.86049" lon="6.2057">
        <ele>834.56</ele>
        <time>2019-06-02T07:38:09Z</time>
      </trkpt>
      <trkpt lat="46.86084" lon="6.20511">
        <ele>835.52</ele>
        <time>2019-06-02T07:38:21Z</time>
      </trkpt>
      <trkpt lat="46.86101" lon="6.20483">
        <ele>836.96</ele>
        <time>2019-06-02T07:38:27Z</time>
      </trkpt>
      <trkpt lat="46.86136" lon="6.20426">
        <ele>840.33</ele>
        <time>2019-06-02T07:38:40Z</time>
      </trkpt>
      <trkpt lat="46.86169" lon="6.20375">
        <ele>842.25</ele>
        <time>2019-06-02T07:38:52Z</time>
      </trkpt>
      <trkpt lat="46.86181" lon="6.20358">
        <ele>842.73</ele>
        <time>2019-06-02T07:38:56Z</time>
      </trkpt>
      <trkpt lat="46.86187" lon="6.20349">
        <ele>843.21</ele>
        <time>2019-06-02T07:38:58Z</time>
      </trkpt>
      <trkpt lat="46.86231" lon="6.20281">
        <ele>844.18</ele>
        <time>2019-06-02T07:39:12Z</time>
      </trkpt>
      <trkpt lat="46.86306" lon="6.20181">
        <ele>847.06</ele>
        <time>2019-06-02T07:39:32Z</time>
      </trkpt>
      <trkpt lat="46.8638" lon="6.20124">
        <ele>848.5</ele>
        <time>2019-06-02T07:39:49Z</time>
      </trkpt>
      <trkpt lat="46.86477" lon="6.20059">
        <ele>848.02</ele>
        <time>2019-06-02T07:40:10Z</time>
      </trkpt>
      <trkpt lat="46.86545" lon="6.20014">
        <ele>848.02</ele>
        <time>2019-06-02T07:40:24Z</time>
      </trkpt>
      <trkpt lat="46.86542" lon="6.20006">
        <ele>847.54</ele>
        <time>2019-06-02T07:40:30Z</time>
      </trkpt>
      <trkpt lat="46.86551" lon="6.20009">
        <ele>848.02</ele>
        <time>2019-06-02T07:40:36Z</time>
      </trkpt>
      <trkpt lat="46.86543" lon="6.20015">
        <ele>848.02</ele>
        <time>2019-06-02T07:40:42Z</time>
      </trkpt>
      <trkpt lat="46.8655" lon="6.20021">
        <ele>847.54</ele>
        <time>2019-06-02T07:40:49Z</time>
      </trkpt>
      <trkpt lat="46.8655" lon="6.20021">
        <ele>847.54</ele>
        <time>2019-06-02T07:41:17Z</time>
      </trkpt>
      <trkpt lat="46.8655" lon="6.20021">
        <ele>847.54</ele>
        <time>2019-06-02T07:41:31Z</time>
      </trkpt>
      <trkpt lat="46.86555" lon="6.20017">
        <ele>847.54</ele>
        <time>2019-06-02T07:41:35Z</time>
      </trkpt>
      <trkpt lat="46.86555" lon="6.1999">
        <ele>847.54</ele>
        <time>2019-06-02T07:41:40Z</time>
      </trkpt>
      <trkpt lat="46.86556" lon="6.19964">
        <ele>848.02</ele>
        <time>2019-06-02T07:41:44Z</time>
      </trkpt>
      <trkpt lat="46.8658" lon="6.199">
        <ele>849.46</ele>
        <time>2019-06-02T07:41:55Z</time>
      </trkpt>
      <trkpt lat="46.86585" lon="6.19892">
        <ele>849.94</ele>
        <time>2019-06-02T07:41:57Z</time>
      </trkpt>
      <trkpt lat="46.86619" lon="6.19867">
        <ele>850.9</ele>
        <time>2019-06-02T07:42:06Z</time>
      </trkpt>
      <trkpt lat="46.86639" lon="6.19854">
        <ele>850.9</ele>
        <time>2019-06-02T07:42:11Z</time>
      </trkpt>
      <trkpt lat="46.86722" lon="6.19794">
        <ele>850.42</ele>
        <time>2019-06-02T07:42:30Z</time>
      </trkpt>
      <trkpt lat="46.86753" lon="6.19767">
        <ele>849.94</ele>
        <time>2019-06-02T07:42:37Z</time>
      </trkpt>
      <trkpt lat="46.86782" lon="6.19729">
        <ele>849.46</ele>
        <time>2019-06-02T07:42:44Z</time>
      </trkpt>
      <trkpt lat="46.8684" lon="6.1962">
        <ele>848.98</ele>
        <time>2019-06-02T07:43:01Z</time>
      </trkpt>
      <trkpt lat="46.86889" lon="6.19519">
        <ele>849.46</ele>
        <time>2019-06-02T07:43:17Z</time>
      </trkpt>
      <trkpt lat="46.86939" lon="6.19414">
        <ele>850.9</ele>
        <time>2019-06-02T07:43:34Z</time>
      </trkpt>
      <trkpt lat="46.86961" lon="6.19353">
        <ele>849.94</ele>
        <time>2019-06-02T07:43:48Z</time>
      </trkpt>
      <trkpt lat="46.86961" lon="6.19352">
        <ele>849.94</ele>
        <time>2019-06-02T07:44:08Z</time>
      </trkpt>
      <trkpt lat="46.86962" lon="6.19347">
        <ele>849.94</ele>
        <time>2019-06-02T07:44:29Z</time>
      </trkpt>
      <trkpt lat="46.86968" lon="6.19313">
        <ele>849.46</ele>
        <time>2019-06-02T07:44:37Z</time>
      </trkpt>
      <trkpt lat="46.86966" lon="6.19207">
        <ele>846.58</ele>
        <time>2019-06-02T07:44:50Z</time>
      </trkpt>
      <trkpt lat="46.86953" lon="6.19122">
        <ele>844.18</ele>
        <time>2019-06-02T07:44:58Z</time>
      </trkpt>
      <trkpt lat="46.86967" lon="6.1904">
        <ele>842.73</ele>
        <time>2019-06-02T07:45:06Z</time>
      </trkpt>
      <trkpt lat="46.87037" lon="6.18924">
        <ele>840.81</ele>
        <time>2019-06-02T07:45:20Z</time>
      </trkpt>
      <trkpt lat="46.87062" lon="6.18878">
        <ele>841.29</ele>
        <time>2019-06-02T07:45:26Z</time>
      </trkpt>
      <trkpt lat="46.871" lon="6.18805">
        <ele>842.25</ele>
        <time>2019-06-02T07:45:37Z</time>
      </trkpt>
      <trkpt lat="46.87106" lon="6.18794">
        <ele>842.73</ele>
        <time>2019-06-02T07:45:39Z</time>
      </trkpt>
      <trkpt lat="46.8713" lon="6.18756">
        <ele>842.25</ele>
        <time>2019-06-02T07:45:46Z</time>
      </trkpt>
      <trkpt lat="46.87173" lon="6.18711">
        <ele>844.66</ele>
        <time>2019-06-02T07:45:56Z</time>
      </trkpt>
      <trkpt lat="46.87206" lon="6.18682">
        <ele>844.66</ele>
        <time>2019-06-02T07:46:06Z</time>
      </trkpt>
      <trkpt lat="46.87237" lon="6.18706">
        <ele>847.06</ele>
        <time>2019-06-02T07:46:18Z</time>
      </trkpt>
      <trkpt lat="46.87239" lon="6.18708">
        <ele>847.06</ele>
        <time>2019-06-02T07:46:19Z</time>
      </trkpt>
      <trkpt lat="46.87252" lon="6.18706">
        <ele>848.02</ele>
        <time>2019-06-02T07:46:27Z</time>
      </trkpt>
      <trkpt lat="46.87277" lon="6.18753">
        <ele>848.98</ele>
        <time>2019-06-02T07:46:41Z</time>
      </trkpt>
      <trkpt lat="46.87309" lon="6.18796">
        <ele>849.94</ele>
        <time>2019-06-02T07:46:51Z</time>
      </trkpt>
      <trkpt lat="46.87319" lon="6.1881">
        <ele>850.42</ele>
        <time>2019-06-02T07:46:54Z</time>
      </trkpt>
      <trkpt lat="46.87339" lon="6.18837">
        <ele>851.38</ele>
        <time>2019-06-02T07:47:00Z</time>
      </trkpt>
      <trkpt lat="46.87348" lon="6.18849">
        <ele>851.87</ele>
        <time>2019-06-02T07:47:03Z</time>
      </trkpt>
      <trkpt lat="46.8738" lon="6.18896">
        <ele>853.31</ele>
        <time>2019-06-02T07:47:16Z</time>
      </trkpt>
      <trkpt lat="46.87383" lon="6.18903">
        <ele>852.83</ele>
        <time>2019-06-02T07:47:18Z</time>
      </trkpt>
      <trkpt lat="46.87384" lon="6.18916">
        <ele>852.35</ele>
        <time>2019-06-02T07:47:26Z</time>
      </trkpt>
      <trkpt lat="46.87384" lon="6.18916">
        <ele>852.35</ele>
        <time>2019-06-02T07:47:35Z</time>
      </trkpt>
      <trkpt lat="46.87387" lon="6.18903">
        <ele>852.83</ele>
        <time>2019-06-02T07:47:44Z</time>
      </trkpt>
      <trkpt lat="46.87384" lon="6.1889">
        <ele>852.83</ele>
        <time>2019-06-02T07:47:57Z</time>
      </trkpt>
      <trkpt lat="46.87384" lon="6.1889">
        <ele>852.83</ele>
        <time>2019-06-02T07:48:22Z</time>
      </trkpt>
      <trkpt lat="46.87384" lon="6.1889">
        <ele>852.83</ele>
        <time>2019-06-02T07:48:48Z</time>
      </trkpt>
      <trkpt lat="46.87387" lon="6.18894">
        <ele>852.83</ele>
        <time>2019-06-02T07:49:00Z</time>
      </trkpt>
      <trkpt lat="46.87386" lon="6.18897">
        <ele>852.83</ele>
        <time>2019-06-02T07:49:18Z</time>
      </trkpt>
      <trkpt lat="46.87385" lon="6.18916">
        <ele>852.35</ele>
        <time>2019-06-02T07:49:29Z</time>
      </trkpt>
      <trkpt lat="46.87385" lon="6.18916">
        <ele>851.87</ele>
        <time>2019-06-02T07:49:45Z</time>
      </trkpt>
      <trkpt lat="46.87381" lon="6.18917">
        <ele>851.87</ele>
        <time>2019-06-02T07:49:53Z</time>
      </trkpt>
      <trkpt lat="46.87376" lon="6.18922">
        <ele>851.38</ele>
        <time>2019-06-02T07:49:57Z</time>
      </trkpt>
      <trkpt lat="46.87357" lon="6.18954">
        <ele>850.9</ele>
        <time>2019-06-02T07:50:10Z</time>
      </trkpt>
      <trkpt lat="46.87351" lon="6.18955">
        <ele>850.42</ele>
        <time>2019-06-02T07:50:20Z</time>
      </trkpt>
      <trkpt lat="46.87351" lon="6.18955">
        <ele>849.46</ele>
        <time>2019-06-02T07:50:34Z</time>
      </trkpt>
      <trkpt lat="46.87358" lon="6.1895">
        <ele>850.42</ele>
        <time>2019-06-02T07:55:08Z</time>
      </trkpt>
      <trkpt lat="46.87375" lon="6.18926">
        <ele>850.9</ele>
        <time>2019-06-02T07:55:26Z</time>
      </trkpt>
      <trkpt lat="46.87383" lon="6.18919">
        <ele>851.38</ele>
        <time>2019-06-02T07:55:40Z</time>
      </trkpt>
      <trkpt lat="46.87385" lon="6.18915">
        <ele>851.38</ele>
        <time>2019-06-02T07:55:59Z</time>
      </trkpt>
      <trkpt lat="46.87385" lon="6.18911">
        <ele>851.87</ele>
        <time>2019-06-02T07:56:18Z</time>
      </trkpt>
      <trkpt lat="46.87385" lon="6.18904">
        <ele>852.35</ele>
        <time>2019-06-02T07:56:28Z</time>
      </trkpt>
      <trkpt lat="46.87385" lon="6.18899">
        <ele>852.35</ele>
        <time>2019-06-02T07:56:31Z</time>
      </trkpt>
      <trkpt lat="46.87375" lon="6.1888">
        <ele>852.35</ele>
        <time>2019-06-02T07:56:38Z</time>
      </trkpt>
      <trkpt lat="46.87338" lon="6.18828">
        <ele>851.38</ele>
        <time>2019-06-02T07:56:51Z</time>
      </trkpt>
      <trkpt lat="46.87268" lon="6.18731">
        <ele>848.5</ele>
        <time>2019-06-02T07:57:08Z</time>
      </trkpt>
      <trkpt lat="46.87244" lon="6.18633">
        <ele>845.62</ele>
        <time>2019-06-02T07:57:19Z</time>
      </trkpt>
      <trkpt lat="46.87228" lon="6.18586">
        <ele>843.69</ele>
        <time>2019-06-02T07:57:24Z</time>
      </trkpt>
      <trkpt lat="46.87202" lon="6.18477">
        <ele>842.25</ele>
        <time>2019-06-02T07:57:37Z</time>
      </trkpt>
      <trkpt lat="46.872" lon="6.1847">
        <ele>842.25</ele>
        <time>2019-06-02T07:57:38Z</time>
      </trkpt>
      <trkpt lat="46.87188" lon="6.18423">
        <ele>842.73</ele>
        <time>2019-06-02T07:57:45Z</time>
      </trkpt>
      <trkpt lat="46.87183" lon="6.18411">
        <ele>842.73</ele>
        <time>2019-06-02T07:57:47Z</time>
      </trkpt>
      <trkpt lat="46.87171" lon="6.18379">
        <ele>843.21</ele>
        <time>2019-06-02T07:57:53Z</time>
      </trkpt>
      <trkpt lat="46.87156" lon="6.1835">
        <ele>844.18</ele>
        <time>2019-06-02T07:57:59Z</time>
      </trkpt>
      <trkpt lat="46.87128" lon="6.18306">
        <ele>846.1</ele>
        <time>2019-06-02T07:58:11Z</time>
      </trkpt>
      <trkpt lat="46.87124" lon="6.18301">
        <ele>846.58</ele>
        <time>2019-06-02T07:58:19Z</time>
      </trkpt>
      <trkpt lat="46.87124" lon="6.18301">
        <ele>846.58</ele>
        <time>2019-06-02T07:58:42Z</time>
      </trkpt>
      <trkpt lat="46.87124" lon="6.18301">
        <ele>846.58</ele>
        <time>2019-06-02T07:58:51Z</time>
      </trkpt>
      <trkpt lat="46.87122" lon="6.18299">
        <ele>846.58</ele>
        <time>2019-06-02T07:58:54Z</time>
      </trkpt>
      <trkpt lat="46.87113" lon="6.18286">
        <ele>846.58</ele>
        <time>2019-06-02T07:58:59Z</time>
      </trkpt>
      <trkpt lat="46.87095" lon="6.18255">
        <ele>847.06</ele>
        <time>2019-06-02T07:59:06Z</time>
      </trkpt>
      <trkpt lat="46.87075" lon="6.18217">
        <ele>847.54</ele>
        <time>2019-06-02T07:59:13Z</time>
      </trkpt>
      <trkpt lat="46.86994" lon="6.181">
        <ele>847.06</ele>
        <time>2019-06-02T07:59:32Z</time>
      </trkpt>
      <trkpt lat="46.86929" lon="6.18005">
        <ele>848.5</ele>
        <time>2019-06-02T07:59:50Z</time>
      </trkpt>
      <trkpt lat="46.86919" lon="6.17992">
        <ele>848.98</ele>
        <time>2019-06-02T07:59:53Z</time>
      </trkpt>
      <trkpt lat="46.86873" lon="6.17928">
        <ele>850.42</ele>
        <time>2019-06-02T08:00:07Z</time>
      </trkpt>
      <trkpt lat="46.86823" lon="6.17855">
        <ele>850.9</ele>
        <time>2019-06-02T08:00:21Z</time>
      </trkpt>
      <trkpt lat="46.86747" lon="6.17747">
        <ele>848.5</ele>
        <time>2019-06-02T08:00:39Z</time>
      </trkpt>
      <trkpt lat="46.8664" lon="6.17593">
        <ele>847.06</ele>
        <time>2019-06-02T08:01:03Z</time>
      </trkpt>
      <trkpt lat="46.86559" lon="6.17478">
        <ele>848.98</ele>
        <time>2019-06-02T08:01:23Z</time>
      </trkpt>
      <trkpt lat="46.86494" lon="6.17384">
        <ele>851.38</ele>
        <time>2019-06-02T08:01:41Z</time>
      </trkpt>
      <trkpt lat="46.86433" lon="6.17299">
        <ele>852.83</ele>
        <time>2019-06-02T08:01:58Z</time>
      </trkpt>
      <trkpt lat="46.8643" lon="6.17294">
        <ele>852.83</ele>
        <time>2019-06-02T08:01:59Z</time>
      </trkpt>
      <trkpt lat="46.86387" lon="6.17234">
        <ele>853.79</ele>
        <time>2019-06-02T08:02:12Z</time>
      </trkpt>
      <trkpt lat="46.86333" lon="6.17155">
        <ele>855.23</ele>
        <time>2019-06-02T08:02:31Z</time>
      </trkpt>
      <trkpt lat="46.86287" lon="6.17089">
        <ele>856.67</ele>
        <time>2019-06-02T08:02:48Z</time>
      </trkpt>
      <trkpt lat="46.86259" lon="6.17049">
        <ele>857.63</ele>
        <time>2019-06-02T08:02:58Z</time>
      </trkpt>
      <trkpt lat="46.86224" lon="6.16999">
        <ele>858.11</ele>
        <time>2019-06-02T08:03:11Z</time>
      </trkpt>
      <trkpt lat="46.86183" lon="6.16939">
        <ele>859.56</ele>
        <time>2019-06-02T08:03:27Z</time>
      </trkpt>
      <trkpt lat="46.86146" lon="6.16884">
        <ele>860.04</ele>
        <time>2019-06-02T08:03:43Z</time>
      </trkpt>
      <trkpt lat="46.86144" lon="6.16892">
        <ele>860.04</ele>
        <time>2019-06-02T08:03:47Z</time>
      </trkpt>
      <trkpt lat="46.86195" lon="6.1697">
        <ele>859.08</ele>
        <time>2019-06-02T08:04:07Z</time>
      </trkpt>
      <trkpt lat="46.86222" lon="6.17007">
        <ele>858.59</ele>
        <time>2019-06-02T08:04:17Z</time>
      </trkpt>
      <trkpt lat="46.86222" lon="6.16995">
        <ele>858.59</ele>
        <time>2019-06-02T08:04:23Z</time>
      </trkpt>
      <trkpt lat="46.86181" lon="6.16936">
        <ele>859.56</ele>
        <time>2019-06-02T08:04:40Z</time>
      </trkpt>
      <trkpt lat="46.86138" lon="6.16869">
        <ele>860.52</ele>
        <time>2019-06-02T08:04:57Z</time>
      </trkpt>
      <trkpt lat="46.86107" lon="6.16771">
        <ele>861</ele>
        <time>2019-06-02T08:05:15Z</time>
      </trkpt>
      <trkpt lat="46.86074" lon="6.16673">
        <ele>861.96</ele>
        <time>2019-06-02T08:05:32Z</time>
      </trkpt>
      <trkpt lat="46.86034" lon="6.16608">
        <ele>862.92</ele>
        <time>2019-06-02T08:05:46Z</time>
      </trkpt>
      <trkpt lat="46.8602" lon="6.16592">
        <ele>862.92</ele>
        <time>2019-06-02T08:05:50Z</time>
      </trkpt>
      <trkpt lat="46.86013" lon="6.16584">
        <ele>862.92</ele>
        <time>2019-06-02T08:05:52Z</time>
      </trkpt>
      <trkpt lat="46.85994" lon="6.16569">
        <ele>863.4</ele>
        <time>2019-06-02T08:05:57Z</time>
      </trkpt>
      <trkpt lat="46.85937" lon="6.16528">
        <ele>863.88</ele>
        <time>2019-06-02T08:06:12Z</time>
      </trkpt>
      <trkpt lat="46.85923" lon="6.16518">
        <ele>863.88</ele>
        <time>2019-06-02T08:06:16Z</time>
      </trkpt>
      <trkpt lat="46.85899" lon="6.16499">
        <ele>863.4</ele>
        <time>2019-06-02T08:06:22Z</time>
      </trkpt>
      <trkpt lat="46.85885" lon="6.16489">
        <ele>862.44</ele>
        <time>2019-06-02T08:06:25Z</time>
      </trkpt>
      <trkpt lat="46.85823" lon="6.16421">
        <ele>860.04</ele>
        <time>2019-06-02T08:06:37Z</time>
      </trkpt>
      <trkpt lat="46.85791" lon="6.1639">
        <ele>860.52</ele>
        <time>2019-06-02T08:06:44Z</time>
      </trkpt>
      <trkpt lat="46.85752" lon="6.16346">
        <ele>860.52</ele>
        <time>2019-06-02T08:06:56Z</time>
      </trkpt>
      <trkpt lat="46.85746" lon="6.16337">
        <ele>860.04</ele>
        <time>2019-06-02T08:06:58Z</time>
      </trkpt>
      <trkpt lat="46.85739" lon="6.16328">
        <ele>860.04</ele>
        <time>2019-06-02T08:07:00Z</time>
      </trkpt>
      <trkpt lat="46.85733" lon="6.16318">
        <ele>859.56</ele>
        <time>2019-06-02T08:07:02Z</time>
      </trkpt>
      <trkpt lat="46.85723" lon="6.16304">
        <ele>859.56</ele>
        <time>2019-06-02T08:07:05Z</time>
      </trkpt>
      <trkpt lat="46.85711" lon="6.16284">
        <ele>859.08</ele>
        <time>2019-06-02T08:07:09Z</time>
      </trkpt>
      <trkpt lat="46.857" lon="6.16263">
        <ele>859.08</ele>
        <time>2019-06-02T08:07:13Z</time>
      </trkpt>
      <trkpt lat="46.8569" lon="6.16216">
        <ele>857.63</ele>
        <time>2019-06-02T08:07:23Z</time>
      </trkpt>
      <trkpt lat="46.85692" lon="6.16197">
        <ele>857.63</ele>
        <time>2019-06-02T08:07:31Z</time>
      </trkpt>
      <trkpt lat="46.85689" lon="6.16199">
        <ele>857.63</ele>
        <time>2019-06-02T08:07:33Z</time>
      </trkpt>
      <trkpt lat="46.85685" lon="6.16202">
        <ele>857.63</ele>
        <time>2019-06-02T08:07:36Z</time>
      </trkpt>
      <trkpt lat="46.85677" lon="6.16191">
        <ele>858.11</ele>
        <time>2019-06-02T08:07:41Z</time>
      </trkpt>
      <trkpt lat="46.85659" lon="6.16143">
        <ele>859.08</ele>
        <time>2019-06-02T08:07:52Z</time>
      </trkpt>
      <trkpt lat="46.85651" lon="6.16113">
        <ele>860.04</ele>
        <time>2019-06-02T08:07:58Z</time>
      </trkpt>
      <trkpt lat="46.85657" lon="6.16104">
        <ele>859.56</ele>
        <time>2019-06-02T08:08:02Z</time>
      </trkpt>
      <trkpt lat="46.85648" lon="6.16099">
        <ele>859.56</ele>
        <time>2019-06-02T08:08:09Z</time>
      </trkpt>
      <trkpt lat="46.8564" lon="6.16084">
        <ele>860.04</ele>
        <time>2019-06-02T08:08:13Z</time>
      </trkpt>
      <trkpt lat="46.85619" lon="6.16018">
        <ele>861</ele>
        <time>2019-06-02T08:08:26Z</time>
      </trkpt>
      <trkpt lat="46.85612" lon="6.15995">
        <ele>861</ele>
        <time>2019-06-02T08:08:30Z</time>
      </trkpt>
      <trkpt lat="46.85608" lon="6.15974">
        <ele>861.48</ele>
        <time>2019-06-02T08:08:35Z</time>
      </trkpt>
      <trkpt lat="46.85616" lon="6.15959">
        <ele>861</ele>
        <time>2019-06-02T08:08:42Z</time>
      </trkpt>
      <trkpt lat="46.85619" lon="6.15963">
        <ele>861</ele>
        <time>2019-06-02T08:08:45Z</time>
      </trkpt>
      <trkpt lat="46.85625" lon="6.15961">
        <ele>861</ele>
        <time>2019-06-02T08:08:52Z</time>
      </trkpt>
      <trkpt lat="46.85625" lon="6.15961">
        <ele>860.52</ele>
        <time>2019-06-02T08:09:12Z</time>
      </trkpt>
      <trkpt lat="46.85624" lon="6.15961">
        <ele>861</ele>
        <time>2019-06-02T08:09:34Z</time>
      </trkpt>
      <trkpt lat="46.85624" lon="6.15961">
        <ele>861</ele>
        <time>2019-06-02T08:10:05Z</time>
      </trkpt>
      <trkpt lat="46.85624" lon="6.15961">
        <ele>861</ele>
        <time>2019-06-02T08:10:31Z</time>
      </trkpt>
      <trkpt lat="46.85622" lon="6.15959">
        <ele>861</ele>
        <time>2019-06-02T08:10:48Z</time>
      </trkpt>
      <trkpt lat="46.85619" lon="6.15957">
        <ele>861.48</ele>
        <time>2019-06-02T08:10:55Z</time>
      </trkpt>
      <trkpt lat="46.85605" lon="6.1596">
        <ele>861.48</ele>
        <time>2019-06-02T08:11:01Z</time>
      </trkpt>
      <trkpt lat="46.85584" lon="6.15908">
        <ele>861</ele>
        <time>2019-06-02T08:11:14Z</time>
      </trkpt>
      <trkpt lat="46.85569" lon="6.15873">
        <ele>861</ele>
        <time>2019-06-02T08:11:21Z</time>
      </trkpt>
      <trkpt lat="46.8555" lon="6.15846">
        <ele>861</ele>
        <time>2019-06-02T08:11:27Z</time>
      </trkpt>
      <trkpt lat="46.85506" lon="6.15778">
        <ele>861.48</ele>
        <time>2019-06-02T08:11:42Z</time>
      </trkpt>
      <trkpt lat="46.85503" lon="6.15773">
        <ele>861.48</ele>
        <time>2019-06-02T08:11:43Z</time>
      </trkpt>
      <trkpt lat="46.85477" lon="6.15709">
        <ele>861.48</ele>
        <time>2019-06-02T08:11:57Z</time>
      </trkpt>
      <trkpt lat="46.85455" lon="6.15657">
        <ele>861.48</ele>
        <time>2019-06-02T08:12:11Z</time>
      </trkpt>
      <trkpt lat="46.85449" lon="6.15634">
        <ele>861</ele>
        <time>2019-06-02T08:12:21Z</time>
      </trkpt>
      <trkpt lat="46.85442" lon="6.15634">
        <ele>861</ele>
        <time>2019-06-02T08:12:28Z</time>
      </trkpt>
      <trkpt lat="46.85442" lon="6.15634">
        <ele>861</ele>
        <time>2019-06-02T08:12:31Z</time>
      </trkpt>
      <trkpt lat="46.85443" lon="6.15654">
        <ele>861</ele>
        <time>2019-06-02T08:12:39Z</time>
      </trkpt>
      <trkpt lat="46.85465" lon="6.15693">
        <ele>861.48</ele>
        <time>2019-06-02T08:12:53Z</time>
      </trkpt>
      <trkpt lat="46.85487" lon="6.15744">
        <ele>861.48</ele>
        <time>2019-06-02T08:13:04Z</time>
      </trkpt>
      <trkpt lat="46.855" lon="6.15777">
        <ele>861.48</ele>
        <time>2019-06-02T08:13:10Z</time>
      </trkpt>
      <trkpt lat="46.85529" lon="6.15825">
        <ele>861</ele>
        <time>2019-06-02T08:13:19Z</time>
      </trkpt>
      <trkpt lat="46.85567" lon="6.15875">
        <ele>860.52</ele>
        <time>2019-06-02T08:13:30Z</time>
      </trkpt>
      <trkpt lat="46.85585" lon="6.15919">
        <ele>861</ele>
        <time>2019-06-02T08:13:37Z</time>
      </trkpt>
      <trkpt lat="46.85599" lon="6.15959">
        <ele>861</ele>
        <time>2019-06-02T08:13:44Z</time>
      </trkpt>
      <trkpt lat="46.85617" lon="6.15956">
        <ele>861</ele>
        <time>2019-06-02T08:13:51Z</time>
      </trkpt>
      <trkpt lat="46.85615" lon="6.15946">
        <ele>861.48</ele>
        <time>2019-06-02T08:13:59Z</time>
      </trkpt>
      <trkpt lat="46.85615" lon="6.15945">
        <ele>861.48</ele>
        <time>2019-06-02T08:14:08Z</time>
      </trkpt>
      <trkpt lat="46.85619" lon="6.15933">
        <ele>861.48</ele>
        <time>2019-06-02T08:15:59Z</time>
      </trkpt>
      <trkpt lat="46.85622" lon="6.15929">
        <ele>861</ele>
        <time>2019-06-02T08:16:02Z</time>
      </trkpt>
      <trkpt lat="46.85643" lon="6.15912">
        <ele>861</ele>
        <time>2019-06-02T08:16:10Z</time>
      </trkpt>
      <trkpt lat="46.85657" lon="6.15893">
        <ele>861</ele>
        <time>2019-06-02T08:16:14Z</time>
      </trkpt>
      <trkpt lat="46.8567" lon="6.15875">
        <ele>861.48</ele>
        <time>2019-06-02T08:16:18Z</time>
      </trkpt>
      <trkpt lat="46.85717" lon="6.15809">
        <ele>861.48</ele>
        <time>2019-06-02T08:16:34Z</time>
      </trkpt>
      <trkpt lat="46.85738" lon="6.15776">
        <ele>861.48</ele>
        <time>2019-06-02T08:16:47Z</time>
      </trkpt>
      <trkpt lat="46.85724" lon="6.15736">
        <ele>861.48</ele>
        <time>2019-06-02T08:16:56Z</time>
      </trkpt>
      <trkpt lat="46.85681" lon="6.15693">
        <ele>861.96</ele>
        <time>2019-06-02T08:17:09Z</time>
      </trkpt>
      <trkpt lat="46.8566" lon="6.1569">
        <ele>862.44</ele>
        <time>2019-06-02T08:17:14Z</time>
      </trkpt>
      <trkpt lat="46.85621" lon="6.15687">
        <ele>864.36</ele>
        <time>2019-06-02T08:17:26Z</time>
      </trkpt>
      <trkpt lat="46.85589" lon="6.15647">
        <ele>864.84</ele>
        <time>2019-06-02T08:17:38Z</time>
      </trkpt>
      <trkpt lat="46.85552" lon="6.15599">
        <ele>863.88</ele>
        <time>2019-06-02T08:17:51Z</time>
      </trkpt>
      <trkpt lat="46.85545" lon="6.15589">
        <ele>863.88</ele>
        <time>2019-06-02T08:17:53Z</time>
      </trkpt>
      <trkpt lat="46.85498" lon="6.15495">
        <ele>861</ele>
        <time>2019-06-02T08:18:07Z</time>
      </trkpt>
      <trkpt lat="46.8548" lon="6.1547">
        <ele>859.56</ele>
        <time>2019-06-02T08:18:11Z</time>
      </trkpt>
      <trkpt lat="46.85461" lon="6.15451">
        <ele>859.08</ele>
        <time>2019-06-02T08:18:15Z</time>
      </trkpt>
      <trkpt lat="46.85451" lon="6.15438">
        <ele>859.08</ele>
        <time>2019-06-02T08:18:18Z</time>
      </trkpt>
      <trkpt lat="46.85443" lon="6.15431">
        <ele>859.08</ele>
        <time>2019-06-02T08:18:20Z</time>
      </trkpt>
      <trkpt lat="46.85437" lon="6.15412">
        <ele>859.08</ele>
        <time>2019-06-02T08:18:24Z</time>
      </trkpt>
      <trkpt lat="46.85434" lon="6.15332">
        <ele>859.08</ele>
        <time>2019-06-02T08:18:39Z</time>
      </trkpt>
      <trkpt lat="46.85431" lon="6.1528">
        <ele>858.59</ele>
        <time>2019-06-02T08:18:51Z</time>
      </trkpt>
      <trkpt lat="46.85428" lon="6.15245">
        <ele>859.08</ele>
        <time>2019-06-02T08:19:01Z</time>
      </trkpt>
      <trkpt lat="46.85425" lon="6.15253">
        <ele>859.08</ele>
        <time>2019-06-02T08:19:06Z</time>
      </trkpt>
      <trkpt lat="46.8543" lon="6.15308">
        <ele>858.59</ele>
        <time>2019-06-02T08:19:16Z</time>
      </trkpt>
      <trkpt lat="46.85421" lon="6.1532">
        <ele>859.08</ele>
        <time>2019-06-02T08:19:20Z</time>
      </trkpt>
      <trkpt lat="46.85412" lon="6.15333">
        <ele>859.08</ele>
        <time>2019-06-02T08:19:24Z</time>
      </trkpt>
      <trkpt lat="46.85399" lon="6.15356">
        <ele>859.56</ele>
        <time>2019-06-02T08:19:29Z</time>
      </trkpt>
      <trkpt lat="46.85383" lon="6.15383">
        <ele>859.56</ele>
        <time>2019-06-02T08:19:35Z</time>
      </trkpt>
      <trkpt lat="46.85351" lon="6.15436">
        <ele>861.48</ele>
        <time>2019-06-02T08:19:48Z</time>
      </trkpt>
      <trkpt lat="46.85341" lon="6.1542">
        <ele>861.96</ele>
        <time>2019-06-02T08:19:54Z</time>
      </trkpt>
      <trkpt lat="46.8533" lon="6.15397">
        <ele>862.92</ele>
        <time>2019-06-02T08:19:59Z</time>
      </trkpt>
      <trkpt lat="46.85309" lon="6.15345">
        <ele>862.92</ele>
        <time>2019-06-02T08:20:10Z</time>
      </trkpt>
      <trkpt lat="46.85305" lon="6.15325">
        <ele>863.4</ele>
        <time>2019-06-02T08:20:14Z</time>
      </trkpt>
      <trkpt lat="46.85281" lon="6.1526">
        <ele>863.4</ele>
        <time>2019-06-02T08:20:27Z</time>
      </trkpt>
      <trkpt lat="46.85293" lon="6.15243">
        <ele>863.4</ele>
        <time>2019-06-02T08:20:36Z</time>
      </trkpt>
      <trkpt lat="46.85296" lon="6.15242">
        <ele>862.92</ele>
        <time>2019-06-02T08:20:46Z</time>
      </trkpt>
      <trkpt lat="46.85296" lon="6.15244">
        <ele>862.92</ele>
        <time>2019-06-02T08:21:01Z</time>
      </trkpt>
      <trkpt lat="46.85296" lon="6.15244">
        <ele>863.4</ele>
        <time>2019-06-02T08:21:27Z</time>
      </trkpt>
      <trkpt lat="46.85296" lon="6.15243">
        <ele>863.4</ele>
        <time>2019-06-02T08:21:42Z</time>
      </trkpt>
      <trkpt lat="46.85292" lon="6.15243">
        <ele>863.4</ele>
        <time>2019-06-02T08:21:49Z</time>
      </trkpt>
      <trkpt lat="46.85292" lon="6.15243">
        <ele>863.4</ele>
        <time>2019-06-02T08:21:50Z</time>
      </trkpt>
      <trkpt lat="46.85287" lon="6.15248">
        <ele>863.4</ele>
        <time>2019-06-02T08:21:57Z</time>
      </trkpt>
      <trkpt lat="46.85299" lon="6.15217">
        <ele>863.4</ele>
        <time>2019-06-02T08:22:08Z</time>
      </trkpt>
      <trkpt lat="46.85294" lon="6.15198">
        <ele>863.88</ele>
        <time>2019-06-02T08:22:12Z</time>
      </trkpt>
      <trkpt lat="46.85301" lon="6.15178">
        <ele>862.92</ele>
        <time>2019-06-02T08:22:16Z</time>
      </trkpt>
      <trkpt lat="46.85299" lon="6.1515">
        <ele>862.92</ele>
        <time>2019-06-02T08:22:21Z</time>
      </trkpt>
      <trkpt lat="46.85288" lon="6.15128">
        <ele>863.4</ele>
        <time>2019-06-02T08:22:26Z</time>
      </trkpt>
      <trkpt lat="46.85301" lon="6.15091">
        <ele>863.4</ele>
        <time>2019-06-02T08:22:35Z</time>
      </trkpt>
      <trkpt lat="46.85354" lon="6.15025">
        <ele>861</ele>
        <time>2019-06-02T08:22:49Z</time>
      </trkpt>
      <trkpt lat="46.85359" lon="6.1502">
        <ele>860.52</ele>
        <time>2019-06-02T08:22:50Z</time>
      </trkpt>
      <trkpt lat="46.85371" lon="6.14992">
        <ele>859.56</ele>
        <time>2019-06-02T08:22:56Z</time>
      </trkpt>
      <trkpt lat="46.85358" lon="6.14951">
        <ele>858.59</ele>
        <time>2019-06-02T08:23:05Z</time>
      </trkpt>
      <trkpt lat="46.85355" lon="6.1496">
        <ele>858.59</ele>
        <time>2019-06-02T08:23:10Z</time>
      </trkpt>
      <trkpt lat="46.85373" lon="6.15001">
        <ele>859.56</ele>
        <time>2019-06-02T08:23:22Z</time>
      </trkpt>
      <trkpt lat="46.85408" lon="6.15069">
        <ele>859.56</ele>
        <time>2019-06-02T08:23:36Z</time>
      </trkpt>
      <trkpt lat="46.85423" lon="6.15105">
        <ele>860.04</ele>
        <time>2019-06-02T08:23:43Z</time>
      </trkpt>
      <trkpt lat="46.85424" lon="6.151">
        <ele>859.56</ele>
        <time>2019-06-02T08:23:49Z</time>
      </trkpt>
      <trkpt lat="46.85433" lon="6.15109">
        <ele>859.56</ele>
        <time>2019-06-02T08:23:55Z</time>
      </trkpt>
      <trkpt lat="46.85437" lon="6.15099">
        <ele>859.56</ele>
        <time>2019-06-02T08:23:57Z</time>
      </trkpt>
      <trkpt lat="46.85444" lon="6.15076">
        <ele>859.56</ele>
        <time>2019-06-02T08:24:01Z</time>
      </trkpt>
      <trkpt lat="46.85457" lon="6.15048">
        <ele>859.08</ele>
        <time>2019-06-02T08:24:06Z</time>
      </trkpt>
      <trkpt lat="46.85463" lon="6.15036">
        <ele>859.08</ele>
        <time>2019-06-02T08:24:08Z</time>
      </trkpt>
      <trkpt lat="46.85476" lon="6.15008">
        <ele>859.56</ele>
        <time>2019-06-02T08:24:13Z</time>
      </trkpt>
      <trkpt lat="46.85534" lon="6.14917">
        <ele>858.11</ele>
        <time>2019-06-02T08:24:28Z</time>
      </trkpt>
      <trkpt lat="46.85616" lon="6.14848">
        <ele>858.11</ele>
        <time>2019-06-02T08:24:44Z</time>
      </trkpt>
      <trkpt lat="46.85686" lon="6.14793">
        <ele>853.31</ele>
        <time>2019-06-02T08:24:58Z</time>
      </trkpt>
      <trkpt lat="46.85692" lon="6.14789">
        <ele>862.44</ele>
        <time>2019-06-02T08:24:59Z</time>
      </trkpt>
      <trkpt lat="46.85697" lon="6.14785">
        <ele>850.42</ele>
        <time>2019-06-02T08:25:00Z</time>
      </trkpt>
      <trkpt lat="46.85702" lon="6.14781">
        <ele>861.48</ele>
        <time>2019-06-02T08:25:01Z</time>
      </trkpt>
      <trkpt lat="46.85707" lon="6.14776">
        <ele>856.67</ele>
        <time>2019-06-02T08:25:02Z</time>
      </trkpt>
      <trkpt lat="46.85741" lon="6.1473">
        <ele>854.75</ele>
        <time>2019-06-02T08:25:09Z</time>
      </trkpt>
      <trkpt lat="46.85778" lon="6.14606">
        <ele>851.38</ele>
        <time>2019-06-02T08:25:22Z</time>
      </trkpt>
      <trkpt lat="46.85795" lon="6.14538">
        <ele>850.42</ele>
        <time>2019-06-02T08:25:29Z</time>
      </trkpt>
      <trkpt lat="46.85845" lon="6.14402">
        <ele>848.5</ele>
        <time>2019-06-02T08:25:44Z</time>
      </trkpt>
      <trkpt lat="46.85936" lon="6.14253">
        <ele>847.06</ele>
        <time>2019-06-02T08:26:03Z</time>
      </trkpt>
      <trkpt lat="46.86019" lon="6.14115">
        <ele>845.62</ele>
        <time>2019-06-02T08:26:22Z</time>
      </trkpt>
      <trkpt lat="46.86064" lon="6.14043">
        <ele>844.66</ele>
        <time>2019-06-02T08:26:32Z</time>
      </trkpt>
      <trkpt lat="46.86147" lon="6.13923">
        <ele>843.69</ele>
        <time>2019-06-02T08:26:49Z</time>
      </trkpt>
      <trkpt lat="46.86232" lon="6.1387">
        <ele>842.73</ele>
        <time>2019-06-02T08:27:02Z</time>
      </trkpt>
      <trkpt lat="46.86333" lon="6.13876">
        <ele>841.29</ele>
        <time>2019-06-02T08:27:16Z</time>
      </trkpt>
      <trkpt lat="46.8636" lon="6.13885">
        <ele>841.29</ele>
        <time>2019-06-02T08:27:20Z</time>
      </trkpt>
      <trkpt lat="46.86463" lon="6.13919">
        <ele>840.33</ele>
        <time>2019-06-02T08:27:36Z</time>
      </trkpt>
      <trkpt lat="46.86553" lon="6.13903">
        <ele>838.89</ele>
        <time>2019-06-02T08:27:50Z</time>
      </trkpt>
      <trkpt lat="46.86571" lon="6.13891">
        <ele>838.89</ele>
        <time>2019-06-02T08:27:53Z</time>
      </trkpt>
      <trkpt lat="46.86643" lon="6.13798">
        <ele>837.45</ele>
        <time>2019-06-02T08:28:08Z</time>
      </trkpt>
      <trkpt lat="46.86674" lon="6.13663">
        <ele>835.52</ele>
        <time>2019-06-02T08:28:23Z</time>
      </trkpt>
      <trkpt lat="46.86688" lon="6.13491">
        <ele>833.12</ele>
        <time>2019-06-02T08:28:41Z</time>
      </trkpt>
      <trkpt lat="46.867" lon="6.13319">
        <ele>832.16</ele>
        <time>2019-06-02T08:29:00Z</time>
      </trkpt>
      <trkpt lat="46.86705" lon="6.13262">
        <ele>832.64</ele>
        <time>2019-06-02T08:29:07Z</time>
      </trkpt>
      <trkpt lat="46.86723" lon="6.13138">
        <ele>834.56</ele>
        <time>2019-06-02T08:29:25Z</time>
      </trkpt>
      <trkpt lat="46.8674" lon="6.13027">
        <ele>835.52</ele>
        <time>2019-06-02T08:29:42Z</time>
      </trkpt>
      <trkpt lat="46.8676" lon="6.12912">
        <ele>835.52</ele>
        <time>2019-06-02T08:30:00Z</time>
      </trkpt>
      <trkpt lat="46.86775" lon="6.12826">
        <ele>836.96</ele>
        <time>2019-06-02T08:30:15Z</time>
      </trkpt>
      <trkpt lat="46.86796" lon="6.12709">
        <ele>839.85</ele>
        <time>2019-06-02T08:30:33Z</time>
      </trkpt>
      <trkpt lat="46.86811" lon="6.1262">
        <ele>842.73</ele>
        <time>2019-06-02T08:30:47Z</time>
      </trkpt>
      <trkpt lat="46.86816" lon="6.12594">
        <ele>844.18</ele>
        <time>2019-06-02T08:30:51Z</time>
      </trkpt>
      <trkpt lat="46.86822" lon="6.12561">
        <ele>845.62</ele>
        <time>2019-06-02T08:30:56Z</time>
      </trkpt>
      <trkpt lat="46.86824" lon="6.12548">
        <ele>846.1</ele>
        <time>2019-06-02T08:30:58Z</time>
      </trkpt>
      <trkpt lat="46.86833" lon="6.12502">
        <ele>848.02</ele>
        <time>2019-06-02T08:31:05Z</time>
      </trkpt>
      <trkpt lat="46.86838" lon="6.12476">
        <ele>848.5</ele>
        <time>2019-06-02T08:31:09Z</time>
      </trkpt>
      <trkpt lat="46.8684" lon="6.12463">
        <ele>848.98</ele>
        <time>2019-06-02T08:31:11Z</time>
      </trkpt>
      <trkpt lat="46.86854" lon="6.12381">
        <ele>850.42</ele>
        <time>2019-06-02T08:31:24Z</time>
      </trkpt>
      <trkpt lat="46.86874" lon="6.12268">
        <ele>851.38</ele>
        <time>2019-06-02T08:31:43Z</time>
      </trkpt>
      <trkpt lat="46.8689" lon="6.12174">
        <ele>851.38</ele>
        <time>2019-06-02T08:32:01Z</time>
      </trkpt>
      <trkpt lat="46.86894" lon="6.12121">
        <ele>851.38</ele>
        <time>2019-06-02T08:32:16Z</time>
      </trkpt>
      <trkpt lat="46.8689" lon="6.12117">
        <ele>851.38</ele>
        <time>2019-06-02T08:32:21Z</time>
      </trkpt>
      <trkpt lat="46.8688" lon="6.12205">
        <ele>851.38</ele>
        <time>2019-06-02T08:32:41Z</time>
      </trkpt>
      <trkpt lat="46.86869" lon="6.12266">
        <ele>851.38</ele>
        <time>2019-06-02T08:32:55Z</time>
      </trkpt>
      <trkpt lat="46.86853" lon="6.12358">
        <ele>850.9</ele>
        <time>2019-06-02T08:33:17Z</time>
      </trkpt>
      <trkpt lat="46.86851" lon="6.12371">
        <ele>850.42</ele>
        <time>2019-06-02T08:33:21Z</time>
      </trkpt>
      <trkpt lat="46.86857" lon="6.12367">
        <ele>850.42</ele>
        <time>2019-06-02T08:33:25Z</time>
      </trkpt>
      <trkpt lat="46.86868" lon="6.12307">
        <ele>850.9</ele>
        <time>2019-06-02T08:33:40Z</time>
      </trkpt>
      <trkpt lat="46.86878" lon="6.12247">
        <ele>851.38</ele>
        <time>2019-06-02T08:33:54Z</time>
      </trkpt>
      <trkpt lat="46.86889" lon="6.12181">
        <ele>851.87</ele>
        <time>2019-06-02T08:34:07Z</time>
      </trkpt>
      <trkpt lat="46.8689" lon="6.12175">
        <ele>851.87</ele>
        <time>2019-06-02T08:34:08Z</time>
      </trkpt>
      <trkpt lat="46.86897" lon="6.12045">
        <ele>850.9</ele>
        <time>2019-06-02T08:34:26Z</time>
      </trkpt>
      <trkpt lat="46.86899" lon="6.11905">
        <ele>847.54</ele>
        <time>2019-06-02T08:34:41Z</time>
      </trkpt>
      <trkpt lat="46.86901" lon="6.11805">
        <ele>844.18</ele>
        <time>2019-06-02T08:34:50Z</time>
      </trkpt>
      <trkpt lat="46.86903" lon="6.11717">
        <ele>841.29</ele>
        <time>2019-06-02T08:34:57Z</time>
      </trkpt>
      <trkpt lat="46.86906" lon="6.11624">
        <ele>837.93</ele>
        <time>2019-06-02T08:35:04Z</time>
      </trkpt>
      <trkpt lat="46.86908" lon="6.11597">
        <ele>837.45</ele>
        <time>2019-06-02T08:35:06Z</time>
      </trkpt>
      <trkpt lat="46.8691" lon="6.11528">
        <ele>834.08</ele>
        <time>2019-06-02T08:35:11Z</time>
      </trkpt>
      <trkpt lat="46.86911" lon="6.11514">
        <ele>833.6</ele>
        <time>2019-06-02T08:35:12Z</time>
      </trkpt>
      <trkpt lat="46.86914" lon="6.11442">
        <ele>831.2</ele>
        <time>2019-06-02T08:35:17Z</time>
      </trkpt>
      <trkpt lat="46.86921" lon="6.11341">
        <ele>827.83</ele>
        <time>2019-06-02T08:35:24Z</time>
      </trkpt>
      <trkpt lat="46.86951" lon="6.11192">
        <ele>826.39</ele>
        <time>2019-06-02T08:35:36Z</time>
      </trkpt>
      <trkpt lat="46.86966" lon="6.11119">
        <ele>828.31</ele>
        <time>2019-06-02T08:35:44Z</time>
      </trkpt>
      <trkpt lat="46.86969" lon="6.11088">
        <ele>828.79</ele>
        <time>2019-06-02T08:35:48Z</time>
      </trkpt>
      <trkpt lat="46.86968" lon="6.1106">
        <ele>829.27</ele>
        <time>2019-06-02T08:35:52Z</time>
      </trkpt>
      <trkpt lat="46.86964" lon="6.11033">
        <ele>829.27</ele>
        <time>2019-06-02T08:35:56Z</time>
      </trkpt>
      <trkpt lat="46.86957" lon="6.10987">
        <ele>828.79</ele>
        <time>2019-06-02T08:36:03Z</time>
      </trkpt>
      <trkpt lat="46.86953" lon="6.10955">
        <ele>828.31</ele>
        <time>2019-06-02T08:36:08Z</time>
      </trkpt>
      <trkpt lat="46.86954" lon="6.10935">
        <ele>827.35</ele>
        <time>2019-06-02T08:36:11Z</time>
      </trkpt>
      <trkpt lat="46.8696" lon="6.10918">
        <ele>826.87</ele>
        <time>2019-06-02T08:36:14Z</time>
      </trkpt>
      <trkpt lat="46.86973" lon="6.10895">
        <ele>826.39</ele>
        <time>2019-06-02T08:36:19Z</time>
      </trkpt>
      <trkpt lat="46.86962" lon="6.10889">
        <ele>826.39</ele>
        <time>2019-06-02T08:36:25Z</time>
      </trkpt>
      <trkpt lat="46.86956" lon="6.10889">
        <ele>826.87</ele>
        <time>2019-06-02T08:36:27Z</time>
      </trkpt>
      <trkpt lat="46.86957" lon="6.10917">
        <ele>827.35</ele>
        <time>2019-06-02T08:36:35Z</time>
      </trkpt>
      <trkpt lat="46.8696" lon="6.10915">
        <ele>827.35</ele>
        <time>2019-06-02T08:36:36Z</time>
      </trkpt>
      <trkpt lat="46.86989" lon="6.10882">
        <ele>826.39</ele>
        <time>2019-06-02T08:36:44Z</time>
      </trkpt>
      <trkpt lat="46.87078" lon="6.10835">
        <ele>823.03</ele>
        <time>2019-06-02T08:36:58Z</time>
      </trkpt>
      <trkpt lat="46.87138" lon="6.10805">
        <ele>820.14</ele>
        <time>2019-06-02T08:37:06Z</time>
      </trkpt>
      <trkpt lat="46.87146" lon="6.10802">
        <ele>819.66</ele>
        <time>2019-06-02T08:37:07Z</time>
      </trkpt>
      <trkpt lat="46.87236" lon="6.10761">
        <ele>816.3</ele>
        <time>2019-06-02T08:37:18Z</time>
      </trkpt>
      <trkpt lat="46.87358" lon="6.10695">
        <ele>817.26</ele>
        <time>2019-06-02T08:37:35Z</time>
      </trkpt>
      <trkpt lat="46.87462" lon="6.10622">
        <ele>817.74</ele>
        <time>2019-06-02T08:37:52Z</time>
      </trkpt>
      <trkpt lat="46.87557" lon="6.10552">
        <ele>818.7</ele>
        <time>2019-06-02T08:38:09Z</time>
      </trkpt>
      <trkpt lat="46.87645" lon="6.10487">
        <ele>820.62</ele>
        <time>2019-06-02T08:38:27Z</time>
      </trkpt>
      <trkpt lat="46.87736" lon="6.10422">
        <ele>819.18</ele>
        <time>2019-06-02T08:38:44Z</time>
      </trkpt>
      <trkpt lat="46.87843" lon="6.10345">
        <ele>819.18</ele>
        <time>2019-06-02T08:39:02Z</time>
      </trkpt>
      <trkpt lat="46.87894" lon="6.10313">
        <ele>819.66</ele>
        <time>2019-06-02T08:39:14Z</time>
      </trkpt>
      <trkpt lat="46.87947" lon="6.10286">
        <ele>818.22</ele>
        <time>2019-06-02T08:39:26Z</time>
      </trkpt>
      <trkpt lat="46.88022" lon="6.10247">
        <ele>817.74</ele>
        <time>2019-06-02T08:39:41Z</time>
      </trkpt>
      <trkpt lat="46.88026" lon="6.10245">
        <ele>817.74</ele>
        <time>2019-06-02T08:39:42Z</time>
      </trkpt>
      <trkpt lat="46.88076" lon="6.10218">
        <ele>819.18</ele>
        <time>2019-06-02T08:39:57Z</time>
      </trkpt>
      <trkpt lat="46.88119" lon="6.10196">
        <ele>819.66</ele>
        <time>2019-06-02T08:40:13Z</time>
      </trkpt>
      <trkpt lat="46.88151" lon="6.10179">
        <ele>819.66</ele>
        <time>2019-06-02T08:40:25Z</time>
      </trkpt>
      <trkpt lat="46.88188" lon="6.1016">
        <ele>819.18</ele>
        <time>2019-06-02T08:40:35Z</time>
      </trkpt>
      <trkpt lat="46.8823" lon="6.10144">
        <ele>819.66</ele>
        <time>2019-06-02T08:40:44Z</time>
      </trkpt>
      <trkpt lat="46.88244" lon="6.1012">
        <ele>819.66</ele>
        <time>2019-06-02T08:40:52Z</time>
      </trkpt>
      <trkpt lat="46.88241" lon="6.10105">
        <ele>818.22</ele>
        <time>2019-06-02T08:41:04Z</time>
      </trkpt>
      <trkpt lat="46.88241" lon="6.10104">
        <ele>818.22</ele>
        <time>2019-06-02T08:41:17Z</time>
      </trkpt>
      <trkpt lat="46.88241" lon="6.10113">
        <ele>817.74</ele>
        <time>2019-06-02T08:48:31Z</time>
      </trkpt>
      <trkpt lat="46.88242" lon="6.10113">
        <ele>817.74</ele>
        <time>2019-06-02T08:48:32Z</time>
      </trkpt>
      <trkpt lat="46.88242" lon="6.10118">
        <ele>817.74</ele>
        <time>2019-06-02T08:48:34Z</time>
      </trkpt>
      <trkpt lat="46.88243" lon="6.10132">
        <ele>818.22</ele>
        <time>2019-06-02T08:48:46Z</time>
      </trkpt>
      <trkpt lat="46.88246" lon="6.10133">
        <ele>818.22</ele>
        <time>2019-06-02T08:49:00Z</time>
      </trkpt>
      <trkpt lat="46.88254" lon="6.10131">
        <ele>818.22</ele>
        <time>2019-06-02T08:49:07Z</time>
      </trkpt>
      <trkpt lat="46.88269" lon="6.10138">
        <ele>818.22</ele>
        <time>2019-06-02T08:49:15Z</time>
      </trkpt>
      <trkpt lat="46.88332" lon="6.10134">
        <ele>817.26</ele>
        <time>2019-06-02T08:49:28Z</time>
      </trkpt>
      <trkpt lat="46.88415" lon="6.10119">
        <ele>816.78</ele>
        <time>2019-06-02T08:49:41Z</time>
      </trkpt>
      <trkpt lat="46.88436" lon="6.10099">
        <ele>816.3</ele>
        <time>2019-06-02T08:49:45Z</time>
      </trkpt>
      <trkpt lat="46.88454" lon="6.1007">
        <ele>816.78</ele>
        <time>2019-06-02T08:49:49Z</time>
      </trkpt>
      <trkpt lat="46.88465" lon="6.10037">
        <ele>815.82</ele>
        <time>2019-06-02T08:49:53Z</time>
      </trkpt>
      <trkpt lat="46.88462" lon="6.09907">
        <ele>813.41</ele>
        <time>2019-06-02T08:50:07Z</time>
      </trkpt>
      <trkpt lat="46.88428" lon="6.09762">
        <ele>810.53</ele>
        <time>2019-06-02T08:50:23Z</time>
      </trkpt>
      <trkpt lat="46.88372" lon="6.09666">
        <ele>810.53</ele>
        <time>2019-06-02T08:50:37Z</time>
      </trkpt>
      <trkpt lat="46.88362" lon="6.09587">
        <ele>808.61</ele>
        <time>2019-06-02T08:50:45Z</time>
      </trkpt>
      <trkpt lat="46.88369" lon="6.09568">
        <ele>808.61</ele>
        <time>2019-06-02T08:50:47Z</time>
      </trkpt>
      <trkpt lat="46.88398" lon="6.09503">
        <ele>809.09</ele>
        <time>2019-06-02T08:50:55Z</time>
      </trkpt>
      <trkpt lat="46.88417" lon="6.09455">
        <ele>811.01</ele>
        <time>2019-06-02T08:51:02Z</time>
      </trkpt>
      <trkpt lat="46.88426" lon="6.09422">
        <ele>811.97</ele>
        <time>2019-06-02T08:51:07Z</time>
      </trkpt>
      <trkpt lat="46.88432" lon="6.09394">
        <ele>812.45</ele>
        <time>2019-06-02T08:51:11Z</time>
      </trkpt>
      <trkpt lat="46.88439" lon="6.0936">
        <ele>812.93</ele>
        <time>2019-06-02T08:51:16Z</time>
      </trkpt>
      <trkpt lat="46.88447" lon="6.09328">
        <ele>814.37</ele>
        <time>2019-06-02T08:51:21Z</time>
      </trkpt>
      <trkpt lat="46.88455" lon="6.09291">
        <ele>815.34</ele>
        <time>2019-06-02T08:51:27Z</time>
      </trkpt>
      <trkpt lat="46.8846" lon="6.09274">
        <ele>816.3</ele>
        <time>2019-06-02T08:51:30Z</time>
      </trkpt>
      <trkpt lat="46.8849" lon="6.09199">
        <ele>819.18</ele>
        <time>2019-06-02T08:51:46Z</time>
      </trkpt>
      <trkpt lat="46.88532" lon="6.09094">
        <ele>817.74</ele>
        <time>2019-06-02T08:52:04Z</time>
      </trkpt>
      <trkpt lat="46.88577" lon="6.08984">
        <ele>814.37</ele>
        <time>2019-06-02T08:52:18Z</time>
      </trkpt>
      <trkpt lat="46.88626" lon="6.0886">
        <ele>811.01</ele>
        <time>2019-06-02T08:52:31Z</time>
      </trkpt>
      <trkpt lat="46.88672" lon="6.08752">
        <ele>811.97</ele>
        <time>2019-06-02T08:52:46Z</time>
      </trkpt>
      <trkpt lat="46.88681" lon="6.08731">
        <ele>812.45</ele>
        <time>2019-06-02T08:52:50Z</time>
      </trkpt>
      <trkpt lat="46.88707" lon="6.08684">
        <ele>813.89</ele>
        <time>2019-06-02T08:53:00Z</time>
      </trkpt>
      <trkpt lat="46.8874" lon="6.08623">
        <ele>815.82</ele>
        <time>2019-06-02T08:53:13Z</time>
      </trkpt>
      <trkpt lat="46.88762" lon="6.08578">
        <ele>817.26</ele>
        <time>2019-06-02T08:53:22Z</time>
      </trkpt>
      <trkpt lat="46.88769" lon="6.08564">
        <ele>817.74</ele>
        <time>2019-06-02T08:53:25Z</time>
      </trkpt>
      <trkpt lat="46.88785" lon="6.0849">
        <ele>820.14</ele>
        <time>2019-06-02T08:53:40Z</time>
      </trkpt>
      <trkpt lat="46.88788" lon="6.08459">
        <ele>820.62</ele>
        <time>2019-06-02T08:53:48Z</time>
      </trkpt>
      <trkpt lat="46.88783" lon="6.08467">
        <ele>820.62</ele>
        <time>2019-06-02T08:53:54Z</time>
      </trkpt>
      <trkpt lat="46.88774" lon="6.08527">
        <ele>819.66</ele>
        <time>2019-06-02T08:54:08Z</time>
      </trkpt>
      <trkpt lat="46.88758" lon="6.08574">
        <ele>817.74</ele>
        <time>2019-06-02T08:54:21Z</time>
      </trkpt>
      <trkpt lat="46.88755" lon="6.0858">
        <ele>817.26</ele>
        <time>2019-06-02T08:54:23Z</time>
      </trkpt>
      <trkpt lat="46.88763" lon="6.0858">
        <ele>817.26</ele>
        <time>2019-06-02T08:54:29Z</time>
      </trkpt>
      <trkpt lat="46.88767" lon="6.08572">
        <ele>817.74</ele>
        <time>2019-06-02T08:54:32Z</time>
      </trkpt>
      <trkpt lat="46.88771" lon="6.08558">
        <ele>818.22</ele>
        <time>2019-06-02T08:54:37Z</time>
      </trkpt>
      <trkpt lat="46.88777" lon="6.08532">
        <ele>819.18</ele>
        <time>2019-06-02T08:54:46Z</time>
      </trkpt>
      <trkpt lat="46.88781" lon="6.08506">
        <ele>819.66</ele>
        <time>2019-06-02T08:54:52Z</time>
      </trkpt>
      <trkpt lat="46.8879" lon="6.08438">
        <ele>820.62</ele>
        <time>2019-06-02T08:55:04Z</time>
      </trkpt>
      <trkpt lat="46.88794" lon="6.08388">
        <ele>821.58</ele>
        <time>2019-06-02T08:55:12Z</time>
      </trkpt>
      <trkpt lat="46.88787" lon="6.08299">
        <ele>822.55</ele>
        <time>2019-06-02T08:55:27Z</time>
      </trkpt>
      <trkpt lat="46.8878" lon="6.08248">
        <ele>822.55</ele>
        <time>2019-06-02T08:55:38Z</time>
      </trkpt>
      <trkpt lat="46.88779" lon="6.08194">
        <ele>820.14</ele>
        <time>2019-06-02T08:55:47Z</time>
      </trkpt>
      <trkpt lat="46.8879" lon="6.08139">
        <ele>818.22</ele>
        <time>2019-06-02T08:55:54Z</time>
      </trkpt>
      <trkpt lat="46.88818" lon="6.08092">
        <ele>816.3</ele>
        <time>2019-06-02T08:56:01Z</time>
      </trkpt>
      <trkpt lat="46.88845" lon="6.08057">
        <ele>816.3</ele>
        <time>2019-06-02T08:56:09Z</time>
      </trkpt>
      <trkpt lat="46.88833" lon="6.0805">
        <ele>816.3</ele>
        <time>2019-06-02T08:56:17Z</time>
      </trkpt>
      <trkpt lat="46.88828" lon="6.0804">
        <ele>816.3</ele>
        <time>2019-06-02T08:56:26Z</time>
      </trkpt>
      <trkpt lat="46.88839" lon="6.08049">
        <ele>816.3</ele>
        <time>2019-06-02T08:56:39Z</time>
      </trkpt>
      <trkpt lat="46.88839" lon="6.08049">
        <ele>816.3</ele>
        <time>2019-06-02T08:57:06Z</time>
      </trkpt>
      <trkpt lat="46.88839" lon="6.08048">
        <ele>816.3</ele>
        <time>2019-06-02T08:57:34Z</time>
      </trkpt>
      <trkpt lat="46.88834" lon="6.08044">
        <ele>815.82</ele>
        <time>2019-06-02T08:57:38Z</time>
      </trkpt>
      <trkpt lat="46.88827" lon="6.08041">
        <ele>815.82</ele>
        <time>2019-06-02T08:57:42Z</time>
      </trkpt>
      <trkpt lat="46.88813" lon="6.08036">
        <ele>816.3</ele>
        <time>2019-06-02T08:57:47Z</time>
      </trkpt>
      <trkpt lat="46.88751" lon="6.07992">
        <ele>816.78</ele>
        <time>2019-06-02T08:58:01Z</time>
      </trkpt>
      <trkpt lat="46.8868" lon="6.07938">
        <ele>816.3</ele>
        <time>2019-06-02T08:58:15Z</time>
      </trkpt>
      <trkpt lat="46.88666" lon="6.07924">
        <ele>816.3</ele>
        <time>2019-06-02T08:58:18Z</time>
      </trkpt>
      <trkpt lat="46.88609" lon="6.07857">
        <ele>816.3</ele>
        <time>2019-06-02T08:58:31Z</time>
      </trkpt>
      <trkpt lat="46.88601" lon="6.07846">
        <ele>816.3</ele>
        <time>2019-06-02T08:58:33Z</time>
      </trkpt>
      <trkpt lat="46.88542" lon="6.07779">
        <ele>816.78</ele>
        <time>2019-06-02T08:58:49Z</time>
      </trkpt>
      <trkpt lat="46.88512" lon="6.07754">
        <ele>816.78</ele>
        <time>2019-06-02T08:59:02Z</time>
      </trkpt>
      <trkpt lat="46.88456" lon="6.07711">
        <ele>816.78</ele>
        <time>2019-06-02T08:59:19Z</time>
      </trkpt>
      <trkpt lat="46.88385" lon="6.07656">
        <ele>817.74</ele>
        <time>2019-06-02T08:59:39Z</time>
      </trkpt>
      <trkpt lat="46.88317" lon="6.07606">
        <ele>817.74</ele>
        <time>2019-06-02T08:59:57Z</time>
      </trkpt>
      <trkpt lat="46.88274" lon="6.07575">
        <ele>818.7</ele>
        <time>2019-06-02T09:00:10Z</time>
      </trkpt>
      <trkpt lat="46.88229" lon="6.07541">
        <ele>819.18</ele>
        <time>2019-06-02T09:00:24Z</time>
      </trkpt>
      <trkpt lat="46.8817" lon="6.07513">
        <ele>819.18</ele>
        <time>2019-06-02T09:00:40Z</time>
      </trkpt>
      <trkpt lat="46.88083" lon="6.07486">
        <ele>819.18</ele>
        <time>2019-06-02T09:00:59Z</time>
      </trkpt>
      <trkpt lat="46.88018" lon="6.07451">
        <ele>819.66</ele>
        <time>2019-06-02T09:01:14Z</time>
      </trkpt>
      <trkpt lat="46.87958" lon="6.07416">
        <ele>819.66</ele>
        <time>2019-06-02T09:01:30Z</time>
      </trkpt>
      <trkpt lat="46.87897" lon="6.07383">
        <ele>820.62</ele>
        <time>2019-06-02T09:01:47Z</time>
      </trkpt>
      <trkpt lat="46.87851" lon="6.07356">
        <ele>821.1</ele>
        <time>2019-06-02T09:02:02Z</time>
      </trkpt>
      <trkpt lat="46.87804" lon="6.07329">
        <ele>821.58</ele>
        <time>2019-06-02T09:02:18Z</time>
      </trkpt>
      <trkpt lat="46.87766" lon="6.07307">
        <ele>823.03</ele>
        <time>2019-06-02T09:02:32Z</time>
      </trkpt>
      <trkpt lat="46.87731" lon="6.07288">
        <ele>824.47</ele>
        <time>2019-06-02T09:02:45Z</time>
      </trkpt>
      <trkpt lat="46.8769" lon="6.07265">
        <ele>825.91</ele>
        <time>2019-06-02T09:02:59Z</time>
      </trkpt>
      <trkpt lat="46.8766" lon="6.07246">
        <ele>826.87</ele>
        <time>2019-06-02T09:03:10Z</time>
      </trkpt>
      <trkpt lat="46.8761" lon="6.07216">
        <ele>827.83</ele>
        <time>2019-06-02T09:03:28Z</time>
      </trkpt>
      <trkpt lat="46.87572" lon="6.07193">
        <ele>829.76</ele>
        <time>2019-06-02T09:03:43Z</time>
      </trkpt>
      <trkpt lat="46.87542" lon="6.07176">
        <ele>830.72</ele>
        <time>2019-06-02T09:03:54Z</time>
      </trkpt>
      <trkpt lat="46.87497" lon="6.07149">
        <ele>832.16</ele>
        <time>2019-06-02T09:04:11Z</time>
      </trkpt>
      <trkpt lat="46.87455" lon="6.0712">
        <ele>833.6</ele>
        <time>2019-06-02T09:04:28Z</time>
      </trkpt>
      <trkpt lat="46.87415" lon="6.07098">
        <ele>835.04</ele>
        <time>2019-06-02T09:04:43Z</time>
      </trkpt>
      <trkpt lat="46.87371" lon="6.0707">
        <ele>836.48</ele>
        <time>2019-06-02T09:04:59Z</time>
      </trkpt>
      <trkpt lat="46.87333" lon="6.07048">
        <ele>837.93</ele>
        <time>2019-06-02T09:05:12Z</time>
      </trkpt>
      <trkpt lat="46.87304" lon="6.07031">
        <ele>838.89</ele>
        <time>2019-06-02T09:05:23Z</time>
      </trkpt>
      <trkpt lat="46.87255" lon="6.07027">
        <ele>840.33</ele>
        <time>2019-06-02T09:05:39Z</time>
      </trkpt>
      <trkpt lat="46.87219" lon="6.07048">
        <ele>841.29</ele>
        <time>2019-06-02T09:05:51Z</time>
      </trkpt>
      <trkpt lat="46.87177" lon="6.07054">
        <ele>842.73</ele>
        <time>2019-06-02T09:06:04Z</time>
      </trkpt>
      <trkpt lat="46.87138" lon="6.07023">
        <ele>844.18</ele>
        <time>2019-06-02T09:06:17Z</time>
      </trkpt>
      <trkpt lat="46.87104" lon="6.06983">
        <ele>846.58</ele>
        <time>2019-06-02T09:06:30Z</time>
      </trkpt>
      <trkpt lat="46.87074" lon="6.06961">
        <ele>847.06</ele>
        <time>2019-06-02T09:06:40Z</time>
      </trkpt>
      <trkpt lat="46.87028" lon="6.06949">
        <ele>847.54</ele>
        <time>2019-06-02T09:06:53Z</time>
      </trkpt>
      <trkpt lat="46.86995" lon="6.06952">
        <ele>846.58</ele>
        <time>2019-06-02T09:07:00Z</time>
      </trkpt>
      <trkpt lat="46.86889" lon="6.06971">
        <ele>844.66</ele>
        <time>2019-06-02T09:07:19Z</time>
      </trkpt>
      <trkpt lat="46.86802" lon="6.06986">
        <ele>843.21</ele>
        <time>2019-06-02T09:07:33Z</time>
      </trkpt>
      <trkpt lat="46.86781" lon="6.06988">
        <ele>842.73</ele>
        <time>2019-06-02T09:07:37Z</time>
      </trkpt>
      <trkpt lat="46.86753" lon="6.06993">
        <ele>842.73</ele>
        <time>2019-06-02T09:07:42Z</time>
      </trkpt>
      <trkpt lat="46.86699" lon="6.06999">
        <ele>841.77</ele>
        <time>2019-06-02T09:07:51Z</time>
      </trkpt>
      <trkpt lat="46.86664" lon="6.06986">
        <ele>840.33</ele>
        <time>2019-06-02T09:07:57Z</time>
      </trkpt>
      <trkpt lat="46.86641" lon="6.06955">
        <ele>839.85</ele>
        <time>2019-06-02T09:08:02Z</time>
      </trkpt>
      <trkpt lat="46.86599" lon="6.06855">
        <ele>836.48</ele>
        <time>2019-06-02T09:08:14Z</time>
      </trkpt>
      <trkpt lat="46.86571" lon="6.06813">
        <ele>835.52</ele>
        <time>2019-06-02T09:08:20Z</time>
      </trkpt>
      <trkpt lat="46.86504" lon="6.06731">
        <ele>832.64</ele>
        <time>2019-06-02T09:08:33Z</time>
      </trkpt>
      <trkpt lat="46.86452" lon="6.06624">
        <ele>829.27</ele>
        <time>2019-06-02T09:08:46Z</time>
      </trkpt>
      <trkpt lat="46.86389" lon="6.06492">
        <ele>825.91</ele>
        <time>2019-06-02T09:09:01Z</time>
      </trkpt>
      <trkpt lat="46.86335" lon="6.06376">
        <ele>823.03</ele>
        <time>2019-06-02T09:09:14Z</time>
      </trkpt>
      <trkpt lat="46.86284" lon="6.06269">
        <ele>820.62</ele>
        <time>2019-06-02T09:09:27Z</time>
      </trkpt>
      <trkpt lat="46.86277" lon="6.06254">
        <ele>820.62</ele>
        <time>2019-06-02T09:09:29Z</time>
      </trkpt>
      <trkpt lat="46.86266" lon="6.06237">
        <ele>820.62</ele>
        <time>2019-06-02T09:09:32Z</time>
      </trkpt>
      <trkpt lat="46.86249" lon="6.06223">
        <ele>821.1</ele>
        <time>2019-06-02T09:09:36Z</time>
      </trkpt>
      <trkpt lat="46.86222" lon="6.06217">
        <ele>822.06</ele>
        <time>2019-06-02T09:09:43Z</time>
      </trkpt>
      <trkpt lat="46.86175" lon="6.06251">
        <ele>822.55</ele>
        <time>2019-06-02T09:09:57Z</time>
      </trkpt>
      <trkpt lat="46.86123" lon="6.06291">
        <ele>820.14</ele>
        <time>2019-06-02T09:10:08Z</time>
      </trkpt>
      <trkpt lat="46.86106" lon="6.06304">
        <ele>819.18</ele>
        <time>2019-06-02T09:10:11Z</time>
      </trkpt>
      <trkpt lat="46.86074" lon="6.06324">
        <ele>818.22</ele>
        <time>2019-06-02T09:10:16Z</time>
      </trkpt>
      <trkpt lat="46.86045" lon="6.06329">
        <ele>817.26</ele>
        <time>2019-06-02T09:10:20Z</time>
      </trkpt>
      <trkpt lat="46.85957" lon="6.0629">
        <ele>815.82</ele>
        <time>2019-06-02T09:10:33Z</time>
      </trkpt>
      <trkpt lat="46.85891" lon="6.06217">
        <ele>815.34</ele>
        <time>2019-06-02T09:10:46Z</time>
      </trkpt>
      <trkpt lat="46.85817" lon="6.06133">
        <ele>814.37</ele>
        <time>2019-06-02T09:11:02Z</time>
      </trkpt>
      <trkpt lat="46.85755" lon="6.06066">
        <ele>813.41</ele>
        <time>2019-06-02T09:11:16Z</time>
      </trkpt>
      <trkpt lat="46.85695" lon="6.06037">
        <ele>813.41</ele>
        <time>2019-06-02T09:11:28Z</time>
      </trkpt>
      <trkpt lat="46.85634" lon="6.06028">
        <ele>814.85</ele>
        <time>2019-06-02T09:11:42Z</time>
      </trkpt>
      <trkpt lat="46.8559" lon="6.06019">
        <ele>816.78</ele>
        <time>2019-06-02T09:11:54Z</time>
      </trkpt>
      <trkpt lat="46.85572" lon="6.06017">
        <ele>817.26</ele>
        <time>2019-06-02T09:12:00Z</time>
      </trkpt>
      <trkpt lat="46.85574" lon="6.06018">
        <ele>817.26</ele>
        <time>2019-06-02T09:12:08Z</time>
      </trkpt>
      <trkpt lat="46.85574" lon="6.06018">
        <ele>817.26</ele>
        <time>2019-06-02T09:12:11Z</time>
      </trkpt>
      <trkpt lat="46.85573" lon="6.06024">
        <ele>816.78</ele>
        <time>2019-06-02T09:12:23Z</time>
      </trkpt>
      <trkpt lat="46.85572" lon="6.06023">
        <ele>816.3</ele>
        <time>2019-06-02T09:12:59Z</time>
      </trkpt>
      <trkpt lat="46.85572" lon="6.06023">
        <ele>816.3</ele>
        <time>2019-06-02T09:13:27Z</time>
      </trkpt>
      <trkpt lat="46.85573" lon="6.06025">
        <ele>816.3</ele>
        <time>2019-06-02T09:13:58Z</time>
      </trkpt>
      <trkpt lat="46.85568" lon="6.06021">
        <ele>816.3</ele>
        <time>2019-06-02T09:14:04Z</time>
      </trkpt>
      <trkpt lat="46.8554" lon="6.0602">
        <ele>817.74</ele>
        <time>2019-06-02T09:14:13Z</time>
      </trkpt>
      <trkpt lat="46.85528" lon="6.06018">
        <ele>818.22</ele>
        <time>2019-06-02T09:14:16Z</time>
      </trkpt>
      <trkpt lat="46.85492" lon="6.06008">
        <ele>819.66</ele>
        <time>2019-06-02T09:14:25Z</time>
      </trkpt>
      <trkpt lat="46.85458" lon="6.06013">
        <ele>821.58</ele>
        <time>2019-06-02T09:14:34Z</time>
      </trkpt>
      <trkpt lat="46.85444" lon="6.06021">
        <ele>822.06</ele>
        <time>2019-06-02T09:14:38Z</time>
      </trkpt>
      <trkpt lat="46.85412" lon="6.06074">
        <ele>823.99</ele>
        <time>2019-06-02T09:14:50Z</time>
      </trkpt>
      <trkpt lat="46.85385" lon="6.06135">
        <ele>825.43</ele>
        <time>2019-06-02T09:15:03Z</time>
      </trkpt>
      <trkpt lat="46.85371" lon="6.06163">
        <ele>826.39</ele>
        <time>2019-06-02T09:15:10Z</time>
      </trkpt>
      <trkpt lat="46.85359" lon="6.06189">
        <ele>825.91</ele>
        <time>2019-06-02T09:15:15Z</time>
      </trkpt>
      <trkpt lat="46.85312" lon="6.06293">
        <ele>824.95</ele>
        <time>2019-06-02T09:15:31Z</time>
      </trkpt>
      <trkpt lat="46.8527" lon="6.0639">
        <ele>825.91</ele>
        <time>2019-06-02T09:15:46Z</time>
      </trkpt>
      <trkpt lat="46.85263" lon="6.06404">
        <ele>826.39</ele>
        <time>2019-06-02T09:15:49Z</time>
      </trkpt>
      <trkpt lat="46.85268" lon="6.0639">
        <ele>826.39</ele>
        <time>2019-06-02T09:15:59Z</time>
      </trkpt>
      <trkpt lat="46.85258" lon="6.06413">
        <ele>826.39</ele>
        <time>2019-06-02T09:16:04Z</time>
      </trkpt>
      <trkpt lat="46.85235" lon="6.06469">
        <ele>827.35</ele>
        <time>2019-06-02T09:16:14Z</time>
      </trkpt>
      <trkpt lat="46.85225" lon="6.06493">
        <ele>827.83</ele>
        <time>2019-06-02T09:16:19Z</time>
      </trkpt>
      <trkpt lat="46.85208" lon="6.06526">
        <ele>828.31</ele>
        <time>2019-06-02T09:16:26Z</time>
      </trkpt>
      <trkpt lat="46.85164" lon="6.06609">
        <ele>829.27</ele>
        <time>2019-06-02T09:16:43Z</time>
      </trkpt>
      <trkpt lat="46.85099" lon="6.06668">
        <ele>830.24</ele>
        <time>2019-06-02T09:17:00Z</time>
      </trkpt>
      <trkpt lat="46.85063" lon="6.06698">
        <ele>830.72</ele>
        <time>2019-06-02T09:17:09Z</time>
      </trkpt>
      <trkpt lat="46.85028" lon="6.06726">
        <ele>831.2</ele>
        <time>2019-06-02T09:17:18Z</time>
      </trkpt>
      <trkpt lat="46.85003" lon="6.06757">
        <ele>830.24</ele>
        <time>2019-06-02T09:17:26Z</time>
      </trkpt>
      <trkpt lat="46.84986" lon="6.0678">
        <ele>829.27</ele>
        <time>2019-06-02T09:17:31Z</time>
      </trkpt>
      <trkpt lat="46.8496" lon="6.06812">
        <ele>827.83</ele>
        <time>2019-06-02T09:17:37Z</time>
      </trkpt>
      <trkpt lat="46.84948" lon="6.0682">
        <ele>827.35</ele>
        <time>2019-06-02T09:17:39Z</time>
      </trkpt>
      <trkpt lat="46.84905" lon="6.06827">
        <ele>825.91</ele>
        <time>2019-06-02T09:17:46Z</time>
      </trkpt>
      <trkpt lat="46.84836" lon="6.06811">
        <ele>823.51</ele>
        <time>2019-06-02T09:17:57Z</time>
      </trkpt>
      <trkpt lat="46.84819" lon="6.06807">
        <ele>823.03</ele>
        <time>2019-06-02T09:18:00Z</time>
      </trkpt>
      <trkpt lat="46.84743" lon="6.06787">
        <ele>821.58</ele>
        <time>2019-06-02T09:18:14Z</time>
      </trkpt>
      <trkpt lat="46.84706" lon="6.06777">
        <ele>822.06</ele>
        <time>2019-06-02T09:18:21Z</time>
      </trkpt>
      <trkpt lat="46.84692" lon="6.06772">
        <ele>822.06</ele>
        <time>2019-06-02T09:18:24Z</time>
      </trkpt>
      <trkpt lat="46.84634" lon="6.06758">
        <ele>823.03</ele>
        <time>2019-06-02T09:18:37Z</time>
      </trkpt>
      <trkpt lat="46.84614" lon="6.0675">
        <ele>823.03</ele>
        <time>2019-06-02T09:18:43Z</time>
      </trkpt>
      <trkpt lat="46.84581" lon="6.06738">
        <ele>823.51</ele>
        <time>2019-06-02T09:18:53Z</time>
      </trkpt>
      <trkpt lat="46.84513" lon="6.06709">
        <ele>824.47</ele>
        <time>2019-06-02T09:19:11Z</time>
      </trkpt>
      <trkpt lat="46.84509" lon="6.06707">
        <ele>824.47</ele>
        <time>2019-06-02T09:19:12Z</time>
      </trkpt>
      <trkpt lat="46.84436" lon="6.06679">
        <ele>827.35</ele>
        <time>2019-06-02T09:19:31Z</time>
      </trkpt>
      <trkpt lat="46.84396" lon="6.0667">
        <ele>828.31</ele>
        <time>2019-06-02T09:19:42Z</time>
      </trkpt>
      <trkpt lat="46.84319" lon="6.06661">
        <ele>827.35</ele>
        <time>2019-06-02T09:19:59Z</time>
      </trkpt>
      <trkpt lat="46.84256" lon="6.06655">
        <ele>827.83</ele>
        <time>2019-06-02T09:20:14Z</time>
      </trkpt>
      <trkpt lat="46.84253" lon="6.06655">
        <ele>827.83</ele>
        <time>2019-06-02T09:20:15Z</time>
      </trkpt>
      <trkpt lat="46.84264" lon="6.06661">
        <ele>827.83</ele>
        <time>2019-06-02T09:20:22Z</time>
      </trkpt>
      <trkpt lat="46.84274" lon="6.06663">
        <ele>827.83</ele>
        <time>2019-06-02T09:20:26Z</time>
      </trkpt>
      <trkpt lat="46.8427" lon="6.06656">
        <ele>827.83</ele>
        <time>2019-06-02T09:20:31Z</time>
      </trkpt>
      <trkpt lat="46.84242" lon="6.06654">
        <ele>827.83</ele>
        <time>2019-06-02T09:20:38Z</time>
      </trkpt>
      <trkpt lat="46.84172" lon="6.06648">
        <ele>828.31</ele>
        <time>2019-06-02T09:20:54Z</time>
      </trkpt>
      <trkpt lat="46.84158" lon="6.06645">
        <ele>828.31</ele>
        <time>2019-06-02T09:20:57Z</time>
      </trkpt>
      <trkpt lat="46.84069" lon="6.06635">
        <ele>828.79</ele>
        <time>2019-06-02T09:21:15Z</time>
      </trkpt>
      <trkpt lat="46.83995" lon="6.06627">
        <ele>828.79</ele>
        <time>2019-06-02T09:21:30Z</time>
      </trkpt>
      <trkpt lat="46.8391" lon="6.06618">
        <ele>830.72</ele>
        <time>2019-06-02T09:21:48Z</time>
      </trkpt>
      <trkpt lat="46.83817" lon="6.0661">
        <ele>831.2</ele>
        <time>2019-06-02T09:22:08Z</time>
      </trkpt>
      <trkpt lat="46.83766" lon="6.06603">
        <ele>831.68</ele>
        <time>2019-06-02T09:22:22Z</time>
      </trkpt>
      <trkpt lat="46.83732" lon="6.06599">
        <ele>832.16</ele>
        <time>2019-06-02T09:22:36Z</time>
      </trkpt>
      <trkpt lat="46.83724" lon="6.06602">
        <ele>831.68</ele>
        <time>2019-06-02T09:22:40Z</time>
      </trkpt>
      <trkpt lat="46.83687" lon="6.06602">
        <ele>830.24</ele>
        <time>2019-06-02T09:22:52Z</time>
      </trkpt>
      <trkpt lat="46.83606" lon="6.06607">
        <ele>828.31</ele>
        <time>2019-06-02T09:23:05Z</time>
      </trkpt>
      <trkpt lat="46.83483" lon="6.0661">
        <ele>826.39</ele>
        <time>2019-06-02T09:23:24Z</time>
      </trkpt>
      <trkpt lat="46.83372" lon="6.06615">
        <ele>824.95</ele>
        <time>2019-06-02T09:23:42Z</time>
      </trkpt>
      <trkpt lat="46.83271" lon="6.06629">
        <ele>824.95</ele>
        <time>2019-06-02T09:23:59Z</time>
      </trkpt>
      <trkpt lat="46.83158" lon="6.06656">
        <ele>824.95</ele>
        <time>2019-06-02T09:24:19Z</time>
      </trkpt>
      <trkpt lat="46.83066" lon="6.06675">
        <ele>824.95</ele>
        <time>2019-06-02T09:24:35Z</time>
      </trkpt>
      <trkpt lat="46.82954" lon="6.067">
        <ele>825.91</ele>
        <time>2019-06-02T09:24:55Z</time>
      </trkpt>
      <trkpt lat="46.82892" lon="6.06734">
        <ele>826.87</ele>
        <time>2019-06-02T09:25:09Z</time>
      </trkpt>
      <trkpt lat="46.82833" lon="6.06782">
        <ele>828.31</ele>
        <time>2019-06-02T09:25:24Z</time>
      </trkpt>
      <trkpt lat="46.82826" lon="6.06789">
        <ele>828.31</ele>
        <time>2019-06-02T09:25:26Z</time>
      </trkpt>
      <trkpt lat="46.82807" lon="6.06804">
        <ele>828.31</ele>
        <time>2019-06-02T09:25:31Z</time>
      </trkpt>
      <trkpt lat="46.82749" lon="6.06851">
        <ele>828.79</ele>
        <time>2019-06-02T09:25:47Z</time>
      </trkpt>
      <trkpt lat="46.82694" lon="6.06887">
        <ele>829.27</ele>
        <time>2019-06-02T09:26:02Z</time>
      </trkpt>
      <trkpt lat="46.82679" lon="6.06897">
        <ele>829.76</ele>
        <time>2019-06-02T09:26:09Z</time>
      </trkpt>
      <trkpt lat="46.82671" lon="6.06899">
        <ele>829.27</ele>
        <time>2019-06-02T09:26:13Z</time>
      </trkpt>
      <trkpt lat="46.82636" lon="6.06916">
        <ele>829.76</ele>
        <time>2019-06-02T09:26:26Z</time>
      </trkpt>
      <trkpt lat="46.82632" lon="6.06921">
        <ele>829.76</ele>
        <time>2019-06-02T09:26:28Z</time>
      </trkpt>
      <trkpt lat="46.82619" lon="6.06924">
        <ele>829.76</ele>
        <time>2019-06-02T09:26:33Z</time>
      </trkpt>
      <trkpt lat="46.82576" lon="6.0694">
        <ele>829.76</ele>
        <time>2019-06-02T09:26:46Z</time>
      </trkpt>
      <trkpt lat="46.82541" lon="6.06956">
        <ele>830.72</ele>
        <time>2019-06-02T09:26:55Z</time>
      </trkpt>
      <trkpt lat="46.82491" lon="6.06977">
        <ele>831.2</ele>
        <time>2019-06-02T09:27:07Z</time>
      </trkpt>
      <trkpt lat="46.82446" lon="6.06995">
        <ele>831.68</ele>
        <time>2019-06-02T09:27:20Z</time>
      </trkpt>
      <trkpt lat="46.82387" lon="6.07021">
        <ele>832.64</ele>
        <time>2019-06-02T09:27:37Z</time>
      </trkpt>
      <trkpt lat="46.82331" lon="6.07045">
        <ele>833.6</ele>
        <time>2019-06-02T09:27:52Z</time>
      </trkpt>
      <trkpt lat="46.82261" lon="6.07075">
        <ele>835.04</ele>
        <time>2019-06-02T09:28:10Z</time>
      </trkpt>
      <trkpt lat="46.82215" lon="6.07094">
        <ele>836</ele>
        <time>2019-06-02T09:28:21Z</time>
      </trkpt>
      <trkpt lat="46.82207" lon="6.07097">
        <ele>836.48</ele>
        <time>2019-06-02T09:28:23Z</time>
      </trkpt>
      <trkpt lat="46.82191" lon="6.07104">
        <ele>836.96</ele>
        <time>2019-06-02T09:28:27Z</time>
      </trkpt>
      <trkpt lat="46.82183" lon="6.07107">
        <ele>836.96</ele>
        <time>2019-06-02T09:28:29Z</time>
      </trkpt>
      <trkpt lat="46.82156" lon="6.07119">
        <ele>837.93</ele>
        <time>2019-06-02T09:28:36Z</time>
      </trkpt>
      <trkpt lat="46.82115" lon="6.07136">
        <ele>838.89</ele>
        <time>2019-06-02T09:28:46Z</time>
      </trkpt>
      <trkpt lat="46.82061" lon="6.07145">
        <ele>841.29</ele>
        <time>2019-06-02T09:29:01Z</time>
      </trkpt>
      <trkpt lat="46.82055" lon="6.0715">
        <ele>841.29</ele>
        <time>2019-06-02T09:29:05Z</time>
      </trkpt>
      <trkpt lat="46.82042" lon="6.07155">
        <ele>841.29</ele>
        <time>2019-06-02T09:29:12Z</time>
      </trkpt>
      <trkpt lat="46.82031" lon="6.07148">
        <ele>840.81</ele>
        <time>2019-06-02T09:29:21Z</time>
      </trkpt>
      <trkpt lat="46.8203" lon="6.07153">
        <ele>840.81</ele>
        <time>2019-06-02T09:29:34Z</time>
      </trkpt>
      <trkpt lat="46.8203" lon="6.07153">
        <ele>840.81</ele>
        <time>2019-06-02T09:29:50Z</time>
      </trkpt>
      <trkpt lat="46.82009" lon="6.07164">
        <ele>840.81</ele>
        <time>2019-06-02T09:29:58Z</time>
      </trkpt>
      <trkpt lat="46.81933" lon="6.07168">
        <ele>839.85</ele>
        <time>2019-06-02T09:30:15Z</time>
      </trkpt>
      <trkpt lat="46.81843" lon="6.07169">
        <ele>838.89</ele>
        <time>2019-06-02T09:30:32Z</time>
      </trkpt>
      <trkpt lat="46.81733" lon="6.07172">
        <ele>836.96</ele>
        <time>2019-06-02T09:30:51Z</time>
      </trkpt>
      <trkpt lat="46.81691" lon="6.07174">
        <ele>836</ele>
        <time>2019-06-02T09:30:58Z</time>
      </trkpt>
      <trkpt lat="46.81666" lon="6.0717">
        <ele>835.52</ele>
        <time>2019-06-02T09:31:02Z</time>
      </trkpt>
      <trkpt lat="46.81608" lon="6.07111">
        <ele>833.6</ele>
        <time>2019-06-02T09:31:13Z</time>
      </trkpt>
      <trkpt lat="46.816" lon="6.07097">
        <ele>833.6</ele>
        <time>2019-06-02T09:31:15Z</time>
      </trkpt>
      <trkpt lat="46.81531" lon="6.06983">
        <ele>830.72</ele>
        <time>2019-06-02T09:31:31Z</time>
      </trkpt>
      <trkpt lat="46.81514" lon="6.06953">
        <ele>830.24</ele>
        <time>2019-06-02T09:31:35Z</time>
      </trkpt>
      <trkpt lat="46.81463" lon="6.06832">
        <ele>827.83</ele>
        <time>2019-06-02T09:31:50Z</time>
      </trkpt>
      <trkpt lat="46.8146" lon="6.06824">
        <ele>827.35</ele>
        <time>2019-06-02T09:31:51Z</time>
      </trkpt>
      <trkpt lat="46.81446" lon="6.06805">
        <ele>827.35</ele>
        <time>2019-06-02T09:31:54Z</time>
      </trkpt>
      <trkpt lat="46.81429" lon="6.06785">
        <ele>826.87</ele>
        <time>2019-06-02T09:31:58Z</time>
      </trkpt>
      <trkpt lat="46.81417" lon="6.06771">
        <ele>826.39</ele>
        <time>2019-06-02T09:32:03Z</time>
      </trkpt>
      <trkpt lat="46.81414" lon="6.06768">
        <ele>826.87</ele>
        <time>2019-06-02T09:32:14Z</time>
      </trkpt>
      <trkpt lat="46.81414" lon="6.06768">
        <ele>826.87</ele>
        <time>2019-06-02T09:32:27Z</time>
      </trkpt>
      <trkpt lat="46.81414" lon="6.06768">
        <ele>825.43</ele>
        <time>2019-06-02T09:32:31Z</time>
      </trkpt>
      <trkpt lat="46.8138" lon="6.06777">
        <ele>825.43</ele>
        <time>2019-06-02T09:43:09Z</time>
      </trkpt>
      <trkpt lat="46.81381" lon="6.0678">
        <ele>825.43</ele>
        <time>2019-06-02T09:43:10Z</time>
      </trkpt>
      <trkpt lat="46.81398" lon="6.06803">
        <ele>824.95</ele>
        <time>2019-06-02T09:43:20Z</time>
      </trkpt>
      <trkpt lat="46.81395" lon="6.06813">
        <ele>824.95</ele>
        <time>2019-06-02T09:43:25Z</time>
      </trkpt>
      <trkpt lat="46.81395" lon="6.06819">
        <ele>824.95</ele>
        <time>2019-06-02T09:43:27Z</time>
      </trkpt>
      <trkpt lat="46.81394" lon="6.06836">
        <ele>825.43</ele>
        <time>2019-06-02T09:43:35Z</time>
      </trkpt>
      <trkpt lat="46.81372" lon="6.06878">
        <ele>826.87</ele>
        <time>2019-06-02T09:43:47Z</time>
      </trkpt>
      <trkpt lat="46.81354" lon="6.06937">
        <ele>829.27</ele>
        <time>2019-06-02T09:44:00Z</time>
      </trkpt>
      <trkpt lat="46.81339" lon="6.06984">
        <ele>831.2</ele>
        <time>2019-06-02T09:44:12Z</time>
      </trkpt>
      <trkpt lat="46.81325" lon="6.07029">
        <ele>833.6</ele>
        <time>2019-06-02T09:44:24Z</time>
      </trkpt>
      <trkpt lat="46.81308" lon="6.07088">
        <ele>836</ele>
        <time>2019-06-02T09:44:38Z</time>
      </trkpt>
      <trkpt lat="46.81287" lon="6.07172">
        <ele>837.45</ele>
        <time>2019-06-02T09:44:55Z</time>
      </trkpt>
      <trkpt lat="46.81272" lon="6.07256">
        <ele>836.96</ele>
        <time>2019-06-02T09:45:09Z</time>
      </trkpt>
      <trkpt lat="46.81252" lon="6.07378">
        <ele>833.6</ele>
        <time>2019-06-02T09:45:22Z</time>
      </trkpt>
      <trkpt lat="46.81221" lon="6.07541">
        <ele>832.16</ele>
        <time>2019-06-02T09:45:38Z</time>
      </trkpt>
      <trkpt lat="46.81182" lon="6.07727">
        <ele>833.6</ele>
        <time>2019-06-02T09:46:00Z</time>
      </trkpt>
      <trkpt lat="46.8116" lon="6.07825">
        <ele>833.6</ele>
        <time>2019-06-02T09:46:15Z</time>
      </trkpt>
      <trkpt lat="46.81135" lon="6.07943">
        <ele>831.68</ele>
        <time>2019-06-02T09:46:34Z</time>
      </trkpt>
      <trkpt lat="46.81119" lon="6.08024">
        <ele>829.27</ele>
        <time>2019-06-02T09:46:43Z</time>
      </trkpt>
      <trkpt lat="46.81089" lon="6.08161">
        <ele>825.91</ele>
        <time>2019-06-02T09:46:56Z</time>
      </trkpt>
      <trkpt lat="46.81049" lon="6.08289">
        <ele>826.39</ele>
        <time>2019-06-02T09:47:10Z</time>
      </trkpt>
      <trkpt lat="46.81003" lon="6.08377">
        <ele>829.27</ele>
        <time>2019-06-02T09:47:24Z</time>
      </trkpt>
      <trkpt lat="46.80949" lon="6.08463">
        <ele>832.64</ele>
        <time>2019-06-02T09:47:41Z</time>
      </trkpt>
      <trkpt lat="46.80916" lon="6.08532">
        <ele>833.6</ele>
        <time>2019-06-02T09:47:53Z</time>
      </trkpt>
      <trkpt lat="46.80875" lon="6.08653">
        <ele>835.04</ele>
        <time>2019-06-02T09:48:11Z</time>
      </trkpt>
      <trkpt lat="46.80847" lon="6.08742">
        <ele>837.93</ele>
        <time>2019-06-02T09:48:25Z</time>
      </trkpt>
      <trkpt lat="46.80835" lon="6.08778">
        <ele>838.89</ele>
        <time>2019-06-02T09:48:31Z</time>
      </trkpt>
      <trkpt lat="46.80802" lon="6.0888">
        <ele>841.29</ele>
        <time>2019-06-02T09:48:48Z</time>
      </trkpt>
      <trkpt lat="46.8076" lon="6.09009">
        <ele>841.77</ele>
        <time>2019-06-02T09:49:08Z</time>
      </trkpt>
      <trkpt lat="46.80724" lon="6.0912">
        <ele>843.21</ele>
        <time>2019-06-02T09:49:24Z</time>
      </trkpt>
      <trkpt lat="46.807" lon="6.092">
        <ele>846.1</ele>
        <time>2019-06-02T09:49:38Z</time>
      </trkpt>
      <trkpt lat="46.80692" lon="6.0922">
        <ele>847.06</ele>
        <time>2019-06-02T09:49:44Z</time>
      </trkpt>
      <trkpt lat="46.80691" lon="6.09228">
        <ele>847.54</ele>
        <time>2019-06-02T09:49:48Z</time>
      </trkpt>
      <trkpt lat="46.80682" lon="6.09263">
        <ele>848.5</ele>
        <time>2019-06-02T09:50:01Z</time>
      </trkpt>
      <trkpt lat="46.80667" lon="6.09321">
        <ele>849.94</ele>
        <time>2019-06-02T09:50:18Z</time>
      </trkpt>
      <trkpt lat="46.80655" lon="6.09371">
        <ele>851.38</ele>
        <time>2019-06-02T09:50:32Z</time>
      </trkpt>
      <trkpt lat="46.80641" lon="6.0942">
        <ele>853.31</ele>
        <time>2019-06-02T09:50:48Z</time>
      </trkpt>
      <trkpt lat="46.80641" lon="6.09423">
        <ele>853.31</ele>
        <time>2019-06-02T09:50:49Z</time>
      </trkpt>
      <trkpt lat="46.80649" lon="6.0941">
        <ele>853.31</ele>
        <time>2019-06-02T09:50:56Z</time>
      </trkpt>
      <trkpt lat="46.80654" lon="6.09394">
        <ele>852.83</ele>
        <time>2019-06-02T09:50:59Z</time>
      </trkpt>
      <trkpt lat="46.80671" lon="6.09328">
        <ele>849.94</ele>
        <time>2019-06-02T09:51:13Z</time>
      </trkpt>
      <trkpt lat="46.80679" lon="6.09297">
        <ele>849.46</ele>
        <time>2019-06-02T09:51:22Z</time>
      </trkpt>
      <trkpt lat="46.80673" lon="6.09298">
        <ele>849.46</ele>
        <time>2019-06-02T09:51:27Z</time>
      </trkpt>
      <trkpt lat="46.80654" lon="6.09375">
        <ele>851.38</ele>
        <time>2019-06-02T09:51:43Z</time>
      </trkpt>
      <trkpt lat="46.80639" lon="6.09426">
        <ele>853.31</ele>
        <time>2019-06-02T09:51:55Z</time>
      </trkpt>
      <trkpt lat="46.80628" lon="6.09467">
        <ele>855.71</ele>
        <time>2019-06-02T09:52:09Z</time>
      </trkpt>
      <trkpt lat="46.80621" lon="6.09498">
        <ele>857.15</ele>
        <time>2019-06-02T09:52:20Z</time>
      </trkpt>
      <trkpt lat="46.80608" lon="6.09542">
        <ele>859.56</ele>
        <time>2019-06-02T09:52:33Z</time>
      </trkpt>
      <trkpt lat="46.80591" lon="6.09599">
        <ele>862.44</ele>
        <time>2019-06-02T09:52:48Z</time>
      </trkpt>
      <trkpt lat="46.80563" lon="6.09661">
        <ele>865.32</ele>
        <time>2019-06-02T09:53:04Z</time>
      </trkpt>
      <trkpt lat="46.80532" lon="6.09711">
        <ele>867.73</ele>
        <time>2019-06-02T09:53:17Z</time>
      </trkpt>
      <trkpt lat="46.80485" lon="6.09769">
        <ele>870.61</ele>
        <time>2019-06-02T09:53:32Z</time>
      </trkpt>
      <trkpt lat="46.80472" lon="6.09785">
        <ele>871.09</ele>
        <time>2019-06-02T09:53:36Z</time>
      </trkpt>
      <trkpt lat="46.80418" lon="6.09847">
        <ele>873.5</ele>
        <time>2019-06-02T09:53:52Z</time>
      </trkpt>
      <trkpt lat="46.80375" lon="6.099">
        <ele>874.46</ele>
        <time>2019-06-02T09:54:08Z</time>
      </trkpt>
      <trkpt lat="46.80342" lon="6.09954">
        <ele>874.46</ele>
        <time>2019-06-02T09:54:26Z</time>
      </trkpt>
      <trkpt lat="46.80334" lon="6.09974">
        <ele>873.98</ele>
        <time>2019-06-02T09:54:32Z</time>
      </trkpt>
      <trkpt lat="46.80327" lon="6.09983">
        <ele>873.98</ele>
        <time>2019-06-02T09:54:38Z</time>
      </trkpt>
      <trkpt lat="46.80325" lon="6.09984">
        <ele>873.98</ele>
        <time>2019-06-02T09:54:40Z</time>
      </trkpt>
      <trkpt lat="46.80323" lon="6.09986">
        <ele>873.98</ele>
        <time>2019-06-02T09:54:42Z</time>
      </trkpt>
      <trkpt lat="46.80327" lon="6.09981">
        <ele>873.98</ele>
        <time>2019-06-02T09:54:49Z</time>
      </trkpt>
      <trkpt lat="46.80328" lon="6.0998">
        <ele>873.98</ele>
        <time>2019-06-02T09:54:50Z</time>
      </trkpt>
      <trkpt lat="46.8033" lon="6.09976">
        <ele>873.98</ele>
        <time>2019-06-02T09:54:53Z</time>
      </trkpt>
      <trkpt lat="46.80327" lon="6.09982">
        <ele>873.98</ele>
        <time>2019-06-02T09:55:01Z</time>
      </trkpt>
      <trkpt lat="46.8033" lon="6.09982">
        <ele>874.46</ele>
        <time>2019-06-02T09:55:05Z</time>
      </trkpt>
      <trkpt lat="46.8033" lon="6.09977">
        <ele>873.98</ele>
        <time>2019-06-02T09:55:07Z</time>
      </trkpt>
      <trkpt lat="46.80333" lon="6.09981">
        <ele>874.46</ele>
        <time>2019-06-02T09:55:12Z</time>
      </trkpt>
      <trkpt lat="46.80313" lon="6.10044">
        <ele>873.01</ele>
        <time>2019-06-02T09:55:24Z</time>
      </trkpt>
      <trkpt lat="46.80305" lon="6.10161">
        <ele>869.65</ele>
        <time>2019-06-02T09:55:35Z</time>
      </trkpt>
      <trkpt lat="46.80311" lon="6.10381">
        <ele>868.21</ele>
        <time>2019-06-02T09:55:53Z</time>
      </trkpt>
      <trkpt lat="46.80314" lon="6.10509">
        <ele>870.61</ele>
        <time>2019-06-02T09:56:08Z</time>
      </trkpt>
      <trkpt lat="46.80313" lon="6.10653">
        <ele>872.53</ele>
        <time>2019-06-02T09:56:27Z</time>
      </trkpt>
      <trkpt lat="46.80311" lon="6.10789">
        <ele>874.94</ele>
        <time>2019-06-02T09:56:46Z</time>
      </trkpt>
      <trkpt lat="46.80308" lon="6.10963">
        <ele>875.9</ele>
        <time>2019-06-02T09:57:07Z</time>
      </trkpt>
      <trkpt lat="46.80308" lon="6.11049">
        <ele>879.26</ele>
        <time>2019-06-02T09:57:19Z</time>
      </trkpt>
      <trkpt lat="46.80307" lon="6.11191">
        <ele>881.19</ele>
        <time>2019-06-02T09:57:40Z</time>
      </trkpt>
      <trkpt lat="46.80304" lon="6.11341">
        <ele>883.59</ele>
        <time>2019-06-02T09:58:00Z</time>
      </trkpt>
      <trkpt lat="46.80303" lon="6.11402">
        <ele>883.59</ele>
        <time>2019-06-02T09:58:10Z</time>
      </trkpt>
      <trkpt lat="46.80302" lon="6.11533">
        <ele>881.19</ele>
        <time>2019-06-02T09:58:26Z</time>
      </trkpt>
      <trkpt lat="46.80301" lon="6.11585">
        <ele>881.67</ele>
        <time>2019-06-02T09:58:33Z</time>
      </trkpt>
      <trkpt lat="46.8029" lon="6.11613">
        <ele>881.67</ele>
        <time>2019-06-02T09:58:41Z</time>
      </trkpt>
      <trkpt lat="46.803" lon="6.11632">
        <ele>881.19</ele>
        <time>2019-06-02T09:58:49Z</time>
      </trkpt>
      <trkpt lat="46.803" lon="6.11633">
        <ele>881.19</ele>
        <time>2019-06-02T09:58:50Z</time>
      </trkpt>
      <trkpt lat="46.80301" lon="6.11679">
        <ele>880.71</ele>
        <time>2019-06-02T09:59:09Z</time>
      </trkpt>
      <trkpt lat="46.80301" lon="6.11724">
        <ele>879.26</ele>
        <time>2019-06-02T09:59:20Z</time>
      </trkpt>
      <trkpt lat="46.80298" lon="6.11879">
        <ele>876.38</ele>
        <time>2019-06-02T09:59:36Z</time>
      </trkpt>
      <trkpt lat="46.80297" lon="6.12003">
        <ele>873.01</ele>
        <time>2019-06-02T09:59:46Z</time>
      </trkpt>
      <trkpt lat="46.80298" lon="6.12157">
        <ele>873.01</ele>
        <time>2019-06-02T10:00:00Z</time>
      </trkpt>
      <trkpt lat="46.80301" lon="6.12262">
        <ele>873.5</ele>
        <time>2019-06-02T10:00:13Z</time>
      </trkpt>
      <trkpt lat="46.80305" lon="6.12397">
        <ele>870.61</ele>
        <time>2019-06-02T10:00:25Z</time>
      </trkpt>
      <trkpt lat="46.8031" lon="6.12561">
        <ele>872.53</ele>
        <time>2019-06-02T10:00:41Z</time>
      </trkpt>
      <trkpt lat="46.80313" lon="6.12684">
        <ele>873.5</ele>
        <time>2019-06-02T10:00:57Z</time>
      </trkpt>
      <trkpt lat="46.80317" lon="6.12818">
        <ele>874.46</ele>
        <time>2019-06-02T10:01:14Z</time>
      </trkpt>
      <trkpt lat="46.80322" lon="6.12954">
        <ele>873.98</ele>
        <time>2019-06-02T10:01:31Z</time>
      </trkpt>
      <trkpt lat="46.80326" lon="6.13105">
        <ele>874.46</ele>
        <time>2019-06-02T10:01:49Z</time>
      </trkpt>
      <trkpt lat="46.8033" lon="6.13217">
        <ele>875.9</ele>
        <time>2019-06-02T10:02:04Z</time>
      </trkpt>
      <trkpt lat="46.80334" lon="6.13338">
        <ele>874.94</ele>
        <time>2019-06-02T10:02:20Z</time>
      </trkpt>
      <trkpt lat="46.80337" lon="6.13447">
        <ele>871.57</ele>
        <time>2019-06-02T10:02:29Z</time>
      </trkpt>
      <trkpt lat="46.80342" lon="6.13571">
        <ele>868.21</ele>
        <time>2019-06-02T10:02:38Z</time>
      </trkpt>
      <trkpt lat="46.80347" lon="6.13771">
        <ele>867.25</ele>
        <time>2019-06-02T10:02:54Z</time>
      </trkpt>
      <trkpt lat="46.8035" lon="6.13894">
        <ele>867.73</ele>
        <time>2019-06-02T10:03:07Z</time>
      </trkpt>
      <trkpt lat="46.8035" lon="6.13919">
        <ele>868.21</ele>
        <time>2019-06-02T10:03:10Z</time>
      </trkpt>
      <trkpt lat="46.8035" lon="6.14026">
        <ele>867.73</ele>
        <time>2019-06-02T10:03:24Z</time>
      </trkpt>
      <trkpt lat="46.80361" lon="6.14171">
        <ele>865.8</ele>
        <time>2019-06-02T10:03:39Z</time>
      </trkpt>
      <trkpt lat="46.80376" lon="6.14359">
        <ele>863.88</ele>
        <time>2019-06-02T10:03:57Z</time>
      </trkpt>
      <trkpt lat="46.80387" lon="6.14513">
        <ele>862.92</ele>
        <time>2019-06-02T10:04:14Z</time>
      </trkpt>
      <trkpt lat="46.804" lon="6.14624">
        <ele>860.52</ele>
        <time>2019-06-02T10:04:24Z</time>
      </trkpt>
      <trkpt lat="46.80408" lon="6.14705">
        <ele>857.63</ele>
        <time>2019-06-02T10:04:30Z</time>
      </trkpt>
      <trkpt lat="46.80429" lon="6.14899">
        <ele>856.67</ele>
        <time>2019-06-02T10:04:45Z</time>
      </trkpt>
      <trkpt lat="46.8044" lon="6.14995">
        <ele>858.11</ele>
        <time>2019-06-02T10:04:56Z</time>
      </trkpt>
      <trkpt lat="46.80452" lon="6.151">
        <ele>856.19</ele>
        <time>2019-06-02T10:05:07Z</time>
      </trkpt>
      <trkpt lat="46.80453" lon="6.1511">
        <ele>856.19</ele>
        <time>2019-06-02T10:05:08Z</time>
      </trkpt>
      <trkpt lat="46.80459" lon="6.15156">
        <ele>854.75</ele>
        <time>2019-06-02T10:05:12Z</time>
      </trkpt>
      <trkpt lat="46.80471" lon="6.15269">
        <ele>851.38</ele>
        <time>2019-06-02T10:05:21Z</time>
      </trkpt>
      <trkpt lat="46.80475" lon="6.15326">
        <ele>849.46</ele>
        <time>2019-06-02T10:05:25Z</time>
      </trkpt>
      <trkpt lat="46.80496" lon="6.15559">
        <ele>848.5</ele>
        <time>2019-06-02T10:05:42Z</time>
      </trkpt>
      <trkpt lat="46.80514" lon="6.15739">
        <ele>848.98</ele>
        <time>2019-06-02T10:05:59Z</time>
      </trkpt>
      <trkpt lat="46.80533" lon="6.15924">
        <ele>848.98</ele>
        <time>2019-06-02T10:06:18Z</time>
      </trkpt>
      <trkpt lat="46.80549" lon="6.16088">
        <ele>849.46</ele>
        <time>2019-06-02T10:06:36Z</time>
      </trkpt>
      <trkpt lat="46.80564" lon="6.16237">
        <ele>849.94</ele>
        <time>2019-06-02T10:06:54Z</time>
      </trkpt>
      <trkpt lat="46.80565" lon="6.16251">
        <ele>850.42</ele>
        <time>2019-06-02T10:06:56Z</time>
      </trkpt>
      <trkpt lat="46.80575" lon="6.16342">
        <ele>852.83</ele>
        <time>2019-06-02T10:07:11Z</time>
      </trkpt>
      <trkpt lat="46.8058" lon="6.16418">
        <ele>854.75</ele>
        <time>2019-06-02T10:07:25Z</time>
      </trkpt>
      <trkpt lat="46.80589" lon="6.16543">
        <ele>855.71</ele>
        <time>2019-06-02T10:07:44Z</time>
      </trkpt>
      <trkpt lat="46.80598" lon="6.16688">
        <ele>853.31</ele>
        <time>2019-06-02T10:08:01Z</time>
      </trkpt>
      <trkpt lat="46.80603" lon="6.16791">
        <ele>850.9</ele>
        <time>2019-06-02T10:08:10Z</time>
      </trkpt>
      <trkpt lat="46.80613" lon="6.17007">
        <ele>849.46</ele>
        <time>2019-06-02T10:08:29Z</time>
      </trkpt>
      <trkpt lat="46.8062" lon="6.1715">
        <ele>850.42</ele>
        <time>2019-06-02T10:08:45Z</time>
      </trkpt>
      <trkpt lat="46.80627" lon="6.17292">
        <ele>849.94</ele>
        <time>2019-06-02T10:09:02Z</time>
      </trkpt>
      <trkpt lat="46.80637" lon="6.17466">
        <ele>849.46</ele>
        <time>2019-06-02T10:09:22Z</time>
      </trkpt>
      <trkpt lat="46.80644" lon="6.17578">
        <ele>850.9</ele>
        <time>2019-06-02T10:09:38Z</time>
      </trkpt>
      <trkpt lat="46.80645" lon="6.17648">
        <ele>852.83</ele>
        <time>2019-06-02T10:09:51Z</time>
      </trkpt>
      <trkpt lat="46.80651" lon="6.17708">
        <ele>853.79</ele>
        <time>2019-06-02T10:10:04Z</time>
      </trkpt>
      <trkpt lat="46.80656" lon="6.17765">
        <ele>855.23</ele>
        <time>2019-06-02T10:10:17Z</time>
      </trkpt>
      <trkpt lat="46.80659" lon="6.17812">
        <ele>856.67</ele>
        <time>2019-06-02T10:10:29Z</time>
      </trkpt>
      <trkpt lat="46.80662" lon="6.17868">
        <ele>859.08</ele>
        <time>2019-06-02T10:10:44Z</time>
      </trkpt>
      <trkpt lat="46.80667" lon="6.1793">
        <ele>859.08</ele>
        <time>2019-06-02T10:10:57Z</time>
      </trkpt>
      <trkpt lat="46.80671" lon="6.18001">
        <ele>858.11</ele>
        <time>2019-06-02T10:11:07Z</time>
      </trkpt>
      <trkpt lat="46.80678" lon="6.18082">
        <ele>856.67</ele>
        <time>2019-06-02T10:11:16Z</time>
      </trkpt>
      <trkpt lat="46.80694" lon="6.18162">
        <ele>856.19</ele>
        <time>2019-06-02T10:11:26Z</time>
      </trkpt>
      <trkpt lat="46.80713" lon="6.18231">
        <ele>856.19</ele>
        <time>2019-06-02T10:11:39Z</time>
      </trkpt>
      <trkpt lat="46.80733" lon="6.18301">
        <ele>856.19</ele>
        <time>2019-06-02T10:11:53Z</time>
      </trkpt>
      <trkpt lat="46.80764" lon="6.18361">
        <ele>856.67</ele>
        <time>2019-06-02T10:12:08Z</time>
      </trkpt>
      <trkpt lat="46.80795" lon="6.18387">
        <ele>854.75</ele>
        <time>2019-06-02T10:12:19Z</time>
      </trkpt>
      <trkpt lat="46.80804" lon="6.18394">
        <ele>853.79</ele>
        <time>2019-06-02T10:12:23Z</time>
      </trkpt>
      <trkpt lat="46.80814" lon="6.18404">
        <ele>853.31</ele>
        <time>2019-06-02T10:12:28Z</time>
      </trkpt>
      <trkpt lat="46.80819" lon="6.18415">
        <ele>852.83</ele>
        <time>2019-06-02T10:12:34Z</time>
      </trkpt>
      <trkpt lat="46.80818" lon="6.18431">
        <ele>851.38</ele>
        <time>2019-06-02T10:12:41Z</time>
      </trkpt>
      <trkpt lat="46.8081" lon="6.1841">
        <ele>852.35</ele>
        <time>2019-06-02T10:12:51Z</time>
      </trkpt>
      <trkpt lat="46.80805" lon="6.18409">
        <ele>852.35</ele>
        <time>2019-06-02T10:12:58Z</time>
      </trkpt>
      <trkpt lat="46.80805" lon="6.18409">
        <ele>852.35</ele>
        <time>2019-06-02T10:13:02Z</time>
      </trkpt>
      <trkpt lat="46.80816" lon="6.18408">
        <ele>852.35</ele>
        <time>2019-06-02T10:27:58Z</time>
      </trkpt>
      <trkpt lat="46.80816" lon="6.18405">
        <ele>852.35</ele>
        <time>2019-06-02T10:27:59Z</time>
      </trkpt>
      <trkpt lat="46.80808" lon="6.18411">
        <ele>853.31</ele>
        <time>2019-06-02T10:28:11Z</time>
      </trkpt>
      <trkpt lat="46.80812" lon="6.18425">
        <ele>852.83</ele>
        <time>2019-06-02T10:28:17Z</time>
      </trkpt>
      <trkpt lat="46.80833" lon="6.18428">
        <ele>852.35</ele>
        <time>2019-06-02T10:28:25Z</time>
      </trkpt>
      <trkpt lat="46.80829" lon="6.18414">
        <ele>853.31</ele>
        <time>2019-06-02T10:28:32Z</time>
      </trkpt>
      <trkpt lat="46.80805" lon="6.1839">
        <ele>854.27</ele>
        <time>2019-06-02T10:28:44Z</time>
      </trkpt>
      <trkpt lat="46.80787" lon="6.18373">
        <ele>856.19</ele>
        <time>2019-06-02T10:28:54Z</time>
      </trkpt>
      <trkpt lat="46.80778" lon="6.18366">
        <ele>857.15</ele>
        <time>2019-06-02T10:28:59Z</time>
      </trkpt>
      <trkpt lat="46.80749" lon="6.18335">
        <ele>857.63</ele>
        <time>2019-06-02T10:29:11Z</time>
      </trkpt>
      <trkpt lat="46.80728" lon="6.18294">
        <ele>857.15</ele>
        <time>2019-06-02T10:29:22Z</time>
      </trkpt>
      <trkpt lat="46.80727" lon="6.18288">
        <ele>857.63</ele>
        <time>2019-06-02T10:29:24Z</time>
      </trkpt>
      <trkpt lat="46.80722" lon="6.18283">
        <ele>857.15</ele>
        <time>2019-06-02T10:29:36Z</time>
      </trkpt>
      <trkpt lat="46.80717" lon="6.18286">
        <ele>857.63</ele>
        <time>2019-06-02T10:29:46Z</time>
      </trkpt>
      <trkpt lat="46.80717" lon="6.18286">
        <ele>856.67</ele>
        <time>2019-06-02T10:29:51Z</time>
      </trkpt>
      <trkpt lat="46.8072" lon="6.1829">
        <ele>857.63</ele>
        <time>2019-06-02T10:59:04Z</time>
      </trkpt>
      <trkpt lat="46.80719" lon="6.18287">
        <ele>857.63</ele>
        <time>2019-06-02T10:59:05Z</time>
      </trkpt>
      <trkpt lat="46.80718" lon="6.18289">
        <ele>861</ele>
        <time>2019-06-02T10:59:24Z</time>
      </trkpt>
      <trkpt lat="46.80726" lon="6.18287">
        <ele>861.48</ele>
        <time>2019-06-02T10:59:34Z</time>
      </trkpt>
      <trkpt lat="46.80728" lon="6.1827">
        <ele>861</ele>
        <time>2019-06-02T10:59:40Z</time>
      </trkpt>
      <trkpt lat="46.80713" lon="6.18216">
        <ele>861.48</ele>
        <time>2019-06-02T10:59:56Z</time>
      </trkpt>
      <trkpt lat="46.80698" lon="6.18165">
        <ele>861.48</ele>
        <time>2019-06-02T11:00:09Z</time>
      </trkpt>
      <trkpt lat="46.80684" lon="6.18105">
        <ele>861.48</ele>
        <time>2019-06-02T11:00:21Z</time>
      </trkpt>
      <trkpt lat="46.8066" lon="6.18088">
        <ele>861.96</ele>
        <time>2019-06-02T11:00:30Z</time>
      </trkpt>
      <trkpt lat="46.80634" lon="6.18099">
        <ele>861.96</ele>
        <time>2019-06-02T11:00:40Z</time>
      </trkpt>
      <trkpt lat="46.80612" lon="6.1811">
        <ele>862.44</ele>
        <time>2019-06-02T11:00:51Z</time>
      </trkpt>
      <trkpt lat="46.80609" lon="6.18113">
        <ele>862.44</ele>
        <time>2019-06-02T11:00:53Z</time>
      </trkpt>
      <trkpt lat="46.80571" lon="6.18123">
        <ele>862.92</ele>
        <time>2019-06-02T11:01:06Z</time>
      </trkpt>
      <trkpt lat="46.80532" lon="6.18112">
        <ele>864.84</ele>
        <time>2019-06-02T11:01:19Z</time>
      </trkpt>
      <trkpt lat="46.80477" lon="6.18076">
        <ele>864.84</ele>
        <time>2019-06-02T11:01:37Z</time>
      </trkpt>
      <trkpt lat="46.80473" lon="6.18075">
        <ele>864.84</ele>
        <time>2019-06-02T11:01:38Z</time>
      </trkpt>
      <trkpt lat="46.80424" lon="6.18073">
        <ele>864.36</ele>
        <time>2019-06-02T11:01:50Z</time>
      </trkpt>
      <trkpt lat="46.80376" lon="6.18085">
        <ele>865.32</ele>
        <time>2019-06-02T11:02:03Z</time>
      </trkpt>
      <trkpt lat="46.8033" lon="6.18126">
        <ele>865.8</ele>
        <time>2019-06-02T11:02:17Z</time>
      </trkpt>
      <trkpt lat="46.80284" lon="6.18183">
        <ele>868.69</ele>
        <time>2019-06-02T11:02:35Z</time>
      </trkpt>
      <trkpt lat="46.80243" lon="6.18197">
        <ele>870.13</ele>
        <time>2019-06-02T11:02:49Z</time>
      </trkpt>
      <trkpt lat="46.80204" lon="6.18205">
        <ele>873.01</ele>
        <time>2019-06-02T11:03:03Z</time>
      </trkpt>
      <trkpt lat="46.80165" lon="6.18219">
        <ele>875.9</ele>
        <time>2019-06-02T11:03:19Z</time>
      </trkpt>
      <trkpt lat="46.80135" lon="6.18234">
        <ele>878.78</ele>
        <time>2019-06-02T11:03:33Z</time>
      </trkpt>
      <trkpt lat="46.80111" lon="6.18244">
        <ele>882.15</ele>
        <time>2019-06-02T11:03:44Z</time>
      </trkpt>
      <trkpt lat="46.80086" lon="6.18251">
        <ele>885.03</ele>
        <time>2019-06-02T11:03:55Z</time>
      </trkpt>
      <trkpt lat="46.80072" lon="6.18253">
        <ele>886.95</ele>
        <time>2019-06-02T11:04:01Z</time>
      </trkpt>
      <trkpt lat="46.80037" lon="6.18255">
        <ele>889.84</ele>
        <time>2019-06-02T11:04:16Z</time>
      </trkpt>
      <trkpt lat="46.80004" lon="6.18263">
        <ele>892.24</ele>
        <time>2019-06-02T11:04:32Z</time>
      </trkpt>
      <trkpt lat="46.80003" lon="6.18263">
        <ele>892.24</ele>
        <time>2019-06-02T11:04:50Z</time>
      </trkpt>
      <trkpt lat="46.80001" lon="6.18264">
        <ele>892.24</ele>
        <time>2019-06-02T11:04:53Z</time>
      </trkpt>
      <trkpt lat="46.79972" lon="6.18274">
        <ele>894.64</ele>
        <time>2019-06-02T11:05:08Z</time>
      </trkpt>
      <trkpt lat="46.79941" lon="6.18288">
        <ele>896.57</ele>
        <time>2019-06-02T11:05:23Z</time>
      </trkpt>
      <trkpt lat="46.79915" lon="6.18321">
        <ele>899.93</ele>
        <time>2019-06-02T11:05:39Z</time>
      </trkpt>
      <trkpt lat="46.79905" lon="6.18363">
        <ele>902.33</ele>
        <time>2019-06-02T11:05:52Z</time>
      </trkpt>
      <trkpt lat="46.799" lon="6.18419">
        <ele>904.74</ele>
        <time>2019-06-02T11:06:09Z</time>
      </trkpt>
      <trkpt lat="46.79904" lon="6.18475">
        <ele>906.66</ele>
        <time>2019-06-02T11:06:26Z</time>
      </trkpt>
      <trkpt lat="46.79908" lon="6.18495">
        <ele>907.62</ele>
        <time>2019-06-02T11:06:34Z</time>
      </trkpt>
      <trkpt lat="46.7991" lon="6.18503">
        <ele>908.1</ele>
        <time>2019-06-02T11:06:39Z</time>
      </trkpt>
      <trkpt lat="46.79912" lon="6.185">
        <ele>908.1</ele>
        <time>2019-06-02T11:06:43Z</time>
      </trkpt>
      <trkpt lat="46.7991" lon="6.18492">
        <ele>907.62</ele>
        <time>2019-06-02T11:06:49Z</time>
      </trkpt>
      <trkpt lat="46.79909" lon="6.18497">
        <ele>907.62</ele>
        <time>2019-06-02T11:06:53Z</time>
      </trkpt>
      <trkpt lat="46.79924" lon="6.18546">
        <ele>909.06</ele>
        <time>2019-06-02T11:07:11Z</time>
      </trkpt>
      <trkpt lat="46.79944" lon="6.18601">
        <ele>909.54</ele>
        <time>2019-06-02T11:07:28Z</time>
      </trkpt>
      <trkpt lat="46.79965" lon="6.18659">
        <ele>909.06</ele>
        <time>2019-06-02T11:07:43Z</time>
      </trkpt>
      <trkpt lat="46.79988" lon="6.18716">
        <ele>909.54</ele>
        <time>2019-06-02T11:07:59Z</time>
      </trkpt>
      <trkpt lat="46.79993" lon="6.18724">
        <ele>910.03</ele>
        <time>2019-06-02T11:08:03Z</time>
      </trkpt>
      <trkpt lat="46.79997" lon="6.18739">
        <ele>910.99</ele>
        <time>2019-06-02T11:08:09Z</time>
      </trkpt>
      <trkpt lat="46.80001" lon="6.18743">
        <ele>910.99</ele>
        <time>2019-06-02T11:08:12Z</time>
      </trkpt>
      <trkpt lat="46.80009" lon="6.18767">
        <ele>912.43</ele>
        <time>2019-06-02T11:08:22Z</time>
      </trkpt>
      <trkpt lat="46.80012" lon="6.18779">
        <ele>913.39</ele>
        <time>2019-06-02T11:08:28Z</time>
      </trkpt>
      <trkpt lat="46.80013" lon="6.18775">
        <ele>912.91</ele>
        <time>2019-06-02T11:08:36Z</time>
      </trkpt>
      <trkpt lat="46.80014" lon="6.18774">
        <ele>913.39</ele>
        <time>2019-06-02T11:08:49Z</time>
      </trkpt>
      <trkpt lat="46.80014" lon="6.18772">
        <ele>913.39</ele>
        <time>2019-06-02T11:09:23Z</time>
      </trkpt>
      <trkpt lat="46.80014" lon="6.18772">
        <ele>913.39</ele>
        <time>2019-06-02T11:09:52Z</time>
      </trkpt>
      <trkpt lat="46.80014" lon="6.18772">
        <ele>913.39</ele>
        <time>2019-06-02T11:10:16Z</time>
      </trkpt>
      <trkpt lat="46.80015" lon="6.18778">
        <ele>913.39</ele>
        <time>2019-06-02T11:10:26Z</time>
      </trkpt>
      <trkpt lat="46.80017" lon="6.18783">
        <ele>913.39</ele>
        <time>2019-06-02T11:10:29Z</time>
      </trkpt>
      <trkpt lat="46.80034" lon="6.18828">
        <ele>915.31</ele>
        <time>2019-06-02T11:10:43Z</time>
      </trkpt>
      <trkpt lat="46.80053" lon="6.18873">
        <ele>917.24</ele>
        <time>2019-06-02T11:10:58Z</time>
      </trkpt>
      <trkpt lat="46.80079" lon="6.18905">
        <ele>919.64</ele>
        <time>2019-06-02T11:11:12Z</time>
      </trkpt>
      <trkpt lat="46.80113" lon="6.18931">
        <ele>922.04</ele>
        <time>2019-06-02T11:11:26Z</time>
      </trkpt>
      <trkpt lat="46.80148" lon="6.18965">
        <ele>923.48</ele>
        <time>2019-06-02T11:11:41Z</time>
      </trkpt>
      <trkpt lat="46.80188" lon="6.19008">
        <ele>924.93</ele>
        <time>2019-06-02T11:11:57Z</time>
      </trkpt>
      <trkpt lat="46.80224" lon="6.19052">
        <ele>926.85</ele>
        <time>2019-06-02T11:12:12Z</time>
      </trkpt>
      <trkpt lat="46.80254" lon="6.19086">
        <ele>928.77</ele>
        <time>2019-06-02T11:12:25Z</time>
      </trkpt>
      <trkpt lat="46.80282" lon="6.19124">
        <ele>931.65</ele>
        <time>2019-06-02T11:12:40Z</time>
      </trkpt>
      <trkpt lat="46.80299" lon="6.19154">
        <ele>933.1</ele>
        <time>2019-06-02T11:12:54Z</time>
      </trkpt>
      <trkpt lat="46.80301" lon="6.19162">
        <ele>933.1</ele>
        <time>2019-06-02T11:12:58Z</time>
      </trkpt>
      <trkpt lat="46.80304" lon="6.19171">
        <ele>934.06</ele>
        <time>2019-06-02T11:13:03Z</time>
      </trkpt>
      <trkpt lat="46.8032" lon="6.19205">
        <ele>935.5</ele>
        <time>2019-06-02T11:13:21Z</time>
      </trkpt>
      <trkpt lat="46.80337" lon="6.19232">
        <ele>937.9</ele>
        <time>2019-06-02T11:13:37Z</time>
      </trkpt>
      <trkpt lat="46.80342" lon="6.19238">
        <ele>937.9</ele>
        <time>2019-06-02T11:13:41Z</time>
      </trkpt>
      <trkpt lat="46.80355" lon="6.19273">
        <ele>939.83</ele>
        <time>2019-06-02T11:13:57Z</time>
      </trkpt>
      <trkpt lat="46.80359" lon="6.19284">
        <ele>940.31</ele>
        <time>2019-06-02T11:14:02Z</time>
      </trkpt>
      <trkpt lat="46.80366" lon="6.19302">
        <ele>941.27</ele>
        <time>2019-06-02T11:14:11Z</time>
      </trkpt>
      <trkpt lat="46.80368" lon="6.19305">
        <ele>941.27</ele>
        <time>2019-06-02T11:14:13Z</time>
      </trkpt>
      <trkpt lat="46.80373" lon="6.19318">
        <ele>942.71</ele>
        <time>2019-06-02T11:14:20Z</time>
      </trkpt>
      <trkpt lat="46.8039" lon="6.19341">
        <ele>945.59</ele>
        <time>2019-06-02T11:14:32Z</time>
      </trkpt>
      <trkpt lat="46.80408" lon="6.19369">
        <ele>948.96</ele>
        <time>2019-06-02T11:14:45Z</time>
      </trkpt>
      <trkpt lat="46.80423" lon="6.194">
        <ele>951.36</ele>
        <time>2019-06-02T11:14:58Z</time>
      </trkpt>
      <trkpt lat="46.80431" lon="6.19414">
        <ele>952.8</ele>
        <time>2019-06-02T11:15:04Z</time>
      </trkpt>
      <trkpt lat="46.80445" lon="6.19442">
        <ele>956.17</ele>
        <time>2019-06-02T11:15:15Z</time>
      </trkpt>
      <trkpt lat="46.80453" lon="6.19464">
        <ele>958.57</ele>
        <time>2019-06-02T11:15:24Z</time>
      </trkpt>
      <trkpt lat="46.80458" lon="6.1948">
        <ele>960.01</ele>
        <time>2019-06-02T11:15:30Z</time>
      </trkpt>
      <trkpt lat="46.80466" lon="6.19517">
        <ele>963.38</ele>
        <time>2019-06-02T11:15:44Z</time>
      </trkpt>
      <trkpt lat="46.80474" lon="6.19545">
        <ele>966.26</ele>
        <time>2019-06-02T11:15:55Z</time>
      </trkpt>
      <trkpt lat="46.80481" lon="6.19566">
        <ele>968.67</ele>
        <time>2019-06-02T11:16:03Z</time>
      </trkpt>
      <trkpt lat="46.80487" lon="6.19581">
        <ele>970.11</ele>
        <time>2019-06-02T11:16:09Z</time>
      </trkpt>
      <trkpt lat="46.80494" lon="6.19594">
        <ele>971.55</ele>
        <time>2019-06-02T11:16:14Z</time>
      </trkpt>
      <trkpt lat="46.805" lon="6.19613">
        <ele>973.47</ele>
        <time>2019-06-02T11:16:21Z</time>
      </trkpt>
      <trkpt lat="46.80513" lon="6.19644">
        <ele>975.88</ele>
        <time>2019-06-02T11:16:33Z</time>
      </trkpt>
      <trkpt lat="46.80519" lon="6.1968">
        <ele>978.28</ele>
        <time>2019-06-02T11:16:45Z</time>
      </trkpt>
      <trkpt lat="46.80511" lon="6.19718">
        <ele>980.2</ele>
        <time>2019-06-02T11:16:57Z</time>
      </trkpt>
      <trkpt lat="46.80503" lon="6.19733">
        <ele>981.16</ele>
        <time>2019-06-02T11:17:03Z</time>
      </trkpt>
      <trkpt lat="46.80498" lon="6.1976">
        <ele>984.05</ele>
        <time>2019-06-02T11:17:13Z</time>
      </trkpt>
      <trkpt lat="46.80498" lon="6.1977">
        <ele>985.01</ele>
        <time>2019-06-02T11:17:17Z</time>
      </trkpt>
      <trkpt lat="46.80488" lon="6.19785">
        <ele>986.45</ele>
        <time>2019-06-02T11:17:23Z</time>
      </trkpt>
      <trkpt lat="46.80481" lon="6.19797">
        <ele>988.37</ele>
        <time>2019-06-02T11:17:29Z</time>
      </trkpt>
      <trkpt lat="46.80479" lon="6.19808">
        <ele>990.3</ele>
        <time>2019-06-02T11:17:35Z</time>
      </trkpt>
      <trkpt lat="46.80464" lon="6.19822">
        <ele>993.18</ele>
        <time>2019-06-02T11:17:45Z</time>
      </trkpt>
      <trkpt lat="46.80462" lon="6.19823">
        <ele>993.66</ele>
        <time>2019-06-02T11:17:46Z</time>
      </trkpt>
      <trkpt lat="46.80446" lon="6.19825">
        <ele>996.06</ele>
        <time>2019-06-02T11:17:54Z</time>
      </trkpt>
      <trkpt lat="46.80427" lon="6.1982">
        <ele>997.99</ele>
        <time>2019-06-02T11:18:03Z</time>
      </trkpt>
      <trkpt lat="46.80417" lon="6.19815">
        <ele>999.43</ele>
        <time>2019-06-02T11:18:08Z</time>
      </trkpt>
      <trkpt lat="46.8039" lon="6.19799">
        <ele>1001.35</ele>
        <time>2019-06-02T11:18:23Z</time>
      </trkpt>
      <trkpt lat="46.80376" lon="6.1978">
        <ele>1001.83</ele>
        <time>2019-06-02T11:18:34Z</time>
      </trkpt>
      <trkpt lat="46.80379" lon="6.19787">
        <ele>1001.83</ele>
        <time>2019-06-02T11:18:41Z</time>
      </trkpt>
      <trkpt lat="46.80379" lon="6.19805">
        <ele>1002.31</ele>
        <time>2019-06-02T11:18:49Z</time>
      </trkpt>
      <trkpt lat="46.80373" lon="6.19817">
        <ele>1002.79</ele>
        <time>2019-06-02T11:18:58Z</time>
      </trkpt>
      <trkpt lat="46.8037" lon="6.19836">
        <ele>1004.23</ele>
        <time>2019-06-02T11:19:07Z</time>
      </trkpt>
      <trkpt lat="46.8038" lon="6.19864">
        <ele>1006.64</ele>
        <time>2019-06-02T11:19:20Z</time>
      </trkpt>
      <trkpt lat="46.80382" lon="6.19872">
        <ele>1007.12</ele>
        <time>2019-06-02T11:19:24Z</time>
      </trkpt>
      <trkpt lat="46.80386" lon="6.19874">
        <ele>1007.6</ele>
        <time>2019-06-02T11:19:28Z</time>
      </trkpt>
      <trkpt lat="46.80383" lon="6.19868">
        <ele>1007.12</ele>
        <time>2019-06-02T11:19:41Z</time>
      </trkpt>
      <trkpt lat="46.80383" lon="6.19868">
        <ele>1007.12</ele>
        <time>2019-06-02T11:20:00Z</time>
      </trkpt>
      <trkpt lat="46.80383" lon="6.19867">
        <ele>1007.12</ele>
        <time>2019-06-02T11:20:23Z</time>
      </trkpt>
      <trkpt lat="46.80383" lon="6.19867">
        <ele>1007.12</ele>
        <time>2019-06-02T11:20:52Z</time>
      </trkpt>
      <trkpt lat="46.80383" lon="6.19867">
        <ele>1006.64</ele>
        <time>2019-06-02T11:21:21Z</time>
      </trkpt>
      <trkpt lat="46.80383" lon="6.19866">
        <ele>1006.64</ele>
        <time>2019-06-02T11:21:44Z</time>
      </trkpt>
      <trkpt lat="46.80383" lon="6.19866">
        <ele>1007.12</ele>
        <time>2019-06-02T11:22:13Z</time>
      </trkpt>
      <trkpt lat="46.80382" lon="6.19869">
        <ele>1007.12</ele>
        <time>2019-06-02T11:22:22Z</time>
      </trkpt>
      <trkpt lat="46.80385" lon="6.19878">
        <ele>1007.6</ele>
        <time>2019-06-02T11:22:29Z</time>
      </trkpt>
      <trkpt lat="46.80396" lon="6.19901">
        <ele>1009.52</ele>
        <time>2019-06-02T11:22:38Z</time>
      </trkpt>
      <trkpt lat="46.80407" lon="6.19946">
        <ele>1012.41</ele>
        <time>2019-06-02T11:22:53Z</time>
      </trkpt>
      <trkpt lat="46.80416" lon="6.19992">
        <ele>1014.81</ele>
        <time>2019-06-02T11:23:08Z</time>
      </trkpt>
      <trkpt lat="46.80419" lon="6.20012">
        <ele>1016.25</ele>
        <time>2019-06-02T11:23:15Z</time>
      </trkpt>
      <trkpt lat="46.80426" lon="6.20032">
        <ele>1017.21</ele>
        <time>2019-06-02T11:23:22Z</time>
      </trkpt>
      <trkpt lat="46.8044" lon="6.20082">
        <ele>1020.58</ele>
        <time>2019-06-02T11:23:38Z</time>
      </trkpt>
      <trkpt lat="46.80459" lon="6.20129">
        <ele>1022.98</ele>
        <time>2019-06-02T11:23:53Z</time>
      </trkpt>
      <trkpt lat="46.80473" lon="6.2018">
        <ele>1025.38</ele>
        <time>2019-06-02T11:24:08Z</time>
      </trkpt>
      <trkpt lat="46.80482" lon="6.20238">
        <ele>1027.79</ele>
        <time>2019-06-02T11:24:23Z</time>
      </trkpt>
      <trkpt lat="46.80492" lon="6.20311">
        <ele>1031.15</ele>
        <time>2019-06-02T11:24:41Z</time>
      </trkpt>
      <trkpt lat="46.80499" lon="6.20366">
        <ele>1034.04</ele>
        <time>2019-06-02T11:24:57Z</time>
      </trkpt>
      <trkpt lat="46.805" lon="6.20371">
        <ele>1034.04</ele>
        <time>2019-06-02T11:24:59Z</time>
      </trkpt>
      <trkpt lat="46.80502" lon="6.20373">
        <ele>1034.52</ele>
        <time>2019-06-02T11:25:01Z</time>
      </trkpt>
      <trkpt lat="46.805" lon="6.20356">
        <ele>1034.04</ele>
        <time>2019-06-02T11:25:08Z</time>
      </trkpt>
      <trkpt lat="46.80494" lon="6.2032">
        <ele>1032.59</ele>
        <time>2019-06-02T11:25:15Z</time>
      </trkpt>
      <trkpt lat="46.80483" lon="6.2025">
        <ele>1029.23</ele>
        <time>2019-06-02T11:25:27Z</time>
      </trkpt>
      <trkpt lat="46.80477" lon="6.20216">
        <ele>1027.79</ele>
        <time>2019-06-02T11:25:34Z</time>
      </trkpt>
      <trkpt lat="46.80465" lon="6.20149">
        <ele>1024.9</ele>
        <time>2019-06-02T11:25:44Z</time>
      </trkpt>
      <trkpt lat="46.80443" lon="6.20089">
        <ele>1021.54</ele>
        <time>2019-06-02T11:25:52Z</time>
      </trkpt>
      <trkpt lat="46.80428" lon="6.20034">
        <ele>1018.65</ele>
        <time>2019-06-02T11:25:59Z</time>
      </trkpt>
      <trkpt lat="46.80412" lon="6.19966">
        <ele>1015.29</ele>
        <time>2019-06-02T11:26:07Z</time>
      </trkpt>
      <trkpt lat="46.80402" lon="6.19921">
        <ele>1011.93</ele>
        <time>2019-06-02T11:26:12Z</time>
      </trkpt>
      <trkpt lat="46.80393" lon="6.1989">
        <ele>1009.52</ele>
        <time>2019-06-02T11:26:16Z</time>
      </trkpt>
      <trkpt lat="46.80379" lon="6.19854">
        <ele>1007.6</ele>
        <time>2019-06-02T11:26:21Z</time>
      </trkpt>
      <trkpt lat="46.80378" lon="6.19813">
        <ele>1004.72</ele>
        <time>2019-06-02T11:26:26Z</time>
      </trkpt>
      <trkpt lat="46.80373" lon="6.19773">
        <ele>1001.83</ele>
        <time>2019-06-02T11:26:32Z</time>
      </trkpt>
      <trkpt lat="46.80333" lon="6.19733">
        <ele>1003.75</ele>
        <time>2019-06-02T11:26:45Z</time>
      </trkpt>
      <trkpt lat="46.80315" lon="6.1971">
        <ele>1006.16</ele>
        <time>2019-06-02T11:26:54Z</time>
      </trkpt>
      <trkpt lat="46.80306" lon="6.19702">
        <ele>1006.64</ele>
        <time>2019-06-02T11:26:58Z</time>
      </trkpt>
      <trkpt lat="46.80282" lon="6.19682">
        <ele>1008.08</ele>
        <time>2019-06-02T11:27:08Z</time>
      </trkpt>
      <trkpt lat="46.80247" lon="6.19651">
        <ele>1009.52</ele>
        <time>2019-06-02T11:27:22Z</time>
      </trkpt>
      <trkpt lat="46.80227" lon="6.19638">
        <ele>1010.96</ele>
        <time>2019-06-02T11:27:30Z</time>
      </trkpt>
      <trkpt lat="46.80208" lon="6.19626">
        <ele>1012.89</ele>
        <time>2019-06-02T11:27:39Z</time>
      </trkpt>
      <trkpt lat="46.80187" lon="6.19613">
        <ele>1014.81</ele>
        <time>2019-06-02T11:27:48Z</time>
      </trkpt>
      <trkpt lat="46.80166" lon="6.19597">
        <ele>1017.21</ele>
        <time>2019-06-02T11:27:58Z</time>
      </trkpt>
      <trkpt lat="46.80139" lon="6.19578">
        <ele>1020.1</ele>
        <time>2019-06-02T11:28:10Z</time>
      </trkpt>
      <trkpt lat="46.80111" lon="6.19566">
        <ele>1022.98</ele>
        <time>2019-06-02T11:28:21Z</time>
      </trkpt>
      <trkpt lat="46.80079" lon="6.19585">
        <ele>1025.86</ele>
        <time>2019-06-02T11:28:34Z</time>
      </trkpt>
      <trkpt lat="46.80068" lon="6.19623">
        <ele>1025.86</ele>
        <time>2019-06-02T11:28:46Z</time>
      </trkpt>
      <trkpt lat="46.8006" lon="6.19685">
        <ele>1025.38</ele>
        <time>2019-06-02T11:29:01Z</time>
      </trkpt>
      <trkpt lat="46.80057" lon="6.19731">
        <ele>1026.34</ele>
        <time>2019-06-02T11:29:12Z</time>
      </trkpt>
      <trkpt lat="46.8005" lon="6.1978">
        <ele>1028.75</ele>
        <time>2019-06-02T11:29:25Z</time>
      </trkpt>
      <trkpt lat="46.80044" lon="6.19796">
        <ele>1030.67</ele>
        <time>2019-06-02T11:29:31Z</time>
      </trkpt>
      <trkpt lat="46.80036" lon="6.19812">
        <ele>1032.11</ele>
        <time>2019-06-02T11:29:37Z</time>
      </trkpt>
      <trkpt lat="46.80024" lon="6.19839">
        <ele>1034.52</ele>
        <time>2019-06-02T11:29:47Z</time>
      </trkpt>
      <trkpt lat="46.80021" lon="6.19861">
        <ele>1036.92</ele>
        <time>2019-06-02T11:29:54Z</time>
      </trkpt>
      <trkpt lat="46.80021" lon="6.19881">
        <ele>1038.84</ele>
        <time>2019-06-02T11:30:00Z</time>
      </trkpt>
      <trkpt lat="46.80023" lon="6.1991">
        <ele>1040.76</ele>
        <time>2019-06-02T11:30:09Z</time>
      </trkpt>
      <trkpt lat="46.80021" lon="6.19956">
        <ele>1043.17</ele>
        <time>2019-06-02T11:30:22Z</time>
      </trkpt>
      <trkpt lat="46.80018" lon="6.19964">
        <ele>1043.65</ele>
        <time>2019-06-02T11:30:25Z</time>
      </trkpt>
      <trkpt lat="46.80015" lon="6.19973">
        <ele>1044.13</ele>
        <time>2019-06-02T11:30:29Z</time>
      </trkpt>
      <trkpt lat="46.80009" lon="6.19987">
        <ele>1045.57</ele>
        <time>2019-06-02T11:30:34Z</time>
      </trkpt>
      <trkpt lat="46.80004" lon="6.20002">
        <ele>1047.01</ele>
        <time>2019-06-02T11:30:39Z</time>
      </trkpt>
      <trkpt lat="46.79977" lon="6.20049">
        <ele>1049.9</ele>
        <time>2019-06-02T11:30:54Z</time>
      </trkpt>
      <trkpt lat="46.79957" lon="6.20087">
        <ele>1052.3</ele>
        <time>2019-06-02T11:31:08Z</time>
      </trkpt>
      <trkpt lat="46.79948" lon="6.201">
        <ele>1053.74</ele>
        <time>2019-06-02T11:31:14Z</time>
      </trkpt>
      <trkpt lat="46.7993" lon="6.20121">
        <ele>1055.67</ele>
        <time>2019-06-02T11:31:27Z</time>
      </trkpt>
      <trkpt lat="46.79928" lon="6.20123">
        <ele>1055.67</ele>
        <time>2019-06-02T11:31:28Z</time>
      </trkpt>
      <trkpt lat="46.79911" lon="6.20138">
        <ele>1057.59</ele>
        <time>2019-06-02T11:31:37Z</time>
      </trkpt>
      <trkpt lat="46.79893" lon="6.20153">
        <ele>1059.51</ele>
        <time>2019-06-02T11:31:47Z</time>
      </trkpt>
      <trkpt lat="46.79882" lon="6.20159">
        <ele>1059.99</ele>
        <time>2019-06-02T11:31:55Z</time>
      </trkpt>
      <trkpt lat="46.79885" lon="6.20155">
        <ele>1059.51</ele>
        <time>2019-06-02T11:31:59Z</time>
      </trkpt>
      <trkpt lat="46.79891" lon="6.20155">
        <ele>1059.51</ele>
        <time>2019-06-02T11:32:04Z</time>
      </trkpt>
      <trkpt lat="46.79893" lon="6.20154">
        <ele>1059.03</ele>
        <time>2019-06-02T11:32:06Z</time>
      </trkpt>
      <trkpt lat="46.79889" lon="6.20154">
        <ele>1059.51</ele>
        <time>2019-06-02T11:32:12Z</time>
      </trkpt>
      <trkpt lat="46.79883" lon="6.20159">
        <ele>1059.51</ele>
        <time>2019-06-02T11:32:24Z</time>
      </trkpt>
      <trkpt lat="46.79883" lon="6.2016">
        <ele>1059.51</ele>
        <time>2019-06-02T11:32:36Z</time>
      </trkpt>
      <trkpt lat="46.79883" lon="6.2016">
        <ele>1059.51</ele>
        <time>2019-06-02T11:32:53Z</time>
      </trkpt>
      <trkpt lat="46.79883" lon="6.20159">
        <ele>1059.51</ele>
        <time>2019-06-02T11:33:15Z</time>
      </trkpt>
      <trkpt lat="46.79883" lon="6.20159">
        <ele>1059.99</ele>
        <time>2019-06-02T11:33:32Z</time>
      </trkpt>
      <trkpt lat="46.79883" lon="6.2016">
        <ele>1059.51</ele>
        <time>2019-06-02T11:33:51Z</time>
      </trkpt>
      <trkpt lat="46.79883" lon="6.2016">
        <ele>1059.51</ele>
        <time>2019-06-02T11:34:06Z</time>
      </trkpt>
      <trkpt lat="46.79883" lon="6.20159">
        <ele>1059.99</ele>
        <time>2019-06-02T11:34:30Z</time>
      </trkpt>
      <trkpt lat="46.79883" lon="6.20159">
        <ele>1059.99</ele>
        <time>2019-06-02T11:34:39Z</time>
      </trkpt>
      <trkpt lat="46.79875" lon="6.20164">
        <ele>1059.99</ele>
        <time>2019-06-02T11:34:44Z</time>
      </trkpt>
      <trkpt lat="46.79854" lon="6.20166">
        <ele>1060.95</ele>
        <time>2019-06-02T11:34:54Z</time>
      </trkpt>
      <trkpt lat="46.7983" lon="6.20171">
        <ele>1060.95</ele>
        <time>2019-06-02T11:35:04Z</time>
      </trkpt>
      <trkpt lat="46.79826" lon="6.20172">
        <ele>1060.95</ele>
        <time>2019-06-02T11:35:05Z</time>
      </trkpt>
      <trkpt lat="46.79807" lon="6.20193">
        <ele>1061.91</ele>
        <time>2019-06-02T11:35:16Z</time>
      </trkpt>
      <trkpt lat="46.79803" lon="6.20199">
        <ele>1061.91</ele>
        <time>2019-06-02T11:35:19Z</time>
      </trkpt>
      <trkpt lat="46.79801" lon="6.20202">
        <ele>1060.95</ele>
        <time>2019-06-02T11:35:27Z</time>
      </trkpt>
      <trkpt lat="46.79788" lon="6.20229">
        <ele>1062.39</ele>
        <time>2019-06-02T11:40:41Z</time>
      </trkpt>
      <trkpt lat="46.79785" lon="6.20234">
        <ele>1062.87</ele>
        <time>2019-06-02T11:40:44Z</time>
      </trkpt>
      <trkpt lat="46.79774" lon="6.20247">
        <ele>1065.76</ele>
        <time>2019-06-02T11:40:52Z</time>
      </trkpt>
      <trkpt lat="46.79771" lon="6.20253">
        <ele>1066.72</ele>
        <time>2019-06-02T11:40:54Z</time>
      </trkpt>
      <trkpt lat="46.7976" lon="6.20295">
        <ele>1069.6</ele>
        <time>2019-06-02T11:41:04Z</time>
      </trkpt>
      <trkpt lat="46.79751" lon="6.20338">
        <ele>1072.97</ele>
        <time>2019-06-02T11:41:14Z</time>
      </trkpt>
      <trkpt lat="46.79748" lon="6.20346">
        <ele>1073.45</ele>
        <time>2019-06-02T11:41:16Z</time>
      </trkpt>
      <trkpt lat="46.79726" lon="6.20392">
        <ele>1075.85</ele>
        <time>2019-06-02T11:41:27Z</time>
      </trkpt>
      <trkpt lat="46.79709" lon="6.20424">
        <ele>1078.74</ele>
        <time>2019-06-02T11:41:37Z</time>
      </trkpt>
      <trkpt lat="46.79696" lon="6.2044">
        <ele>1079.22</ele>
        <time>2019-06-02T11:41:44Z</time>
      </trkpt>
      <trkpt lat="46.7969" lon="6.2045">
        <ele>1079.22</ele>
        <time>2019-06-02T11:41:48Z</time>
      </trkpt>
      <trkpt lat="46.79667" lon="6.20489">
        <ele>1079.7</ele>
        <time>2019-06-02T11:42:00Z</time>
      </trkpt>
      <trkpt lat="46.79664" lon="6.20494">
        <ele>1079.22</ele>
        <time>2019-06-02T11:42:01Z</time>
      </trkpt>
      <trkpt lat="46.79651" lon="6.20513">
        <ele>1078.74</ele>
        <time>2019-06-02T11:42:05Z</time>
      </trkpt>
      <trkpt lat="46.79634" lon="6.20537">
        <ele>1078.26</ele>
        <time>2019-06-02T11:42:10Z</time>
      </trkpt>
      <trkpt lat="46.79627" lon="6.20545">
        <ele>1078.26</ele>
        <time>2019-06-02T11:42:12Z</time>
      </trkpt>
      <trkpt lat="46.7959" lon="6.20592">
        <ele>1078.26</ele>
        <time>2019-06-02T11:42:25Z</time>
      </trkpt>
      <trkpt lat="46.79566" lon="6.20613">
        <ele>1077.78</ele>
        <time>2019-06-02T11:42:32Z</time>
      </trkpt>
      <trkpt lat="46.79524" lon="6.20668">
        <ele>1077.29</ele>
        <time>2019-06-02T11:42:43Z</time>
      </trkpt>
      <trkpt lat="46.795" lon="6.20711">
        <ele>1079.22</ele>
        <time>2019-06-02T11:42:53Z</time>
      </trkpt>
      <trkpt lat="46.79476" lon="6.20742">
        <ele>1078.74</ele>
        <time>2019-06-02T11:43:03Z</time>
      </trkpt>
      <trkpt lat="46.79458" lon="6.20763">
        <ele>1078.26</ele>
        <time>2019-06-02T11:43:08Z</time>
      </trkpt>
      <trkpt lat="46.79442" lon="6.20785">
        <ele>1078.26</ele>
        <time>2019-06-02T11:43:13Z</time>
      </trkpt>
      <trkpt lat="46.79428" lon="6.20808">
        <ele>1077.78</ele>
        <time>2019-06-02T11:43:17Z</time>
      </trkpt>
      <trkpt lat="46.79412" lon="6.20833">
        <ele>1077.29</ele>
        <time>2019-06-02T11:43:21Z</time>
      </trkpt>
      <trkpt lat="46.79377" lon="6.20892">
        <ele>1073.93</ele>
        <time>2019-06-02T11:43:29Z</time>
      </trkpt>
      <trkpt lat="46.79364" lon="6.20934">
        <ele>1070.08</ele>
        <time>2019-06-02T11:43:33Z</time>
      </trkpt>
      <trkpt lat="46.79361" lon="6.20946">
        <ele>1069.12</ele>
        <time>2019-06-02T11:43:34Z</time>
      </trkpt>
      <trkpt lat="46.79352" lon="6.21008">
        <ele>1064.8</ele>
        <time>2019-06-02T11:43:39Z</time>
      </trkpt>
      <trkpt lat="46.79346" lon="6.21032">
        <ele>1063.36</ele>
        <time>2019-06-02T11:43:41Z</time>
      </trkpt>
      <trkpt lat="46.79326" lon="6.21071">
        <ele>1059.51</ele>
        <time>2019-06-02T11:43:45Z</time>
      </trkpt>
      <trkpt lat="46.793" lon="6.21104">
        <ele>1054.7</ele>
        <time>2019-06-02T11:43:49Z</time>
      </trkpt>
      <trkpt lat="46.79279" lon="6.21134">
        <ele>1050.86</ele>
        <time>2019-06-02T11:43:52Z</time>
      </trkpt>
      <trkpt lat="46.79256" lon="6.21169">
        <ele>1047.49</ele>
        <time>2019-06-02T11:43:55Z</time>
      </trkpt>
      <trkpt lat="46.79244" lon="6.21191">
        <ele>1043.65</ele>
        <time>2019-06-02T11:43:57Z</time>
      </trkpt>
      <trkpt lat="46.79227" lon="6.21222">
        <ele>1040.28</ele>
        <time>2019-06-02T11:44:00Z</time>
      </trkpt>
      <trkpt lat="46.79209" lon="6.21252">
        <ele>1036.44</ele>
        <time>2019-06-02T11:44:03Z</time>
      </trkpt>
      <trkpt lat="46.79176" lon="6.21299">
        <ele>1033.07</ele>
        <time>2019-06-02T11:44:08Z</time>
      </trkpt>
      <trkpt lat="46.79146" lon="6.21332">
        <ele>1029.23</ele>
        <time>2019-06-02T11:44:12Z</time>
      </trkpt>
      <trkpt lat="46.79108" lon="6.21376">
        <ele>1024.9</ele>
        <time>2019-06-02T11:44:17Z</time>
      </trkpt>
      <trkpt lat="46.79078" lon="6.21412">
        <ele>1020.1</ele>
        <time>2019-06-02T11:44:21Z</time>
      </trkpt>
      <trkpt lat="46.79053" lon="6.21443">
        <ele>1016.25</ele>
        <time>2019-06-02T11:44:24Z</time>
      </trkpt>
      <trkpt lat="46.79029" lon="6.21472">
        <ele>1012.89</ele>
        <time>2019-06-02T11:44:27Z</time>
      </trkpt>
      <trkpt lat="46.79012" lon="6.2149">
        <ele>1009.52</ele>
        <time>2019-06-02T11:44:29Z</time>
      </trkpt>
      <trkpt lat="46.78986" lon="6.21516">
        <ele>1005.2</ele>
        <time>2019-06-02T11:44:32Z</time>
      </trkpt>
      <trkpt lat="46.78961" lon="6.2154">
        <ele>1003.27</ele>
        <time>2019-06-02T11:44:35Z</time>
      </trkpt>
      <trkpt lat="46.78931" lon="6.21574">
        <ele>1000.39</ele>
        <time>2019-06-02T11:44:39Z</time>
      </trkpt>
      <trkpt lat="46.78898" lon="6.21615">
        <ele>997.02</ele>
        <time>2019-06-02T11:44:43Z</time>
      </trkpt>
      <trkpt lat="46.78884" lon="6.21633">
        <ele>995.58</ele>
        <time>2019-06-02T11:44:45Z</time>
      </trkpt>
      <trkpt lat="46.78861" lon="6.21662">
        <ele>993.66</ele>
        <time>2019-06-02T11:44:49Z</time>
      </trkpt>
      <trkpt lat="46.7883" lon="6.2168">
        <ele>991.26</ele>
        <time>2019-06-02T11:44:57Z</time>
      </trkpt>
      <trkpt lat="46.78788" lon="6.21697">
        <ele>990.3</ele>
        <time>2019-06-02T11:45:09Z</time>
      </trkpt>
      <trkpt lat="46.78765" lon="6.2171">
        <ele>989.81</ele>
        <time>2019-06-02T11:45:15Z</time>
      </trkpt>
      <trkpt lat="46.78751" lon="6.21719">
        <ele>988.85</ele>
        <time>2019-06-02T11:45:18Z</time>
      </trkpt>
      <trkpt lat="46.78716" lon="6.21738">
        <ele>986.45</ele>
        <time>2019-06-02T11:45:25Z</time>
      </trkpt>
      <trkpt lat="46.78666" lon="6.21764">
        <ele>983.57</ele>
        <time>2019-06-02T11:45:35Z</time>
      </trkpt>
      <trkpt lat="46.78638" lon="6.21782">
        <ele>982.12</ele>
        <time>2019-06-02T11:45:43Z</time>
      </trkpt>
      <trkpt lat="46.78624" lon="6.21793">
        <ele>981.64</ele>
        <time>2019-06-02T11:45:47Z</time>
      </trkpt>
      <trkpt lat="46.78618" lon="6.218">
        <ele>981.16</ele>
        <time>2019-06-02T11:45:49Z</time>
      </trkpt>
      <trkpt lat="46.78581" lon="6.21874">
        <ele>979.24</ele>
        <time>2019-06-02T11:46:00Z</time>
      </trkpt>
      <trkpt lat="46.78574" lon="6.21906">
        <ele>979.24</ele>
        <time>2019-06-02T11:46:04Z</time>
      </trkpt>
      <trkpt lat="46.78572" lon="6.21939">
        <ele>979.24</ele>
        <time>2019-06-02T11:46:08Z</time>
      </trkpt>
      <trkpt lat="46.78577" lon="6.21969">
        <ele>978.76</ele>
        <time>2019-06-02T11:46:12Z</time>
      </trkpt>
      <trkpt lat="46.78596" lon="6.2206">
        <ele>977.8</ele>
        <time>2019-06-02T11:46:25Z</time>
      </trkpt>
      <trkpt lat="46.7858" lon="6.22071">
        <ele>978.28</ele>
        <time>2019-06-02T11:46:32Z</time>
      </trkpt>
      <trkpt lat="46.78545" lon="6.22054">
        <ele>979.72</ele>
        <time>2019-06-02T11:46:45Z</time>
      </trkpt>
      <trkpt lat="46.78517" lon="6.22047">
        <ele>983.09</ele>
        <time>2019-06-02T11:46:57Z</time>
      </trkpt>
      <trkpt lat="46.78489" lon="6.22046">
        <ele>985.01</ele>
        <time>2019-06-02T11:47:09Z</time>
      </trkpt>
      <trkpt lat="46.78467" lon="6.2205">
        <ele>988.37</ele>
        <time>2019-06-02T11:47:20Z</time>
      </trkpt>
      <trkpt lat="46.78461" lon="6.22051">
        <ele>988.85</ele>
        <time>2019-06-02T11:47:23Z</time>
      </trkpt>
      <trkpt lat="46.78437" lon="6.2206">
        <ele>991.26</ele>
        <time>2019-06-02T11:47:35Z</time>
      </trkpt>
      <trkpt lat="46.78431" lon="6.22063">
        <ele>992.22</ele>
        <time>2019-06-02T11:47:38Z</time>
      </trkpt>
      <trkpt lat="46.78413" lon="6.22071">
        <ele>994.62</ele>
        <time>2019-06-02T11:47:48Z</time>
      </trkpt>
      <trkpt lat="46.784" lon="6.22079">
        <ele>996.06</ele>
        <time>2019-06-02T11:47:55Z</time>
      </trkpt>
      <trkpt lat="46.78388" lon="6.22088">
        <ele>997.51</ele>
        <time>2019-06-02T11:48:01Z</time>
      </trkpt>
      <trkpt lat="46.78383" lon="6.22087">
        <ele>998.47</ele>
        <time>2019-06-02T11:48:04Z</time>
      </trkpt>
      <trkpt lat="46.78366" lon="6.22103">
        <ele>999.91</ele>
        <time>2019-06-02T11:48:12Z</time>
      </trkpt>
      <trkpt lat="46.78341" lon="6.2212">
        <ele>1001.83</ele>
        <time>2019-06-02T11:48:23Z</time>
      </trkpt>
      <trkpt lat="46.78337" lon="6.22122">
        <ele>1001.83</ele>
        <time>2019-06-02T11:48:25Z</time>
      </trkpt>
      <trkpt lat="46.7833" lon="6.22128">
        <ele>1002.31</ele>
        <time>2019-06-02T11:48:29Z</time>
      </trkpt>
      <trkpt lat="46.78309" lon="6.22144">
        <ele>1002.31</ele>
        <time>2019-06-02T11:48:38Z</time>
      </trkpt>
      <trkpt lat="46.78291" lon="6.22165">
        <ele>1003.75</ele>
        <time>2019-06-02T11:48:48Z</time>
      </trkpt>
      <trkpt lat="46.78285" lon="6.22172">
        <ele>1003.75</ele>
        <time>2019-06-02T11:48:52Z</time>
      </trkpt>
      <trkpt lat="46.78277" lon="6.22184">
        <ele>1004.23</ele>
        <time>2019-06-02T11:48:57Z</time>
      </trkpt>
      <trkpt lat="46.78269" lon="6.22197">
        <ele>1004.23</ele>
        <time>2019-06-02T11:49:01Z</time>
      </trkpt>
      <trkpt lat="46.78247" lon="6.22239">
        <ele>1005.2</ele>
        <time>2019-06-02T11:49:14Z</time>
      </trkpt>
      <trkpt lat="46.7824" lon="6.22261">
        <ele>1005.68</ele>
        <time>2019-06-02T11:49:20Z</time>
      </trkpt>
      <trkpt lat="46.78236" lon="6.22289">
        <ele>1006.16</ele>
        <time>2019-06-02T11:49:29Z</time>
      </trkpt>
      <trkpt lat="46.78233" lon="6.22297">
        <ele>1006.16</ele>
        <time>2019-06-02T11:49:31Z</time>
      </trkpt>
      <trkpt lat="46.78216" lon="6.22356">
        <ele>1007.12</ele>
        <time>2019-06-02T11:49:45Z</time>
      </trkpt>
      <trkpt lat="46.782" lon="6.22402">
        <ele>1008.56</ele>
        <time>2019-06-02T11:49:57Z</time>
      </trkpt>
      <trkpt lat="46.78183" lon="6.22441">
        <ele>1010.48</ele>
        <time>2019-06-02T11:50:09Z</time>
      </trkpt>
      <trkpt lat="46.78163" lon="6.2249">
        <ele>1013.85</ele>
        <time>2019-06-02T11:50:23Z</time>
      </trkpt>
      <trkpt lat="46.78137" lon="6.22516">
        <ele>1016.73</ele>
        <time>2019-06-02T11:50:34Z</time>
      </trkpt>
      <trkpt lat="46.78103" lon="6.22528">
        <ele>1018.17</ele>
        <time>2019-06-02T11:50:47Z</time>
      </trkpt>
      <trkpt lat="46.78086" lon="6.22557">
        <ele>1019.62</ele>
        <time>2019-06-02T11:50:58Z</time>
      </trkpt>
      <trkpt lat="46.78086" lon="6.22603">
        <ele>1021.54</ele>
        <time>2019-06-02T11:51:11Z</time>
      </trkpt>
      <trkpt lat="46.78088" lon="6.22662">
        <ele>1022.98</ele>
        <time>2019-06-02T11:51:26Z</time>
      </trkpt>
      <trkpt lat="46.78081" lon="6.22684">
        <ele>1022.98</ele>
        <time>2019-06-02T11:51:37Z</time>
      </trkpt>
      <trkpt lat="46.78081" lon="6.22683">
        <ele>1022.5</ele>
        <time>2019-06-02T11:51:57Z</time>
      </trkpt>
      <trkpt lat="46.78081" lon="6.22683">
        <ele>1022.98</ele>
        <time>2019-06-02T11:52:11Z</time>
      </trkpt>
      <trkpt lat="46.78081" lon="6.22683">
        <ele>1022.5</ele>
        <time>2019-06-02T11:52:32Z</time>
      </trkpt>
      <trkpt lat="46.78081" lon="6.22683">
        <ele>1022.5</ele>
        <time>2019-06-02T11:52:39Z</time>
      </trkpt>
      <trkpt lat="46.78078" lon="6.22688">
        <ele>1022.5</ele>
        <time>2019-06-02T11:52:42Z</time>
      </trkpt>
      <trkpt lat="46.78043" lon="6.22722">
        <ele>1021.54</ele>
        <time>2019-06-02T11:52:56Z</time>
      </trkpt>
      <trkpt lat="46.78036" lon="6.22726">
        <ele>1021.54</ele>
        <time>2019-06-02T11:52:58Z</time>
      </trkpt>
      <trkpt lat="46.78021" lon="6.22739">
        <ele>1022.02</ele>
        <time>2019-06-02T11:53:02Z</time>
      </trkpt>
      <trkpt lat="46.77995" lon="6.22769">
        <ele>1023.46</ele>
        <time>2019-06-02T11:53:11Z</time>
      </trkpt>
      <trkpt lat="46.77973" lon="6.22803">
        <ele>1026.34</ele>
        <time>2019-06-02T11:53:22Z</time>
      </trkpt>
      <trkpt lat="46.77958" lon="6.22849">
        <ele>1027.79</ele>
        <time>2019-06-02T11:53:34Z</time>
      </trkpt>
      <trkpt lat="46.77955" lon="6.22861">
        <ele>1028.27</ele>
        <time>2019-06-02T11:53:37Z</time>
      </trkpt>
      <trkpt lat="46.77947" lon="6.22884">
        <ele>1028.75</ele>
        <time>2019-06-02T11:53:43Z</time>
      </trkpt>
      <trkpt lat="46.77946" lon="6.22906">
        <ele>1028.75</ele>
        <time>2019-06-02T11:53:48Z</time>
      </trkpt>
      <trkpt lat="46.77942" lon="6.22934">
        <ele>1029.23</ele>
        <time>2019-06-02T11:53:58Z</time>
      </trkpt>
      <trkpt lat="46.7794" lon="6.22962">
        <ele>1028.75</ele>
        <time>2019-06-02T11:54:07Z</time>
      </trkpt>
      <trkpt lat="46.77936" lon="6.22982">
        <ele>1028.75</ele>
        <time>2019-06-02T11:54:12Z</time>
      </trkpt>
      <trkpt lat="46.77931" lon="6.23024">
        <ele>1027.79</ele>
        <time>2019-06-02T11:54:19Z</time>
      </trkpt>
      <trkpt lat="46.77934" lon="6.23062">
        <ele>1028.27</ele>
        <time>2019-06-02T11:54:24Z</time>
      </trkpt>
      <trkpt lat="46.77942" lon="6.23114">
        <ele>1030.19</ele>
        <time>2019-06-02T11:54:33Z</time>
      </trkpt>
      <trkpt lat="46.77939" lon="6.23131">
        <ele>1030.19</ele>
        <time>2019-06-02T11:54:36Z</time>
      </trkpt>
      <trkpt lat="46.77926" lon="6.23163">
        <ele>1030.67</ele>
        <time>2019-06-02T11:54:42Z</time>
      </trkpt>
      <trkpt lat="46.77903" lon="6.23203">
        <ele>1027.31</ele>
        <time>2019-06-02T11:54:48Z</time>
      </trkpt>
      <trkpt lat="46.77881" lon="6.23234">
        <ele>1023.94</ele>
        <time>2019-06-02T11:54:52Z</time>
      </trkpt>
      <trkpt lat="46.77861" lon="6.23259">
        <ele>1020.58</ele>
        <time>2019-06-02T11:54:55Z</time>
      </trkpt>
      <trkpt lat="46.77835" lon="6.2329">
        <ele>1017.21</ele>
        <time>2019-06-02T11:54:59Z</time>
      </trkpt>
      <trkpt lat="46.77808" lon="6.23317">
        <ele>1013.37</ele>
        <time>2019-06-02T11:55:03Z</time>
      </trkpt>
      <trkpt lat="46.77787" lon="6.23334">
        <ele>1010</ele>
        <time>2019-06-02T11:55:06Z</time>
      </trkpt>
      <trkpt lat="46.77754" lon="6.23367">
        <ele>1007.12</ele>
        <time>2019-06-02T11:55:14Z</time>
      </trkpt>
      <trkpt lat="46.77721" lon="6.23419">
        <ele>1008.56</ele>
        <time>2019-06-02T11:55:25Z</time>
      </trkpt>
      <trkpt lat="46.77697" lon="6.23455">
        <ele>1010.48</ele>
        <time>2019-06-02T11:55:37Z</time>
      </trkpt>
      <trkpt lat="46.77665" lon="6.23506">
        <ele>1011.44</ele>
        <time>2019-06-02T11:55:51Z</time>
      </trkpt>
      <trkpt lat="46.77646" lon="6.23523">
        <ele>1011.44</ele>
        <time>2019-06-02T11:56:01Z</time>
      </trkpt>
      <trkpt lat="46.77646" lon="6.23523">
        <ele>1011.44</ele>
        <time>2019-06-02T11:56:20Z</time>
      </trkpt>
      <trkpt lat="46.77634" lon="6.23532">
        <ele>1010.96</ele>
        <time>2019-06-02T11:56:26Z</time>
      </trkpt>
      <trkpt lat="46.77585" lon="6.23571">
        <ele>1008.56</ele>
        <time>2019-06-02T11:56:39Z</time>
      </trkpt>
      <trkpt lat="46.77553" lon="6.23601">
        <ele>1005.2</ele>
        <time>2019-06-02T11:56:44Z</time>
      </trkpt>
      <trkpt lat="46.77508" lon="6.23639">
        <ele>1001.83</ele>
        <time>2019-06-02T11:56:50Z</time>
      </trkpt>
      <trkpt lat="46.77474" lon="6.23668">
        <ele>999.43</ele>
        <time>2019-06-02T11:56:54Z</time>
      </trkpt>
      <trkpt lat="46.77457" lon="6.23681">
        <ele>997.99</ele>
        <time>2019-06-02T11:56:56Z</time>
      </trkpt>
      <trkpt lat="46.77403" lon="6.23726">
        <ele>995.58</ele>
        <time>2019-06-02T11:57:03Z</time>
      </trkpt>
      <trkpt lat="46.77378" lon="6.23735">
        <ele>993.66</ele>
        <time>2019-06-02T11:57:06Z</time>
      </trkpt>
      <trkpt lat="46.77369" lon="6.23736">
        <ele>992.7</ele>
        <time>2019-06-02T11:57:07Z</time>
      </trkpt>
      <trkpt lat="46.77293" lon="6.23743">
        <ele>987.41</ele>
        <time>2019-06-02T11:57:15Z</time>
      </trkpt>
      <trkpt lat="46.77274" lon="6.23745">
        <ele>985.97</ele>
        <time>2019-06-02T11:57:17Z</time>
      </trkpt>
      <trkpt lat="46.77236" lon="6.23724">
        <ele>981.64</ele>
        <time>2019-06-02T11:57:22Z</time>
      </trkpt>
      <trkpt lat="46.77207" lon="6.23694">
        <ele>977.32</ele>
        <time>2019-06-02T11:57:26Z</time>
      </trkpt>
      <trkpt lat="46.77179" lon="6.23663">
        <ele>973.95</ele>
        <time>2019-06-02T11:57:30Z</time>
      </trkpt>
      <trkpt lat="46.77166" lon="6.2365">
        <ele>971.55</ele>
        <time>2019-06-02T11:57:32Z</time>
      </trkpt>
      <trkpt lat="46.77131" lon="6.23632">
        <ele>968.18</ele>
        <time>2019-06-02T11:57:40Z</time>
      </trkpt>
      <trkpt lat="46.77092" lon="6.23631">
        <ele>964.34</ele>
        <time>2019-06-02T11:57:46Z</time>
      </trkpt>
      <trkpt lat="46.77058" lon="6.23647">
        <ele>960.49</ele>
        <time>2019-06-02T11:57:51Z</time>
      </trkpt>
      <trkpt lat="46.77013" lon="6.23653">
        <ele>956.65</ele>
        <time>2019-06-02T11:57:57Z</time>
      </trkpt>
      <trkpt lat="46.7699" lon="6.23653">
        <ele>954.25</ele>
        <time>2019-06-02T11:58:00Z</time>
      </trkpt>
      <trkpt lat="46.76944" lon="6.23638">
        <ele>950.4</ele>
        <time>2019-06-02T11:58:06Z</time>
      </trkpt>
      <trkpt lat="46.76906" lon="6.23626">
        <ele>947.52</ele>
        <time>2019-06-02T11:58:11Z</time>
      </trkpt>
      <trkpt lat="46.76891" lon="6.23625">
        <ele>946.07</ele>
        <time>2019-06-02T11:58:13Z</time>
      </trkpt>
      <trkpt lat="46.76879" lon="6.23628">
        <ele>944.15</ele>
        <time>2019-06-02T11:58:15Z</time>
      </trkpt>
      <trkpt lat="46.76859" lon="6.23639">
        <ele>942.23</ele>
        <time>2019-06-02T11:58:18Z</time>
      </trkpt>
      <trkpt lat="46.76846" lon="6.23652">
        <ele>940.79</ele>
        <time>2019-06-02T11:58:20Z</time>
      </trkpt>
      <trkpt lat="46.76833" lon="6.23706">
        <ele>936.46</ele>
        <time>2019-06-02T11:58:25Z</time>
      </trkpt>
      <trkpt lat="46.76842" lon="6.23754">
        <ele>933.1</ele>
        <time>2019-06-02T11:58:29Z</time>
      </trkpt>
      <trkpt lat="46.76862" lon="6.23821">
        <ele>930.21</ele>
        <time>2019-06-02T11:58:35Z</time>
      </trkpt>
      <trkpt lat="46.76868" lon="6.2385">
        <ele>928.29</ele>
        <time>2019-06-02T11:58:38Z</time>
      </trkpt>
      <trkpt lat="46.76864" lon="6.23881">
        <ele>927.33</ele>
        <time>2019-06-02T11:58:42Z</time>
      </trkpt>
      <trkpt lat="46.76844" lon="6.23913">
        <ele>926.37</ele>
        <time>2019-06-02T11:58:47Z</time>
      </trkpt>
      <trkpt lat="46.76836" lon="6.2393">
        <ele>926.37</ele>
        <time>2019-06-02T11:58:51Z</time>
      </trkpt>
      <trkpt lat="46.76831" lon="6.23932">
        <ele>926.37</ele>
        <time>2019-06-02T11:58:55Z</time>
      </trkpt>
      <trkpt lat="46.76828" lon="6.23927">
        <ele>926.85</ele>
        <time>2019-06-02T11:59:08Z</time>
      </trkpt>
      <trkpt lat="46.76828" lon="6.23927">
        <ele>926.37</ele>
        <time>2019-06-02T11:59:32Z</time>
      </trkpt>
      <trkpt lat="46.76827" lon="6.23927">
        <ele>925.89</ele>
        <time>2019-06-02T12:00:01Z</time>
      </trkpt>
      <trkpt lat="46.76828" lon="6.23926">
        <ele>926.85</ele>
        <time>2019-06-02T12:00:31Z</time>
      </trkpt>
      <trkpt lat="46.7683" lon="6.23927">
        <ele>925.89</ele>
        <time>2019-06-02T12:00:43Z</time>
      </trkpt>
      <trkpt lat="46.7683" lon="6.23927">
        <ele>925.41</ele>
        <time>2019-06-02T12:01:12Z</time>
      </trkpt>
      <trkpt lat="46.7683" lon="6.23927">
        <ele>924.93</ele>
        <time>2019-06-02T12:01:41Z</time>
      </trkpt>
      <trkpt lat="46.7683" lon="6.23926">
        <ele>924.93</ele>
        <time>2019-06-02T12:02:15Z</time>
      </trkpt>
      <trkpt lat="46.7683" lon="6.23926">
        <ele>924.93</ele>
        <time>2019-06-02T12:02:38Z</time>
      </trkpt>
      <trkpt lat="46.7683" lon="6.23926">
        <ele>924.45</ele>
        <time>2019-06-02T12:02:42Z</time>
      </trkpt>
      <trkpt lat="46.76833" lon="6.23935">
        <ele>924.45</ele>
        <time>2019-06-02T12:02:46Z</time>
      </trkpt>
      <trkpt lat="46.76838" lon="6.23946">
        <ele>923.48</ele>
        <time>2019-06-02T12:02:53Z</time>
      </trkpt>
      <trkpt lat="46.76854" lon="6.23956">
        <ele>923</ele>
        <time>2019-06-02T12:03:00Z</time>
      </trkpt>
      <trkpt lat="46.76864" lon="6.2396">
        <ele>922.52</ele>
        <time>2019-06-02T12:03:03Z</time>
      </trkpt>
      <trkpt lat="46.76869" lon="6.23993">
        <ele>921.56</ele>
        <time>2019-06-02T12:03:08Z</time>
      </trkpt>
      <trkpt lat="46.76854" lon="6.24115">
        <ele>919.64</ele>
        <time>2019-06-02T12:03:21Z</time>
      </trkpt>
      <trkpt lat="46.76852" lon="6.24153">
        <ele>919.16</ele>
        <time>2019-06-02T12:03:25Z</time>
      </trkpt>
      <trkpt lat="46.76843" lon="6.24187">
        <ele>919.64</ele>
        <time>2019-06-02T12:03:29Z</time>
      </trkpt>
      <trkpt lat="46.76786" lon="6.24297">
        <ele>918.68</ele>
        <time>2019-06-02T12:03:45Z</time>
      </trkpt>
      <trkpt lat="46.76754" lon="6.24361">
        <ele>916.75</ele>
        <time>2019-06-02T12:03:53Z</time>
      </trkpt>
      <trkpt lat="46.7674" lon="6.24433">
        <ele>915.31</ele>
        <time>2019-06-02T12:04:00Z</time>
      </trkpt>
      <trkpt lat="46.76741" lon="6.24468">
        <ele>914.35</ele>
        <time>2019-06-02T12:04:03Z</time>
      </trkpt>
      <trkpt lat="46.76746" lon="6.24504">
        <ele>912.91</ele>
        <time>2019-06-02T12:04:06Z</time>
      </trkpt>
      <trkpt lat="46.76736" lon="6.24594">
        <ele>909.06</ele>
        <time>2019-06-02T12:04:13Z</time>
      </trkpt>
      <trkpt lat="46.76724" lon="6.24633">
        <ele>907.14</ele>
        <time>2019-06-02T12:04:16Z</time>
      </trkpt>
      <trkpt lat="46.76717" lon="6.2466">
        <ele>906.18</ele>
        <time>2019-06-02T12:04:18Z</time>
      </trkpt>
      <trkpt lat="46.76675" lon="6.24727">
        <ele>901.37</ele>
        <time>2019-06-02T12:04:24Z</time>
      </trkpt>
      <trkpt lat="46.76658" lon="6.24746">
        <ele>900.41</ele>
        <time>2019-06-02T12:04:26Z</time>
      </trkpt>
      <trkpt lat="46.76634" lon="6.24774">
        <ele>898.01</ele>
        <time>2019-06-02T12:04:29Z</time>
      </trkpt>
      <trkpt lat="46.76585" lon="6.24803">
        <ele>896.09</ele>
        <time>2019-06-02T12:04:34Z</time>
      </trkpt>
      <trkpt lat="46.76548" lon="6.2483">
        <ele>892.24</ele>
        <time>2019-06-02T12:04:38Z</time>
      </trkpt>
      <trkpt lat="46.76507" lon="6.24833">
        <ele>889.84</ele>
        <time>2019-06-02T12:04:42Z</time>
      </trkpt>
      <trkpt lat="46.76487" lon="6.24825">
        <ele>889.36</ele>
        <time>2019-06-02T12:04:44Z</time>
      </trkpt>
      <trkpt lat="46.76391" lon="6.24784">
        <ele>887.43</ele>
        <time>2019-06-02T12:04:55Z</time>
      </trkpt>
      <trkpt lat="46.76353" lon="6.24732">
        <ele>885.99</ele>
        <time>2019-06-02T12:05:01Z</time>
      </trkpt>
      <trkpt lat="46.76298" lon="6.24586">
        <ele>882.63</ele>
        <time>2019-06-02T12:05:14Z</time>
      </trkpt>
      <trkpt lat="46.76292" lon="6.24577">
        <ele>882.15</ele>
        <time>2019-06-02T12:05:15Z</time>
      </trkpt>
      <trkpt lat="46.76257" lon="6.24542">
        <ele>880.71</ele>
        <time>2019-06-02T12:05:20Z</time>
      </trkpt>
      <trkpt lat="46.76165" lon="6.24511">
        <ele>878.78</ele>
        <time>2019-06-02T12:05:32Z</time>
      </trkpt>
      <trkpt lat="46.76089" lon="6.24546">
        <ele>876.38</ele>
        <time>2019-06-02T12:05:44Z</time>
      </trkpt>
      <trkpt lat="46.76052" lon="6.24575">
        <ele>876.38</ele>
        <time>2019-06-02T12:05:52Z</time>
      </trkpt>
      <trkpt lat="46.76009" lon="6.24608">
        <ele>875.9</ele>
        <time>2019-06-02T12:06:05Z</time>
      </trkpt>
      <trkpt lat="46.75995" lon="6.24618">
        <ele>875.9</ele>
        <time>2019-06-02T12:06:09Z</time>
      </trkpt>
      <trkpt lat="46.75972" lon="6.24636">
        <ele>875.9</ele>
        <time>2019-06-02T12:06:14Z</time>
      </trkpt>
      <trkpt lat="46.75959" lon="6.24647">
        <ele>875.9</ele>
        <time>2019-06-02T12:06:17Z</time>
      </trkpt>
      <trkpt lat="46.75875" lon="6.2471">
        <ele>875.9</ele>
        <time>2019-06-02T12:06:34Z</time>
      </trkpt>
      <trkpt lat="46.75852" lon="6.24729">
        <ele>875.9</ele>
        <time>2019-06-02T12:06:39Z</time>
      </trkpt>
      <trkpt lat="46.7584" lon="6.24746">
        <ele>875.9</ele>
        <time>2019-06-02T12:06:42Z</time>
      </trkpt>
      <trkpt lat="46.75835" lon="6.24773">
        <ele>875.9</ele>
        <time>2019-06-02T12:06:46Z</time>
      </trkpt>
      <trkpt lat="46.75835" lon="6.24812">
        <ele>876.38</ele>
        <time>2019-06-02T12:06:51Z</time>
      </trkpt>
      <trkpt lat="46.75839" lon="6.24848">
        <ele>876.86</ele>
        <time>2019-06-02T12:06:56Z</time>
      </trkpt>
      <trkpt lat="46.75844" lon="6.24896">
        <ele>877.82</ele>
        <time>2019-06-02T12:07:03Z</time>
      </trkpt>
      <trkpt lat="46.75851" lon="6.2497">
        <ele>878.78</ele>
        <time>2019-06-02T12:07:13Z</time>
      </trkpt>
      <trkpt lat="46.75852" lon="6.25002">
        <ele>879.74</ele>
        <time>2019-06-02T12:07:17Z</time>
      </trkpt>
      <trkpt lat="46.7585" lon="6.25032">
        <ele>880.22</ele>
        <time>2019-06-02T12:07:21Z</time>
      </trkpt>
      <trkpt lat="46.75845" lon="6.25115">
        <ele>882.15</ele>
        <time>2019-06-02T12:07:31Z</time>
      </trkpt>
      <trkpt lat="46.75845" lon="6.25139">
        <ele>882.63</ele>
        <time>2019-06-02T12:07:34Z</time>
      </trkpt>
      <trkpt lat="46.75843" lon="6.25157">
        <ele>883.11</ele>
        <time>2019-06-02T12:07:36Z</time>
      </trkpt>
      <trkpt lat="46.75824" lon="6.2521">
        <ele>884.07</ele>
        <time>2019-06-02T12:07:42Z</time>
      </trkpt>
      <trkpt lat="46.75809" lon="6.25225">
        <ele>884.55</ele>
        <time>2019-06-02T12:07:45Z</time>
      </trkpt>
      <trkpt lat="46.75787" lon="6.25258">
        <ele>885.03</ele>
        <time>2019-06-02T12:07:50Z</time>
      </trkpt>
      <trkpt lat="46.75769" lon="6.25365">
        <ele>887.43</ele>
        <time>2019-06-02T12:08:03Z</time>
      </trkpt>
      <trkpt lat="46.75755" lon="6.25447">
        <ele>889.36</ele>
        <time>2019-06-02T12:08:12Z</time>
      </trkpt>
      <trkpt lat="46.75739" lon="6.25521">
        <ele>890.8</ele>
        <time>2019-06-02T12:08:20Z</time>
      </trkpt>
      <trkpt lat="46.75733" lon="6.25537">
        <ele>891.28</ele>
        <time>2019-06-02T12:08:22Z</time>
      </trkpt>
      <trkpt lat="46.75718" lon="6.25567">
        <ele>891.76</ele>
        <time>2019-06-02T12:08:26Z</time>
      </trkpt>
      <trkpt lat="46.75704" lon="6.25597">
        <ele>892.72</ele>
        <time>2019-06-02T12:08:30Z</time>
      </trkpt>
      <trkpt lat="46.75676" lon="6.25648">
        <ele>894.16</ele>
        <time>2019-06-02T12:08:37Z</time>
      </trkpt>
      <trkpt lat="46.75665" lon="6.25669">
        <ele>894.64</ele>
        <time>2019-06-02T12:08:40Z</time>
      </trkpt>
      <trkpt lat="46.75629" lon="6.25725">
        <ele>896.57</ele>
        <time>2019-06-02T12:08:51Z</time>
      </trkpt>
      <trkpt lat="46.75625" lon="6.25729">
        <ele>897.05</ele>
        <time>2019-06-02T12:08:53Z</time>
      </trkpt>
      <trkpt lat="46.75636" lon="6.2573">
        <ele>896.57</ele>
        <time>2019-06-02T12:08:59Z</time>
      </trkpt>
      <trkpt lat="46.75644" lon="6.25706">
        <ele>896.09</ele>
        <time>2019-06-02T12:09:06Z</time>
      </trkpt>
      <trkpt lat="46.75661" lon="6.25682">
        <ele>895.61</ele>
        <time>2019-06-02T12:09:13Z</time>
      </trkpt>
      <trkpt lat="46.75683" lon="6.25643">
        <ele>894.16</ele>
        <time>2019-06-02T12:09:22Z</time>
      </trkpt>
      <trkpt lat="46.757" lon="6.25615">
        <ele>893.2</ele>
        <time>2019-06-02T12:09:32Z</time>
      </trkpt>
      <trkpt lat="46.75702" lon="6.25613">
        <ele>893.2</ele>
        <time>2019-06-02T12:09:34Z</time>
      </trkpt>
      <trkpt lat="46.75693" lon="6.25621">
        <ele>893.2</ele>
        <time>2019-06-02T12:09:42Z</time>
      </trkpt>
      <trkpt lat="46.75669" lon="6.25663">
        <ele>894.16</ele>
        <time>2019-06-02T12:09:52Z</time>
      </trkpt>
      <trkpt lat="46.75661" lon="6.25682">
        <ele>895.12</ele>
        <time>2019-06-02T12:09:56Z</time>
      </trkpt>
      <trkpt lat="46.75632" lon="6.25723">
        <ele>896.57</ele>
        <time>2019-06-02T12:10:08Z</time>
      </trkpt>
      <trkpt lat="46.75636" lon="6.25754">
        <ele>896.09</ele>
        <time>2019-06-02T12:10:14Z</time>
      </trkpt>
      <trkpt lat="46.75692" lon="6.25889">
        <ele>892.72</ele>
        <time>2019-06-02T12:10:30Z</time>
      </trkpt>
      <trkpt lat="46.75729" lon="6.26011">
        <ele>889.84</ele>
        <time>2019-06-02T12:10:41Z</time>
      </trkpt>
      <trkpt lat="46.75736" lon="6.26063">
        <ele>888.4</ele>
        <time>2019-06-02T12:10:45Z</time>
      </trkpt>
      <trkpt lat="46.75777" lon="6.26194">
        <ele>885.03</ele>
        <time>2019-06-02T12:10:56Z</time>
      </trkpt>
      <trkpt lat="46.75811" lon="6.26272">
        <ele>883.11</ele>
        <time>2019-06-02T12:11:03Z</time>
      </trkpt>
      <trkpt lat="46.75824" lon="6.26305">
        <ele>882.63</ele>
        <time>2019-06-02T12:11:06Z</time>
      </trkpt>
      <trkpt lat="46.75903" lon="6.26423">
        <ele>882.15</ele>
        <time>2019-06-02T12:11:20Z</time>
      </trkpt>
      <trkpt lat="46.75974" lon="6.26508">
        <ele>884.07</ele>
        <time>2019-06-02T12:11:33Z</time>
      </trkpt>
      <trkpt lat="46.76043" lon="6.26589">
        <ele>886.47</ele>
        <time>2019-06-02T12:11:48Z</time>
      </trkpt>
      <trkpt lat="46.76113" lon="6.26652">
        <ele>886.95</ele>
        <time>2019-06-02T12:12:03Z</time>
      </trkpt>
      <trkpt lat="46.7621" lon="6.26722">
        <ele>887.43</ele>
        <time>2019-06-02T12:12:23Z</time>
      </trkpt>
      <trkpt lat="46.76294" lon="6.26772">
        <ele>885.99</ele>
        <time>2019-06-02T12:12:40Z</time>
      </trkpt>
      <trkpt lat="46.76361" lon="6.26846">
        <ele>885.99</ele>
        <time>2019-06-02T12:12:56Z</time>
      </trkpt>
      <trkpt lat="46.76418" lon="6.26913">
        <ele>887.43</ele>
        <time>2019-06-02T12:13:11Z</time>
      </trkpt>
      <trkpt lat="46.76426" lon="6.26923">
        <ele>887.43</ele>
        <time>2019-06-02T12:13:13Z</time>
      </trkpt>
      <trkpt lat="46.76448" lon="6.2695">
        <ele>888.4</ele>
        <time>2019-06-02T12:13:19Z</time>
      </trkpt>
      <trkpt lat="46.76498" lon="6.27033">
        <ele>889.84</ele>
        <time>2019-06-02T12:13:34Z</time>
      </trkpt>
      <trkpt lat="46.76521" lon="6.27119">
        <ele>889.84</ele>
        <time>2019-06-02T12:13:49Z</time>
      </trkpt>
      <trkpt lat="46.76528" lon="6.27171">
        <ele>888.88</ele>
        <time>2019-06-02T12:13:58Z</time>
      </trkpt>
      <trkpt lat="46.76531" lon="6.27294">
        <ele>887.43</ele>
        <time>2019-06-02T12:14:16Z</time>
      </trkpt>
      <trkpt lat="46.76541" lon="6.27365">
        <ele>885.51</ele>
        <time>2019-06-02T12:14:29Z</time>
      </trkpt>
      <trkpt lat="46.76554" lon="6.27413">
        <ele>885.03</ele>
        <time>2019-06-02T12:14:43Z</time>
      </trkpt>
      <trkpt lat="46.7658" lon="6.27474">
        <ele>883.59</ele>
        <time>2019-06-02T12:14:57Z</time>
      </trkpt>
      <trkpt lat="46.76637" lon="6.27545">
        <ele>882.63</ele>
        <time>2019-06-02T12:15:09Z</time>
      </trkpt>
      <trkpt lat="46.76756" lon="6.27634">
        <ele>880.22</ele>
        <time>2019-06-02T12:15:27Z</time>
      </trkpt>
      <trkpt lat="46.7687" lon="6.27716">
        <ele>876.86</ele>
        <time>2019-06-02T12:15:44Z</time>
      </trkpt>
      <trkpt lat="46.76946" lon="6.27791">
        <ele>873.5</ele>
        <time>2019-06-02T12:15:56Z</time>
      </trkpt>
      <trkpt lat="46.76979" lon="6.2784">
        <ele>872.53</ele>
        <time>2019-06-02T12:16:02Z</time>
      </trkpt>
      <trkpt lat="46.77011" lon="6.27901">
        <ele>871.09</ele>
        <time>2019-06-02T12:16:09Z</time>
      </trkpt>
      <trkpt lat="46.77054" lon="6.27932">
        <ele>870.13</ele>
        <time>2019-06-02T12:16:16Z</time>
      </trkpt>
      <trkpt lat="46.77086" lon="6.27944">
        <ele>869.65</ele>
        <time>2019-06-02T12:16:21Z</time>
      </trkpt>
      <trkpt lat="46.77113" lon="6.27914">
        <ele>868.69</ele>
        <time>2019-06-02T12:16:28Z</time>
      </trkpt>
      <trkpt lat="46.77136" lon="6.27854">
        <ele>869.17</ele>
        <time>2019-06-02T12:16:36Z</time>
      </trkpt>
      <trkpt lat="46.77158" lon="6.27754">
        <ele>868.69</ele>
        <time>2019-06-02T12:16:50Z</time>
      </trkpt>
      <trkpt lat="46.77164" lon="6.27707">
        <ele>869.17</ele>
        <time>2019-06-02T12:16:57Z</time>
      </trkpt>
      <trkpt lat="46.77161" lon="6.2768">
        <ele>868.69</ele>
        <time>2019-06-02T12:17:01Z</time>
      </trkpt>
      <trkpt lat="46.7715" lon="6.27577">
        <ele>867.73</ele>
        <time>2019-06-02T12:17:16Z</time>
      </trkpt>
      <trkpt lat="46.77148" lon="6.27564">
        <ele>867.73</ele>
        <time>2019-06-02T12:17:18Z</time>
      </trkpt>
      <trkpt lat="46.77141" lon="6.27518">
        <ele>866.77</ele>
        <time>2019-06-02T12:17:27Z</time>
      </trkpt>
      <trkpt lat="46.77106" lon="6.27508">
        <ele>866.77</ele>
        <time>2019-06-02T12:17:39Z</time>
      </trkpt>
      <trkpt lat="46.77096" lon="6.27542">
        <ele>867.73</ele>
        <time>2019-06-02T12:17:49Z</time>
      </trkpt>
      <trkpt lat="46.77094" lon="6.27551">
        <ele>869.17</ele>
        <time>2019-06-02T12:17:52Z</time>
      </trkpt>
      <trkpt lat="46.77098" lon="6.27562">
        <ele>870.13</ele>
        <time>2019-06-02T12:17:57Z</time>
      </trkpt>
      <trkpt lat="46.77106" lon="6.27567">
        <ele>870.13</ele>
        <time>2019-06-02T12:18:08Z</time>
      </trkpt>
      <trkpt lat="46.77108" lon="6.27562">
        <ele>870.61</ele>
        <time>2019-06-02T12:18:24Z</time>
      </trkpt>
    </trkseg>
  </trk>
</gpx>